     2              OBSERVATION DATA    GPS                 RINEX VERSION / TYPE
                                                            PGM / RUN BY / DATE
                                                            COMMENT
Original Marker Name: RCAG                                  COMMENT
Campaign Name: jpl 1993-1997                                COMMENT
4-Character Station Name: RCAG                              COMMENT
6-Character Antenna Code: DMRCHT                            COMMENT
Vertical Measurement Point: BPA                             COMMENT
Vertical Offset to Rinex Ref. Point: 0.0000                 COMMENT
Radial Measurement Point: RRP                               COMMENT
Radial Offset to Rinex Ref. Point: 0.0000                   COMMENT
Antenna Height from Field Measurement: 0.0814 m             COMMENT
Additional Antenna Identification Info.:                    COMMENT
Turborogue and Ashtech Choke Ring                           COMMENT
Original XYZ: -2609002.9693 -4569586.6427 3592146.9704      COMMENT
New XYZ position is based on association with SCEC monument COMMENT
E1E9D0Z4+0011. Position of that monument is believed to be  COMMENT
valid to within 1 m horizontally; vertical accuracy         COMMENT
should be no worse than 3-times this value.                 COMMENT
                                                            COMMENT
Revised Rinex header created by UCSD GPS archive for        COMMENT
GSAC on 14-Apr-1999 (1999:104) 19:19:44 GMT                 COMMENT
For assistance contact dagnew@ucsd.edu or hjohnson@ucsd.edu COMMENT
                                                            COMMENT
RCAG                                                        MARKER NAME
Andrea Donnellan JET PROPULSION LABORATORY                  OBSERVER / AGENCY
T390 TURBOROGUE SNR-8000 UNKNOWN                            REC # / TYPE / VERS
S/N UNKNOWN DORNE-MARGOL. TYPE T                            ANT # / TYPE
 -2609191.0000 -4570718.0000  3592953.0000                  APPROX POSITION XYZ
        0.0814        0.0000        0.0000                  ANTENNA: DELTA H/E/N
     1     1     0                                          WAVELENGTH FACT L1/2
     5    C1    L1    L2    P1    P2                        # / TYPES OF OBSERV
     0                                                      INTERVAL
  1997     4    25     0     0    0.000000                  TIME OF FIRST OBS
  1997     4    25    23    59   30.000000                  TIME OF LAST OBS
     0                                                      # OF SATELLITES
                                                            END OF HEADER
 97  4 25  0  0  0.0000000  0  7 30 05 24 25 06 10 17
  20551223.09405 -12575451.99805  -9799051.05905  20551223.09405  20551226.09205
  21783443.84305   6041062.01802   4707318.69605  21783443.84305  21783447.70005
  23443951.75505  16468399.38505  12832516.25905  23443951.75505  23443956.70305
  24945849.51105    106427.55605     82930.56305  24945849.51105  24945849.51105
  21102683.69802 -15197063.00205 -11841860.41605  21102683.69802  21102686.90905
  21315121.20102 -10093310.08305  -7864909.28605  21315121.20102  21315124.83605
  23004175.97302 -11163336.25805  -8698692.53905  23004175.97302  23004182.29105
 97  4 25  0  0 30.0000000  0  7 30 05 24 25 06 10 17
  20558202.98502 -12538773.28905  -9770470.26005  20558202.98502  20558205.82005
  21799958.55905   6127846.76205   4774943.14705  21799958.55905  21799962.16605
  23459263.21005  16548859.33705  12895212.29305  23459263.21005  23459268.35005
  24949063.56905    123318.06305     96091.99705  24949063.56905  24949063.56905
  21093514.61905 -15245247.47805 -11879406.75505  21093514.61905  21093517.79505
  21321514.75005 -10059711.73405  -7838728.75805  21321514.75005  21321518.34605
  22990050.68305 -11237566.15205  -8756533.97305  22990050.68305  22990055.86405
 97  4 25  0  1  0.0000000  0  7 30 05 24 25 06 10 17
  20565296.31905 -12501497.19105  -9741423.96205  20565296.31905  20565299.16605
  21816538.39405   6214974.86805   4842835.15105  21816538.39405  21816542.15305
  23474576.40405  16629330.02505  12957916.70305  23474576.40405  23474580.26405
  24952363.98605    140658.99005    109604.40805  24952363.98605  24952363.98605
  21084380.69105 -15293245.77105 -11916808.01505  21084380.69105  21084383.97905
  21328013.24405 -10025562.34005  -7812118.84805  21328013.24405  21328016.65405
  22975969.99705 -11311563.08205  -8814193.87805  22975969.99705  22975974.82205
 97  4 25  0  1 30.0000000  0  7 05 30 24 25 06 10 17
  21833184.34105   6302450.38405   4910997.86905  21833184.34105  21833188.43405
  20572498.98105 -12463647.50305  -9711930.71305  20572498.98105  20572501.86405
  23489890.37605  16709807.01305  13020626.01405  23489890.37605  23489894.67105
  24955748.53105    158445.71005    123464.18905  24955748.53105  24955748.53105
  21075281.13205 -15341064.98305 -11954069.73005  21075281.13205  21075284.40205
  21334618.86105  -9990848.73005  -7785069.28905  21334618.86105  21334622.38405
  22961933.17505 -11385327.03205  -8871672.23805  22961933.17505  22961938.57905
 97  4 25  0  2  0.0000000  0  6 05 24 30 06 10 17
  21849903.06805   6390307.44805   4979457.89105  21849903.06805  21849907.47805
  23505205.58205  16790288.79005  13083339.05805  23505205.58205  23505209.73505
  20579811.47105 -12425219.63805  -9681986.93605  20579811.47105  20579814.41405
  21066216.50105 -15388699.19805 -11991187.29105  21066216.50105  21066219.82405
  21341339.37405  -9955533.11705  -7757550.63805  21341339.37405  21341343.00405
  22947945.08605 -11458832.89805  -8928949.50405  22947945.08605  22947950.18405
 97  4 25  0  2 30.0000000  0  6 05 24 06 10 17 30
  21866683.31905   6478487.83505   5048169.85305  21866683.31905  21866687.34105
  23520512.79205  16870728.34305  13146019.19805  23520512.79205  23520517.50405
  21057180.50705 -15436184.15905 -12028188.54605  21057180.50705  21057183.70805
  21348165.75905  -9919659.79805  -7729597.40705  21348165.75905  21348169.33505
  22933998.78805 -11532120.88105  -8986056.98105  22933998.78805  22934003.92505
  20587222.16105 -12386276.17205  -9651641.38905  20587222.16105  20587225.15505
 97  4 25  0  3  0.0000000  0  6 05 24 06 30 10 17
  21883523.18905   6566980.72005   5117125.31805  21883523.18905  21883526.90005
  23535816.20505  16951146.87005  13208682.96305  23535816.20505  23535820.12905
  21048176.37505 -15483501.32705 -12065059.06005  21048176.37505  21048179.55405
  20594730.98505 -12346817.26505  -9620894.19905  20594730.98505  20594733.98805
  21355096.54805  -9883238.29305  -7701217.02105  21355096.54805  21355100.11405
  22920095.95105 -11605180.77205  -9042986.72505  22920095.95105  22920101.19305
 97  4 25  0  3 30.0000000  0  6 05 24 06 10 17 30
  21900425.18205   6655801.58405   5186336.35605  21900425.18205  21900428.71005
  23551118.22005  17031558.23405  13271341.12905  23551118.22005  23551122.40405
  21039207.58305 -15530632.41905 -12101784.58005  21039207.58305  21039210.74505
  21362135.37705  -9846248.68005  -7672393.95505  21362135.37705  21362139.06105
  22906239.19005 -11677996.72105  -9099726.38005  22906239.19005  22906244.31605
  20602342.78005 -12306816.98605  -9589725.16205  20602342.78005  20602345.82705
 97  4 25  0  4  0.0000000  0  6 05 24 06 10 30 17
  21917388.73105   6744945.64205   5255799.23405  21917388.73105  21917392.43305
  23566418.44705  17111963.62805  13333994.65705  23566418.44705  23566425.15205
  21030273.59805 -15577580.39905 -12138367.41305  21030273.59805  21030276.91905
  21369281.10005  -9808696.82005  -7643132.77405  21369281.10005  21369285.11405
  20610058.72505 -12266269.42805  -9558129.67605  20610058.72505  20610061.59705
  22892425.91105 -11750585.76305  -9156289.23305  22892425.91105  22892431.88005
 97  4 25  0  4 30.0000000  0  6 05 24 06 10 17 30
  21934407.07205   6834378.12305   5325486.84905  21934407.07205  21934410.81305
  23581716.30705  17192356.18905  13396638.16205  23581716.30705  23581722.50705
  21021372.67205 -15624355.70205 -12174815.69405  21021372.67205  21021375.87305
  21376527.88405  -9770616.01905  -7613459.43205  21376527.88405  21376531.52705
  22878649.46005 -11822982.21205  -9212702.01305  22878649.46005  22878654.92005
  20617878.56305 -12225175.73205  -9526108.62905  20617878.56305  20617881.52405
 97  4 25  0  5  0.0000000  0  6 05 24 06 30 10 17
  21951485.22105   6924124.25805   5395418.86405  21951485.22105  21951489.34105
  23597016.99605  17272761.76405  13459291.83205  23597016.99605  23597022.98905
  21012506.17005 -15670949.93205 -12211122.87705  21012506.17005  21012509.38205
  20625808.23405 -12183505.74305  -9493638.52005  20625808.23405  20625810.94305
  21383879.52705  -9731982.16105  -7583355.13105  21383879.52705  21383883.36505
  22864911.33105 -11895177.44405  -9268958.00505  22864911.33105  22864916.75105
 97  4 25  0  5 30.0000000  0  6 05 24 06 10 17 30
  21968630.10005   7014221.06305   5465624.14105  21968630.10005  21968634.28205
  23612324.79005  17353203.75305  13521973.85305  23612324.79005  23612329.82805
  21003678.30805 -15717340.44105 -12247271.31405  21003678.30805  21003681.50505
  21391344.43205  -9692754.13605  -7552787.84305  21391344.43205  21391348.00905
  22851218.57505 -11967134.58205  -9325028.46905  22851218.57505  22851222.89405
  20633852.71405 -12141231.72905  -9460697.74505  20633852.71405  20633855.57505
 97  4 25  0  6  0.0000000  0  6 05 30 24 06 10 17
  21985837.45605   7104645.85805   5536084.99205  21985837.45605  21985841.49205
  20642008.49205 -12098372.31905  -9427300.81605  20642008.49205  20642011.56305
  23627637.15505  17433671.29905  13584675.80205  23627637.15505  23627640.80605
  20994887.68105 -15763535.06505 -12283267.11705  20994887.68105  20994890.84605
  21398917.29305  -9652958.42005  -7521778.19805  21398917.29305  21398921.08405
  22837567.52805 -12038869.21105  -9380925.54705  22837567.52805  22837572.13805
 97  4 25  0  6 30.0000000  0  7 05 24 26 10 17 30 06
  22003104.91805   7195387.25805   5606792.55005  22003104.91805  22003108.92805
  23642952.19405  17514151.05005  13647387.26505  23642952.19405  23642956.60505
  25028860.05115         0.10415         0.08115  25028860.05115  25028860.05115
  21406595.01705  -9612611.43605  -7490338.99605  21406595.01705  21406598.66605
  22823960.03705 -12110376.39505  -9436645.39705  22823960.03705  22823965.11905
  20650269.62205 -12054960.09705  -9393473.12705  20650269.62205  20650272.43705
  20986133.74105 -15809537.71305 -12319113.33005  20986133.74105  20986136.94405
 97  4 25  0  7  0.0000000  0  7 05 24 26 30 06 10 17
  22020433.46205   7286448.61605   5677749.42305  22020433.46205  22020437.49405
  23658268.47705  17594637.03005  13710103.58505  23658268.47705  23658272.36405
  25014154.42005    -77271.22105    -60211.34105  25014154.42005  25014154.42005
  20658630.76805 -12011022.29005  -9359235.89005  20658630.76805  20658633.49505
  20977414.98005 -15855354.20805 -12354814.49305  20977414.98005  20977418.12905
  21414380.33305  -9571699.34505  -7458459.45105  21414380.33305  21414383.95205
  22810398.02905 -12181645.55705  -9492179.77805  22810398.02905  22810403.04805
 97  4 25  0  7 30.0000000  0  7 05 24 26 10 30 06 17
  22037819.68105   7377813.87805   5748943.10005  22037819.68105  22037823.65705
  23673582.82905  17675114.68005  13772813.40805  23673582.82905  23673587.72505
  24999436.31205   -154621.14905   -120484.01305  24999436.31205  24999436.31205
  21422267.39805  -9530253.15105  -7426163.71905  21422267.39805  21422271.15705
  20667091.47805 -11966560.30105  -9324590.19705  20667091.47805  20667094.31105
  20968732.50105 -15900980.97405 -12390367.81605  20968732.50105  20968735.62505
  22796881.91405 -12252673.91305  -9547526.52305  22796881.91405  22796886.53105
 97  4 25  0  8  0.0000000  0  7 05 24 26 10 30 06 17
  22055256.74805   7469446.47705   5820345.09805  22055256.74805  22055260.73305
  23688887.20705  17755543.71205  13835485.35205  23688887.20705  23688891.99805
  24984697.23805   -232073.00205   -180836.10605  24984697.23805  24984697.23805
  21430247.72305  -9488316.38905  -7393485.72905  21430247.72305  21430251.28405
  20675645.96805 -11921606.44605  -9289561.23105  20675645.96805  20675648.97605
  20960080.93605 -15946446.55805 -12425795.54405  20960080.93605  20960084.00505
  22783403.73505 -12323501.56105  -9602716.87105  22783403.73505  22783408.39005
 97  4 25  0  8 30.0000000  0  7 05 24 26 10 17 30 06
  22072748.02805   7561363.76205   5891968.92505  22072748.02805  22072752.18205
  23704184.07405  17835929.23005  13898123.38305  23704184.07405  23704190.47605
  24969943.34805   -309608.18305   -241253.12905  24969943.34805  24969943.34805
  21438325.58905  -9445866.81105  -7360408.14405  21438325.58905  21438329.32105
  22769969.07005 -12394100.75905  -9657729.19505  22769969.07005  22769973.90905
  20684299.65005 -11876131.41205  -9254126.15205  20684299.65005  20684302.57605
  20951462.10505 -15991737.79005 -12461087.41405  20951462.10505  20951465.22405
 97  4 25  0  9  0.0000000  4  1
 -2609191.0000 -4570718.0000  3592953.0000                  APPROX POSITION XYZ
 97  4 25  0  9  0.0000000  0  7 05 24 26 10 30 06 17
  22090292.92505   7653562.78405   5963812.29205  22090292.92505  22090297.17205
  23719473.26705  17916273.19405  13960729.02605  23719473.26705  23719479.38705
  24955173.48105   -387219.78405   -301729.70105  24955173.48105  24955173.48105
  21446501.63205  -9402901.52705  -7326928.70905  21446501.63205  21446505.38105
  20693059.12905 -11830100.34805  -9218257.80205  20693059.12905  20693061.98105
  20942876.93305 -16036853.84705 -12496242.78205  20942876.93305  20942880.11005
  22756577.80205 -12464472.06705  -9712563.95205  22756577.80205  22756582.91105
 97  4 25  0  9 30.0000000  0  7 30 05 24 26 06 10 17
  20701931.39102 -11783476.09402  -9181927.22805  20701931.39105  20701934.22305
  22107893.38302   7746053.61702   6035883.04605  22107893.38305  22107897.58505
  23734759.08102  17996595.04202  14023317.44805  23734759.08105  23734763.64605
  24940394.43402   -464881.62302   -362245.42005  24940394.43405  24940394.43405
  20934331.12102 -16081761.91402 -12531236.08005  20934331.12105  20934334.33205
  21454778.35302  -9359407.59902  -7293037.34205  21454778.35305  21454781.84305
  22743233.73302 -12534596.12302  -9767206.03305  22743233.73305  22743239.17205
 97  4 25  0 10  0.0000000  0  8 30 05 24 26 23 06 10 17
  20710912.87402 -11736277.58002  -9145149.18005  20710912.87405  20710915.80405
  22125548.81602   7838833.66402   6108179.15105  22125548.81605  22125552.66805
  23750037.73602  18076884.25802  14085880.46605  23750037.73605  23750042.28105
  24925604.00402   -542607.30902   -422810.89005  24925604.00405  24925604.00405
  25215789.16012        -1.11812        -0.87115  25215789.16015  25215789.16015
  20925824.10002 -16126467.19602 -12566071.36005  20925824.10005  20925827.26905
  21463157.96302  -9315372.47902  -7258724.26805  21463157.96305  21463161.64405
  22729933.28302 -12604491.19602  -9821669.68905  22729933.28305  22729938.10305
 97  4 25  0 10 30.0000000  0  8 30 05 24 26 23 06 10 17
  20719999.21302 -11688529.11602  -9107942.59905  20719999.21305  20720002.18605
  22143253.24402   7931869.90702   6180674.89305  22143253.24405  22143256.64005
  23765306.71002  18157124.22002  14148405.07605  23765306.71005  23765311.93405
  24910794.20902   -620437.37202   -483455.96705  24910794.20905  24910794.20905
  25195350.46702   -107404.79202    -83692.04605  25195350.46705  25195350.46705
  20917351.96002 -16170987.40502 -12600762.42905  20917351.96005  20917355.12105
  21471636.00302  -9270819.10902  -7224007.36005  21471636.00305  21471639.80105
  22716670.71602 -12674184.23802  -9875975.92105  22716670.71605  22716675.48205
 97  4 25  0 11  0.0000000  0  8 30 05 24 26 23 06 10 17
  20729187.06402 -11640246.61702  -9070319.88605  20729187.06405  20729189.90605
  22161006.93402   8025165.93202   6253373.06505  22161006.93405  22161010.78305
  23780566.62502  18237319.21402  14210894.65005  23780566.62505  23780570.52805
  24895961.12202   -698373.51902   -544187.15805  24895961.12205  24895961.12205
  25174912.06502   -214808.70102   -167383.40305  25174912.06505  25174912.06505
  20908917.75802 -16215310.80702 -12635300.14205  20908917.75805  20908920.93705
  21480212.54402  -9225750.20402  -7188888.74005  21480212.54405  21480216.31305
  22703444.42502 -12743687.80802  -9930134.50505  22703444.42505  22703449.12805
 97  4 25  0 11 30.0000000  0  8 30 05 24 26 23 06 10 17
  20738483.83302 -11591391.84002  -9032251.24205  20738483.83305  20738486.79905
  22178821.31602   8118781.50402   6326320.23005  22178821.31605  22178825.19905
  23795828.00902  18317520.66102  14273389.25405  23795828.00905  23795834.90805
  24881122.48602   -776355.34402   -604950.26005  24881122.48605  24881126.19405
  25154484.05302   -322157.23202   -251031.61005  25154484.05305  25154484.05305
  20900532.65802 -16259374.32902 -12669635.34905  20900532.65805  20900535.79105
  21488898.01902  -9180106.02902  -7153321.85805  21488898.01905  21488902.06805
  22690264.23202 -12812951.52002  -9984106.19805  22690264.23205  22690269.55705
 97  4 25  0 12  0.0000000  0  8 30 05 24 26 23 06 10 17
  20747889.07602 -11541966.84802  -8993738.27805  20747889.07605  20747892.07105
  22196700.93202   8212739.94902   6399534.57205  22196700.93205  22196704.98205
  23811093.32502  18397739.60602  14335897.49405  23811093.32505  23811098.54505
  24866276.87302   -854373.56302   -665745.63405  24866276.87305  24866276.87305
  25134068.78702   -429437.41702   -334626.55905  25134068.78705  25134068.78705
  20892197.62402 -16303175.50302 -12703766.12905  20892197.62405  20892200.74805
  21497692.69702  -9133890.86002  -7117310.04005  21497692.69705  21497696.10405
  22677132.02602 -12881963.85702 -10037882.01405  22677132.02605  22677136.34405
 97  4 25  0 12 30.0000000  0  8 30 05 24 26 23 06 10 17
  20757400.99502 -11491981.32002  -8954788.53305  20757400.99505  20757403.89605
  22214643.27102   8307027.51302   6473005.36205  22214643.27105  22214647.00705
  23826363.21802  18477979.27202  14398421.88105  23826363.21805  23826368.52605
  24851425.17702   -932416.23902   -726558.10805  24851425.17705  24851425.17705
  25113664.04402   -536660.48202   -418173.54805  25113664.04405  25113664.04405
  20883909.96602 -16346727.36302 -12737702.63605  20883909.96605  20883913.12405
  21506592.59802  -9087121.61402  -7080866.48205  21506592.59805  21506596.21805
  22664050.73702 -12950705.73002 -10091447.08305  22664050.73705  22664055.11805
 97  4 25  0 13  0.0000000  0  8 30 05 24 26 23 06 10 17
  20767016.97402 -11441449.05202  -8915412.75305  20767016.97405  20767019.74805
  22232646.37502   8401633.78602   6546724.49405  22232646.37505  22232650.27105
  23841634.50102  18558228.39802  14460953.64405  23841634.50105  23841637.67705
  24836571.67302  -1010474.35002   -787382.61005  24836571.67305  24836571.67305
  25093265.34802   -643853.41402   -501703.95905  25093265.34805  25093265.34805
  20875667.30402 -16390041.49902 -12771453.90105  20875667.30405  20875670.50505
  21515595.59302  -9039810.43602  -7044000.63405  21515595.59305  21515599.25605
  22651020.19902 -13019180.83402 -10144804.28405  22651020.19905  22651024.89405
 97  4 25  0 13 30.0000000  0  8 30 05 24 26 23 06 10 17
  20776733.97702 -11390385.38502  -8875622.89605  20776733.97705  20776737.05905
  22250704.07702   8496526.07802   6620666.51005  22250704.07705  22250707.84005
  23856904.97002  18638477.11602  14523485.06805  23856904.97005  23856909.62305
  24821712.52202  -1088559.67502   -848228.31805  24821712.52205  24821712.52205
  25072867.98202   -751043.48102   -585224.21505  25072867.98205  25072867.98205
  20867464.44102 -16433147.78402 -12805043.20505  20867464.44105  20867467.60705
  21524695.72302  -8991988.65502  -7006736.91705  21524695.72305  21524699.54005
  22638038.59602 -13087398.45902 -10197960.85405  22638038.59605  22638043.19405
 97  4 25  0 14  0.0000000  0  8 30 05 24 26 23 06 10 17
  20786542.47002 -11338841.92402  -8835459.17805  20786542.47005  20786545.51105
  22268804.51202   8591645.44802   6694785.46605  22268804.51205  22268808.09805
  23872166.58202  18718678.60002  14585979.68905  23872166.58205  23872172.24705
  24806836.69502  -1166731.39102   -909138.58905  24806836.69505  24806836.69505
  25052460.49602   -858284.34202   -668787.97105  25052460.49605  25052460.49605
  20859291.08502 -16476100.37402 -12838512.74705  20859291.08505  20859294.23405
  21533881.40402  -8943718.09002  -6969123.49405  21533881.40405  21533885.11505
  22625097.31302 -13155405.87602 -10250953.62405  22625097.31305  22625102.38005
 97  4 25  0 14 30.0000000  0  8 30 05 24 26 23 06 10 17
  20796449.27402 -11286781.20202  -8794892.39605  20796449.27405  20796452.30805
  22286952.45902   8687013.28802   6769098.03705  22286952.45905  22286956.76805
  23887423.50902  18798855.16502  14648454.90505  23887423.50905  23887427.53605
  24791949.80402  -1244959.69002   -970095.58505  24791949.80405  24791949.80405
  25032047.32902   -965555.60902   -752380.99405  25032047.32905  25032047.32905
  20851153.83002 -16518861.20602 -12871832.86905  20851153.83005  20851157.02205
  21543161.95302  -8894948.31702  -6931121.08005  21543161.95305  21543165.78705
  22612200.15802 -13223180.54302 -10303765.02705  22612200.15805  22612204.53305
 97  4 25  0 15  0.0000000  0  8 30 05 24 26 23 06 10 17
  20806465.55102 -11234145.66402  -8753877.70605  20806465.55105  20806468.64605
  22305156.40802   8782676.88102   6843641.06805  22305156.40805  22305160.71505
  23902682.02402  18879040.19202  14710936.75805  23902682.02405  23902687.89905
  24777061.37002  -1323204.40802  -1031065.35605  24777061.37005  24777061.37005
  25011638.17302  -1072804.75002   -835945.58405  25011638.17305  25011645.62605
  20843063.14702 -16561378.37102 -12904963.11705  20843063.14705  20843066.31805
  21552548.13202  -8845623.63302  -6892686.26805  21552548.13205  21552551.91005
  22599352.42802 -13290695.46602 -10356374.03005  22599352.42805  22599357.11605
 97  4 25  0 15 30.0000000  0  8 30 05 24 26 23 06 10 17
  20816576.74002 -11181011.17902  -8712474.22705  20816576.74005  20816579.44705
  22323402.95702   8878562.72902   6918357.28005  22323402.95705  22323407.43305
  23917928.14602  18959157.44202  14773365.73105  23917928.14605  23917934.08305
  24762152.88102  -1401543.95602  -1092109.02605  24762152.88105  24762152.88105
  24991220.76002  -1180094.87802   -919547.63505  24991220.76005  24991220.76005
  20835002.66402 -16603736.25902 -12937969.25605  20835002.66405  20835005.86805
  21562027.80802  -8795808.50502  -6853869.29105  21562027.80805  21562031.54705
  22586540.14002 -13358024.01302 -10408837.80805  22586540.14005  22586544.51305
 97  4 25  0 16  0.0000000  0  8 30 05 24 26 23 06 10 17
  20826783.82602 -11127372.49502  -8670677.86905  20826783.82605  20826786.63905
  22341695.95802   8974692.56102   6993263.61205  22341695.95805  22341700.44205
  23933162.28502  19039210.45802  14835744.67305  23933162.28505  23933166.14105
  24747232.75602  -1479949.60702  -1153204.24005  24747232.75605  24747232.75605
  24970800.35202  -1287404.87202  -1003172.62705  24970800.35205  24970800.35205
  20826978.28902 -16645903.70702 -12970827.00105  20826978.28905  20826981.45905
  21571607.34102  -8745466.08902  -6814641.44305  21571607.34105  21571611.22305
  22573767.61402 -13425145.28802 -10461140.06605  22573767.61405  22573772.53305
 97  4 25  0 16 30.0000000  0  8 30 05 24 26 23 06 10 17
  20837096.82502 -11073176.83502  -8628447.50105  20837096.82505  20837099.89105
  22360042.53002   9071104.38202   7068389.67105  22360042.53005  22360046.16505
  23948392.84202  19119248.09402  14898111.62305  23948392.84205  23948397.95905
  24732314.40902  -1558348.56602  -1214294.20005  24732314.40905  24732314.40905
  24950384.43402  -1394686.44802  -1086760.77805  24950384.43405  24950394.85905
  20819002.02102 -16687819.59802 -13003488.72705  20819002.02105  20819005.11805
  21581297.39602  -8694545.73302  -6774963.24705  21581297.39605  21581301.03305
  22561044.39502 -13492005.25902 -10513238.70905  22561044.39505  22561049.58905
 97  4 25  0 17  0.0000000  0  8 30 05 24 26 23 06 10 17
  20847506.28302 -11018475.37502  -8585823.00005  20847506.28305  20847509.25805
  22378431.26902   9167739.12402   7143689.43905  22378431.26905  22378436.04705
  23963613.55502  19199237.00102  14960440.60305  23963613.55505  23963618.69805
  24717388.79302  -1636774.10102  -1275404.83305  24717388.79305  24717388.79305
  24929967.78002  -1501973.61302  -1170369.04905  24929967.78005  24929967.78005
  20811065.93102 -16729524.71702 -13035986.21605  20811065.93105  20811069.09205
  21591085.06002  -8643111.07202  -6734884.29805  21591085.06005  21591089.00505
  22548364.01902 -13558640.34502 -10565162.12405  22548364.01905  22548368.44505
 97  4 25  0 17 30.0000000  0  8 30 05 24 26 23 06 10 17
  20858013.56402 -10963259.57102  -8542797.71605  20858013.56405  20858016.60605
  22396870.13202   9264635.14802   7219192.79605  22396870.13205  22396874.05105
  23978833.65102  19279219.19902  15022764.37305  23978833.65105  23978837.34605
  24702468.14402  -1715181.38802  -1336501.36805  24702468.14405  24702468.14405
  24909554.53802  -1609243.06402  -1253946.68305  24909554.53805  24909560.59005
  20803178.32702 -16770973.94402 -13068284.31105  20803178.32705  20803181.39405
  21600973.23805  -8591147.15105  -6694392.93605  21600973.23802  21600977.18105
  22535733.37905 -13625015.29605 -10616882.82705  22535733.37902  22535738.54805
 97  4 25  0 18  0.0000000  0  8 30 05 24 26 23 06 10 17
  20868627.53605 -10907482.67205  -8499335.21505  20868627.53602  20868630.55705
  22415365.73705   9361828.33605   7294927.70805  22415365.73702  22415369.57105
  23994060.51005  19359234.12705  15085113.63105  23994060.51002  23994065.18005
  24687562.48105  -1793514.74405  -1397540.22005  24687562.48102  24687567.88405
  24889151.22705  -1716459.71805  -1337491.66705  24889151.22702  24889151.22705
  20795349.40305 -16812115.03905 -13100342.30605  20795349.40302  20795352.50805
  21610966.27505  -8538633.52605  -6653473.24005  21610966.27502  21610970.26405
  22523159.53805 -13691093.07705 -10668371.97305  22523159.53802  22523164.17805
 97  4 25  0 18 30.0000000  0  8 30 05 24 26 23 06 10 17
  20879339.57505 -10851190.08505  -8455470.88005  20879339.57502  20879342.47405
  22433908.59605   9459270.85105   7370856.90405  22433908.59602  22433912.25205
  24009284.95905  19439238.29105  15147454.52005  24009284.95902  24009289.18505
  24672659.73005  -1871828.58605  -1458567.72905  24672659.73002  24672659.73005
  24868751.99905  -1823657.16405  -1421021.70705  24868751.99902  24868763.41705
  20787566.76505 -16853013.77605 -13132211.44605  20787566.76502  20787569.94705
  21621050.70805  -8485639.82205  -6612179.44905  21621050.70802  21621054.63305
  22510630.95005 -13756931.57205 -10719674.66405  22510630.95002  22510635.46005
 97  4 25  0 19  0.0000000  0  8 30 05 24 26 23 06 10 17
  20890147.63205 -10794393.59805  -8411213.89405  20890147.63202  20890150.71805
  22452500.74405   9556973.83705   7446989.06805  22452500.74402  22452504.40005
  24024505.84405  19519226.41105  15209782.88405  24024505.84402  24024511.64105
  24657757.28205  -1950138.28105  -1519588.27105  24657757.28202  24657757.28205
  24848357.29205  -1930829.54205  -1504532.18105  24848357.29202  24848361.85105
  20779825.50905 -16893694.04705 -13163910.35305  20779825.50902  20779828.72805
  21631226.49905  -8432166.07205  -6570511.60205  21631226.49902  21631230.50705
  22498144.28305 -13822546.69205 -10770803.29805  22498144.28302  22498149.25905
 97  4 25  0 19 30.0000000  0  8 30 05 24 26 23 06 10 17
  20901043.16105 -10737136.68805  -8366598.14105  20901043.16102  20901046.25505
  22471132.65205   9654886.86605   7523284.90305  22471132.65202  22471137.21205
  24039712.65805  19599139.77305  15272053.03505  24039712.65802  24039717.29105
  24642847.60305  -2028496.83305  -1580642.84905  24642847.60302  24642853.92805
  24827959.97005  -2038016.06505  -1588053.81005  24827959.97002  24827959.97005
  20772114.94005 -16934212.87505 -13195483.46105  20772114.94002  20772118.10005
  21641485.82705  -8378252.35505  -6528500.92505  21641485.82702  21641489.83305
  22485691.87005 -13887983.14605 -10821792.71805  22485691.87002  22485696.98905
 97  4 25  0 20  0.0000000  0  8 30 05 24 26 23 06 10 17
  20912040.42505 -10679346.71805  -8321567.01405  20912040.42502  20912043.37005
  22489812.79905   9753050.99905   7599776.40405  22489812.79902  22489817.11905
  24054914.86005  19679028.68905  15334304.08905  24054914.86002  24054921.06305
  24627933.09805  -2106866.53205  -1641714.18105  24627933.09802  24627933.09805
  24807576.66305  -2145129.38205  -1671518.37105  24807576.66302  24807586.84005
  20764445.57905 -16974515.95205 -13226888.45005  20764445.57902  20764448.68605
  21651840.34105  -8323839.93605  -6486101.64805  21651840.34102  21651843.93105
  22473284.48705 -13953184.51405 -10872598.95405  22473284.48702  22473289.02405
 97  4 25  0 20 30.0000000  0  8 30 05 24 26 23 06 10 17
  20923139.16605 -10621021.94905  -8276119.16205  20923139.16602  20923142.23305
  22508543.19205   9851479.37505   7676473.80405  22508543.19202  22508547.98505
  24070115.23805  19758902.65805  15396543.51905  24070115.23802  24070120.65105
  24613015.16705  -2185263.12405  -1702798.25805  24613015.16702  24613015.16705
  24787210.97505  -2252150.52705  -1754911.14405  24787210.97502  24787210.97505
  20756821.41305 -17014581.46705 -13258108.32605  20756821.41302  20756824.60005
  21662292.53505  -8268913.33705  -6443301.70905  21662292.53502  21662296.41705
  22460922.78005 -14018147.67905 -10923219.57205  22460922.78002  22460927.81305
 97  4 25  0 21  0.0000000  0  8 30 05 24 26 23 06 10 17
  20934338.97105 -10562167.17105  -8230258.31805  20934338.97102  20934342.01905
  22527320.60505   9950155.90205   7753364.56705  22527320.60502  22527325.19905
  24085309.95405  19838751.53705  15458763.41605  24085309.95402  24085314.33405
  24598090.60105  -2263697.17305  -1763915.54005  24598090.60102  24598090.60105
  24766858.79305  -2359100.62405  -1838260.22705  24766858.79302  24766858.79305
  20749244.52605 -17054397.31005 -13289133.65805  20749244.52602  20749247.65805
  21672842.25005  -8213474.08505  -6400102.30405  21672842.25002  21672845.92005
  22448604.88705 -14082879.30805 -10973659.77805  22448604.88702  22448609.18405
 97  4 25  0 21 30.0000000  0  8 30 05 24 26 23 06 10 17
  20945626.89005 -10502848.90205  -8184036.31105  20945626.89002  20945629.87805
  22546134.04505  10049020.21805   7830401.65705  22546134.04502  22546138.25405
  24100486.20005  19918505.53505  15520909.34705  24100486.20002  24100492.08905
  24583145.85405  -2342227.94305  -1825108.27705  24583145.85402  24583145.85405
  24746508.72205  -2466040.26305  -1921589.81505  24746508.72202  24746508.72205
  20741708.07205 -17094003.04405 -13319995.27105  20741708.07202  20741711.14505
  21683475.34505  -8157596.34105  -6356561.21705  21683475.34502  21683479.07905
  22436320.26905 -14147433.10805 -11023961.41905  22436320.26902  22436324.95805
 97  4 25  0 22  0.0000000  0  8 30 05 24 26 23 06 10 17
  20957009.69905 -10443031.47205  -8137425.34705  20957009.69902  20957012.76205
  22564994.21205  10148131.08105   7907630.86305  22564994.21202  22564998.11105
  24115654.50105  19998214.93405  15583020.50805  24115654.50102  24115658.67005
  24568193.93005  -2420801.06305  -1886333.92705  24568193.93002  24568193.93005
  24726168.52005  -2572928.47905  -2004867.06905  24726168.52002  24726174.16105
  20734221.47705 -17133344.26005 -13350650.76605  20734221.47702  20734224.65705
  21694197.59705  -8101250.32005  -6312655.23405  21694197.59702  21694201.38505
  22424076.22905 -14211776.17705 -11074098.84505  22424076.22902  22424081.02005
 97  4 25  0 22 30.0000000  0  8 30 05 24 26 23 06 10 17
  20968493.56205 -10382683.38305  -8090400.88305  20968493.56202  20968496.71705
  22583908.19205  10247524.97905   7985080.61405  22583908.19202  22583913.17905
  24130821.53405  20077915.92905  15645125.19205  24130821.53402  24130825.65905
  24553246.50605  -2499351.59405  -1947542.04805  24553246.50602  24553246.50605
  24705841.38005  -2679749.75305  -2088104.17705  24705841.38002  24705845.64405
  20726789.46705 -17172399.23205 -13381083.20905  20726789.46702  20726792.68505
  21705016.97605  -8044394.93705  -6268352.34605  21705016.97602  21705020.76505
  22411881.05805 -14275863.91305 -11124037.31405  22411881.05802  22411885.21005
 97  4 25  0 23  0.0000000  0  8 30 05 24 26 23 06 10 17
  20980077.32905 -10321810.16805  -8042967.23105  20980077.32902  20980080.47605
  22602870.81905  10347176.03105   8062730.74605  22602870.81902  22602875.36305
  24145985.81905  20157604.04705  15707219.80505  24145985.81902  24145988.58905
  24538305.74805  -2577860.49205  -2008717.72705  24538305.74802  24538305.74805
  24685525.69805  -2786509.49105  -2171293.28905  24685525.69802  24685525.69805
  20719409.23805 -17211183.22905 -13411304.50105  20719409.23802  20719412.45405
  21715931.69705  -7987036.66205  -6223657.59605  21715931.69702  21715935.55305
  22399737.45305 -14339678.14405 -11173762.66705  22399737.45302  22399741.94005
 97  4 25  0 23 30.0000000  0  8 30 05 24 26 23 06 10 17
  20991755.98805 -10260438.89205  -7995145.48005  20991755.98802  20991759.05905
  22621876.42705  10447050.79605   8140555.19905  22621876.42702  22621880.75705
  24161142.37805  20237254.00705  15769284.66905  24161142.37802  24161148.96005
  24523372.73905  -2656333.15405  -2069869.99005  24523372.73902  24523372.73905
  24665219.46705  -2893218.44405  -2254442.85005  24665219.46702  24665228.65105
  20712075.91005 -17249719.97105 -13441333.12605  20712075.91002  20712079.17405
  21726936.97405  -7929204.22705  -6178593.37005  21726936.97402  21726940.61405
  22387642.34205 -14403238.42805 -11223290.14105  22387642.34202  22387647.13805
 97  4 25  0 24  0.0000000  0  8 30 05 24 26 23 06 10 17
  21003524.21105 -10198596.14405  -7946956.34605  21003524.21102  21003527.28805
  22640914.76305  10547097.04105   8218513.26905  22640914.76302  22640918.89305
  24176287.58305  20316844.18005  15831302.94905  24176287.58302  24176293.14805
  24508443.46305  -2734788.80105  -2130999.32005  24508443.46302  24508443.46305
  24644915.60205  -2999912.51005  -2337580.77505  24644915.60202  24644926.52405
  20704781.71305 -17288050.62205 -13471201.16205  20704781.71302  20704784.90605
  21738028.28105  -7870918.62905  -6133176.03305  21738028.28102  21738031.93305
  22375589.48605 -14466575.02105 -11272643.30405  22375589.48602  22375593.72305
 97  4 25  0 24 30.0000000  0  8 30 05 24 26 23 06 10 17
  21015387.01705 -10136257.26305  -7898380.61405  21015387.01702  21015390.10105
  22659987.79705  10647324.63305   8296612.66005  22659987.79702  22659992.03005
  24191425.70905  20396394.84105  15893290.44305  24191425.70902  24191429.25105
  24493520.69605  -2813208.51705  -2192105.49805  24493520.69602  24493520.69605
  24624617.47405  -3106575.23705  -2420694.28905  24624617.47402  24624628.89205
  20697532.21405 -17326147.66305 -13500887.16705  20697532.21402  20697535.39705
  21749213.40405  -7812140.02805  -6087374.53305  21749213.40402  21749217.25605
  22363584.11505 -14529664.08305 -11321803.59105  22363584.11502  22363588.43805
 97  4 25  0 25  0.0000000  0  8 30 05 24 26 23 06 10 17
  21027345.34305 -10073415.85905  -7849413.30705  21027345.34302  21027348.44605
  22679098.31105  10747751.68405   8374867.46305  22679098.31102  22679103.31105
  24206559.29205  20475919.66505  15955257.79305  24206559.29202  24206562.96805
  24478606.76705  -2891577.63805  -2253177.38005  24478606.76702  24478606.76705
  24604328.77505  -3213190.45905  -2503770.84205  24604328.77502  24604338.20705
  20690331.54505 -17363987.30805 -13530372.60205  20690331.54502  20690334.73205
  21760494.65405  -7752857.40805  -6041180.29605  21760494.65402  21760498.18805
  22351626.52005 -14592502.78205 -11370768.78205  22351626.52002  22351631.37505
 97  4 25  0 25 30.0000000  0  8 30 05 24 26 23 06 10 17
  21039399.81805 -10010069.76205  -7800052.73505  21039399.81802  21039402.71805
  22698251.37405  10848402.34505   8453296.50005  22698251.37402  22698255.87605
  24221689.49105  20555429.40505  16017213.44105  24221689.49102  24221693.61805
  24463705.45505  -2969888.33405  -2314193.43505  24463705.45502  24463705.45505
  24584048.60005  -3319763.09205  -2586814.14305  24584048.60002  24584058.03205
  20683181.32105 -17401561.90905 -13559651.51005  20683181.32102  20683184.50705
  21771872.91405  -7693063.86305  -5994587.93005  21771872.91402  21771877.03705
  22339713.17205 -14655107.32905 -11419551.52105  22339713.17202  22339717.66205
 97  4 25  0 26  0.0000000  0  8 30 05 24 26 23 06 10 17
  21051550.75405  -9946216.13605  -7750296.68105  21051550.75402  21051553.51305
  22717450.76705  10949294.60905   8531913.79805  22717450.76702  22717455.49705
  24236818.76105  20634936.51905  16079167.00705  24236818.76102  24236826.13005
  24448812.39105  -3048149.88205  -2375176.48005  24448812.39102  24448815.68705
  24563777.52805  -3426289.81705  -2669821.74005  24563777.52802  24563786.96005
  20676081.80505 -17438870.95605 -13588723.49005  20676081.80502  20676084.95705
  21783350.26105  -7632750.47505  -5947590.49405  21783350.26102  21783354.12005
  22327844.13905 -14717478.21305 -11468152.18505  22327844.13902  22327848.78405
 97  4 25  0 26 30.0000000  0  8 30 05 24 26 23 06 10 17
  21063798.66305  -9881852.45705  -7700143.18605  21063798.66302  21063801.75705
  22736699.11705  11050445.22005   8610732.41805  22736699.11702  22736702.65105
  24251949.63605  20714451.25005  16141126.50005  24251949.63602  24251955.56305
  24433930.28705  -3126353.63405  -2436114.38005  24433930.28702  24433934.42205
  24543520.72105  -3532741.57305  -2752770.90105  24543520.72102  24543528.53005
  20669035.40005 -17475899.90105 -13617577.20905  20669035.40002  20669038.60205
  21794927.04405  -7571913.64005  -5900185.18105  21794927.04402  21794930.68905
  22316022.81905 -14779599.44105 -11516558.31705  22316022.81902  22316027.62905
 97  4 25  0 27  0.0000000  0  8 30 05 24 26 23 06 10 17
  21076145.11605  -9816970.78705  -7649586.06405  21076145.11602  21076148.23405
  22755999.55405  11151867.93905   8689763.06405  22755999.55402  22756003.63105
  24267086.27605  20793991.50105  16203105.87305  24267086.27602  24267089.13705
  24419063.98305  -3204477.88605  -2496995.75505  24419063.98302  24419063.98305
  24523282.95705  -3639091.22805  -2835640.54705  24523282.95702  24523287.67905
  20662044.69705 -17512636.29305 -13646202.96805  20662044.69702  20662047.89005
  21806603.13405  -7510556.07505  -5852374.10505  21806603.13402  21806606.96205
  22304253.64605 -14841448.08705 -11564752.03605  22304253.64602  22304258.02305
 97  4 25  0 27 30.0000000  0  8 30 05 24 26 23 06 10 17
  21088581.06505  -9751620.11605  -7598663.48405  21088581.06502  21088584.19805
  22775342.15605  11253514.16905   8768967.86805  22775342.15602  22775346.30405
  24282218.62205  20873513.30005  16265070.90105  24282218.62202  24282223.44705
  24404201.98905  -3282577.74305  -2557847.24405  24404201.98902  24404205.19505
  24503059.69305  -3745362.35805  -2918448.98105  24503059.69302  24503065.84405
  20655103.08305 -17549114.52405 -13674627.55805  20655103.08302  20655106.21405
  21818368.96305  -7448726.47405  -5804195.20205  21818368.96302  21818372.37505
  22292528.65105 -14903062.65505 -11612763.36005  22292528.65102  22292532.79705
 97  4 25  0 28  0.0000000  0  8 30 05 24 26 23 06 10 17
  21101082.52405  -9685924.02405  -7547471.74605  21101082.52402  21101085.47405
  22794702.74805  11355254.58405   8848246.06705  22794702.74802  22794706.77505
  24297323.83605  20952890.15605  16326922.94205  24297323.83602  24297327.22305
  24389323.41705  -3360763.43005  -2618771.05705  24389323.41702  24389330.34805
  24482833.94405  -3851646.57205  -3001267.60205  24482833.94402  24482840.73305
  20648188.71905 -17585448.89405 -13702940.05205  20648188.71902  20648191.90605
  21830201.54705  -7386545.59005  -5755742.57805  21830201.54702  21830205.32405
  22280828.85405 -14964545.63005 -11660672.15205  22280828.85402  22280833.13105
 97  4 25  0 28 30.0000000  0  8 30 05 24 26 23 06 10 17
  21113653.39105  -9619864.87305  -7495997.10705  21113653.39102  21113656.45705
  22814085.57805  11457112.30005   8927615.67405  22814085.57802  22814089.02105
  24312405.04505  21032146.79805  16388681.34505  24312405.04502  24312410.15505
  24374438.77605  -3438982.14805  -2679720.64905  24374438.77602  24374440.61205
  24462611.94105  -3957912.45205  -3084071.96905  24462611.94102  24462617.83505
  20641310.29105 -17621595.73105 -13731106.41505  20641310.29102  20641313.47805
  21842105.30505  -7323991.05205  -5706998.79505  21842105.30502  21842109.51405
  22269163.46505 -15025847.98705 -11708440.20005  22269163.46502  22269168.19805
 97  4 25  0 29  0.0000000  0  8 30 05 24 26 23 06 10 17
  21126334.31605  -9553226.40005  -7444071.04505  21126334.31602  21126337.32905
  22833529.86805  11559294.59505   9007238.19605  22833529.86802  22833534.65505
  24327503.59905  21111489.42305  16450506.76205  24327503.59902  24327509.09505
  24359587.70305  -3517025.59205  -2740533.60405  24359587.70302  24359592.14505
  24442431.70405  -4063959.82705  -3166706.04605  24442431.70402  24442441.63205
  20634509.24505 -17657335.85305 -13758955.86005  20634509.24502  20634512.43505
  21854117.80705  -7260863.74205  -5657808.69805  21854117.80702  21854122.18805
  22257570.81805 -15086766.73005 -11755909.32305  22257570.81802  22257574.77705
 97  4 25  0 29 30.0000000  0  8 30 05 24 26 23 06 10 17
  21139095.12205  -9486166.65805  -7391816.72405  21139095.12202  21139098.15405
  22853003.66305  11661630.67205   9086980.54605  22853003.66302  22853009.55405
  24342586.36605  21190749.57405  16512267.90405  24342586.36602  24342593.23205
  24344737.18205  -3595063.18105  -2801341.97705  24344737.18202  24344741.46205
  24422263.29605  -4169946.07305  -3249292.48405  24422263.29602  24422268.19605
  20627753.94905 -17692834.58705 -13786617.20905  20627753.94902  20627757.12105
  21866206.29505  -7197337.84105  -5608308.01105  21866206.29502  21866210.87205
  22246020.53605 -15147463.20605 -11803205.25305  22246020.53602  22246024.98605
 97  4 25  0 30  0.0000000  0  8 30 05 24 26 23 06 10 17
  21151940.52605  -9418664.17005  -7339217.40205  21151940.52602  21151943.56605
  22872507.15905  11764122.49605   9166844.25205  22872507.15902  22872511.97605
  24357657.30405  21269943.12605  16573977.13205  24357657.30402  24357661.36105
  24329893.55505  -3673067.23205  -2862124.27105  24329893.55502  24329902.73905
  24402107.51405  -4275866.72805  -3331827.81705  24402107.51402  24402114.22505
  20621046.31405 -17728083.82205 -13814084.14305  20621046.31402  20621049.48305
  21878371.00205  -7133412.68705  -5558496.21305  21878371.00202  21878375.11205
  22234515.57205 -15207921.93005 -11850315.92005  22234515.57202  22234520.47605
 97  4 25  0 30 30.0000000  0  8 30 05 24 26 23 06 10 17
  21164873.63705  -9350699.83805  -7286258.19905  21164873.63702  21164876.71305
  22892042.51805  11866781.30305   9246838.08605  22892042.51802  22892046.66805
  24372717.33005  21349087.37005  16635647.93705  24372717.33002  24372727.01005
  24315056.37605  -3751038.54605  -2922881.04305  24315056.37602  24315060.31905
  24381963.78805  -4381723.01305  -3414313.03905  24381963.78802  24381967.41305
  20614388.04805 -17763073.32505 -13841348.69005  20614388.04802  20614391.23805
  21890612.55405  -7069084.38905  -5508370.27305  21890612.55402  21890616.60205
  22223056.36505 -15268142.00805 -11897240.62805  22223056.36502  22223060.56605
 97  4 25  0 31  0.0000000  0  8 30 05 24 26 23 06 10 17
  21177900.83505  -9282241.61805  -7232914.15405  21177900.83502  21177904.00105
  22911610.57505  11969611.14805   9326965.19305  22911610.57502  22911614.99505
  24387770.37405  21428190.77905  16697286.90005  24387770.37402  24387776.90505
  24300225.76105  -3828974.50605  -2983610.25105  24300225.76102  24300228.47905
  24361836.99105  -4487490.05805  -3496728.68505  24361836.99102  24361841.88205
  20607778.98105 -17797803.07005 -13868410.82505  20607778.98102  20607782.19205
  21902934.07205  -7004332.76705  -5457914.47705  21902934.07202  21902938.03705
  22211641.22405 -15328129.75105 -11943984.30305  22211641.22402  22211645.56605
 97  4 25  0 31 30.0000000  0  8 30 05 24 26 23 06 10 17
  21191020.02405  -9213301.00705  -7179194.22005  21191020.02402  21191023.16905
  22931209.45405  12072602.66505   9407218.27205  22931209.45402  22931214.91305
  24402812.94905  21507241.23005  16758884.63105  24402812.94902  24402819.42805
  24285403.28405  -3906865.20405  -3044304.19305  24285403.28402  24285412.22005
  24341725.64205  -4593173.72405  -3579079.40905  24341725.64202  24341730.30705
  20601216.72905 -17832288.18205 -13895282.33605  20601216.72902  20601219.92305
  21915338.60305  -6939147.53005  -5407120.80205  21915338.60302  21915342.69605
  22200268.08705 -15387893.85605 -11990553.70705  22200268.08702  22200272.65905
 97  4 25  0 32  0.0000000  0  8 30 05 24 26 23 06 10 17
  21204226.94905  -9143897.49805  -7125113.58505  21204226.94902  21204230.16005
  22950837.95805  12175750.72705   9487593.33105  22950837.95802  22950843.79305
  24417844.57005  21586229.85805  16820434.17405  24417844.57002  24417849.25205
  24270591.85205  -3984702.59405  -3104956.63705  24270591.85202  24270595.59805
  24321626.50905  -4698794.89905  -3661381.43005  24321626.50902  24321631.02405
  20594700.70805 -17866530.61505 -13921964.74605  20594700.70802  20594703.88805
  21927828.17305  -6873514.46005  -5355978.16005  21927828.17302  21927832.21205
  22188934.73305 -15447450.91705 -12036961.78805  22188934.73302  22188939.03405
 97  4 25  0 32 30.0000000  0  8 30 05 24 26 23 06 10 17
  21217520.41305  -9074039.05005  -7070678.45605  21217520.41302  21217523.57505
  22970498.84705  12279068.95005   9568100.98305  22970498.84702  22970502.69505
  24432862.91905  21665155.15805  16881934.40105  24432862.91902  24432867.28805
  24255790.38505  -4062482.95405  -3165564.62305  24255790.38502  24255795.50605
  24301539.20505  -4804349.02405  -3743631.22805  24301539.20502  24301545.16105
  20588233.97505 -17900513.50105 -13948444.91305  20588233.97502  20588237.10805
  21940407.78705  -6807407.66205  -5304466.38005  21940407.78702  21940411.93005
  22177641.56805 -15506798.51605 -12083206.65005  22177641.56802  22177645.59205
 97  4 25  0 33  0.0000000  0  8 30 05 24 26 23 06 10 17
  21230902.08005  -9003718.70005  -7015883.40005  21230902.08002  21230905.00605
  22990194.59305  12382570.84405   9648751.77005  22990194.59302  22990198.37905
  24447871.74005  21744025.90305  16943392.10905  24447871.74002  24447878.55605
  24241005.05505  -4140178.37805  -3226106.41505  24241005.05502  24241009.65705
  24281467.01305  -4909825.48605  -3825820.50305  24281467.01302  24281475.20505
  20581820.06805 -17934218.99405 -13974708.93105  20581820.06802  20581823.22605
  21953079.79305  -6740815.91105  -5252576.71705  21953079.79302  21953083.79705
  22166390.46705 -15565923.25805 -12129277.85405  22166390.46702  22166395.00505
 97  4 25  0 33 30.0000000  0  8 30 05 24 26 23 06 10 17
  21244369.77005  -8932945.41805  -6960735.41005  21244369.77002  21244372.92205
  23009926.83305  12486266.23505   9729553.32205  23009926.83305  23009932.50505
  24462872.58005  21822857.17005  17004819.03805  24462872.58005  24462876.08205
  24226240.09605  -4217770.99905  -3286568.10005  24226240.09605  24226245.24905
  24261411.34905  -5015218.55605  -3907944.80705  24261411.34905  24261419.54105
  20575462.18805 -17967629.66605 -14000743.21505  20575462.18805  20575465.35505
  21965843.47705  -6673741.95905  -5200311.30905  21965843.47705  21965847.52505
  22155185.06705 -15624806.51805 -12175160.88705  22155185.06705  22155189.14305
 97  4 25  0 34  0.0000000  0  8 30 05 24 26 23 06 10 17
  21257925.52205  -8861710.19705  -6905227.47005  21257925.52205  21257928.64505
  23029696.62005  12590156.77305   9810506.93905  23029696.62005  23029700.31805
  24477869.02205  21901661.39205  17066224.89705  24477869.02205  24477874.27305
  24211494.10905  -4295259.50605  -3346948.68305  24211494.10905  24211499.92205
  24241375.27605  -5120509.88905  -3989989.86305  24241375.27605  24241383.07905
  20569164.13605 -18000726.44705 -14026532.91105  20569164.13605  20569167.24205
  21978695.92505  -6606201.78805  -5147682.61505  21978695.92505  21978700.03205
  22144027.03105 -15683442.42905 -12220851.18605  22144027.03105  22144030.97305
 97  4 25  0 34 30.0000000  0  7 30 05 26 23 06 10 17
  21271568.35305  -8790016.34905  -6849362.15705  21271568.35305  21271571.49905
  23049498.81005  12694215.50305   9891591.62105  23049498.81005  23049503.43005
  24196764.85005  -4372659.36405  -3407260.19405  24196764.85005  24196769.81405
  24221360.74405  -5225691.55205  -4071949.45705  24221360.74405  24221367.43405
  20562922.51005 -18033525.26505 -14052090.42705  20562922.51005  20562925.74605
  21991630.81305  -6538228.90105  -5094716.74305  21991630.81305  21991634.52305
  22132913.59405 -15741843.72005 -12266358.66305  22132913.59405  22132918.28505
 97  4 25  0 35  0.0000000  0  7 30 05 26 23 06 10 17
  21285304.28705  -8717833.52505  -6793115.82605  21285304.28705  21285307.48505
  23069331.40005  12798436.17505   9972802.48305  23069331.40005  23069335.82505
  24182058.23205  -4449944.56105  -3467482.33205  24182058.23205  24182061.74505
  24201373.01105  -5330728.72205  -4153796.45505  24201373.01105  24201378.90105
  20556739.53905 -18066018.39805 -14077409.74605  20556739.53905  20556742.69505
  22004648.07105  -6469823.00705  -5041413.46505  22004648.07105  22004651.86905
  22121850.06505 -15799983.73205 -12311662.53905  22121850.06505  22121854.59305
 97  4 25  0 35 30.0000000  0  7 30 05 26 23 06 10 17
  21299130.07905  -8645178.77405  -6736501.76005  21299130.07905  21299133.23605
  23089190.53805  12902795.72405  10054121.54705  23089190.53805  23089194.84205
  24167371.12905  -4527126.41605  -3527623.95905  24167371.12905  24167376.39905
  24181412.63505  -5435619.56205  -4235529.45005  24181412.63505  24181417.09005
  20550612.70505 -18098214.66005 -14102497.73605  20550612.70505  20550615.83405
  22017743.87105  -6401004.75005  -4987788.85705  22017743.87105  22017747.72805
  22110831.74805 -15857885.26305 -12356780.59105  22110831.74805  22110835.69205
 97  4 25  0 36  0.0000000  0  7 30 05 26 23 06 10 17
  21313043.69305  -8572062.15205  -6679527.79505  21313043.69305  21313046.85505
  23109075.10005  13007289.14305  10135544.94805  23109075.10005  23109078.90805
  24152701.43705  -4604213.95505  -3587692.11505  24152701.43705  24152706.31005
  24161478.04605  -5540374.34005  -4317156.42805  24161478.04605  24161484.67005
  20544543.04205 -18130111.14105 -14127352.13205  20544543.04205  20544546.22105
  22030917.81705  -6331775.56705  -4933844.05205  22030917.81705  22030921.36005
  22099858.92105 -15915547.56605 -12401712.22705  22099858.92105  22099863.12905
 97  4 25  0 36 30.0000000  0  7 30 05 26 23 06 10 17
  21327040.08405  -8498510.87405  -6622215.13705  21327040.08405  21327043.13405
  23128984.37805  13111914.00805  10217070.76705  23128984.37805  23128987.60905
  24138050.41805  -4681206.62105  -3647686.32505  24138050.41805  24138054.78205
  24141565.72305  -5645009.66705  -4398690.34505  24141565.72305  24141571.91005
  20538528.86205 -18161715.12205 -14151978.60605  20538528.86205  20538532.02205
  22044171.61105  -6262126.83305  -4879572.31905  22044171.61105  22044175.57605
  22088933.95005 -15972959.06905 -12446448.44005  22088933.95005  22088938.19305
 97  4 25  0 37  0.0000000  0  7 30 05 26 23 06 10 17
  21341115.61805  -8424543.69405  -6564578.40105  21341115.61805  21341118.74405
  23148922.31905  13216689.50305  10298713.96005  23148922.31905  23148926.44505
  24123417.31605  -4758103.07505  -3707605.55005  24123417.31605  24123424.11805
  24121672.83605  -5749544.73205  -4480146.09705  24121672.83605  24121679.18605
  20532571.33505 -18193022.77005 -14176374.17105  20532571.33505  20532574.49205
  22057505.50105  -6192056.96505  -4824972.43405  22057505.50105  22057509.17705
  22078053.48905 -16030135.88905 -12491001.78605  22078053.48905  22078057.69305
 97  4 25  0 37 30.0000000  0  7 30 05 26 23 06 10 17
  21355265.73705  -8350184.46005  -6506636.16705  21355265.73705  21355268.76905
  23168891.31205  13321629.14905  10380485.06305  23168891.31205  23168897.33305
  24108801.76405  -4834910.23905  -3767455.22305  24108801.76405  24108808.60405
  24101795.27305  -5854001.73505  -4561541.07605  24101795.27305  24101800.04405
  20526668.99605 -18224039.14405 -14200542.77105  20526668.99605  20526672.11005
  22070917.34705  -6121575.61405  -4770051.91305  22070917.34705  22070921.64305
  22067213.93005 -16087096.97205 -12535387.02505  22067213.93005  22067218.51805
 97  4 25  0 38  0.0000000  0  7 30 05 26 23 06 10 17
  21369491.01805  -8275430.00705  -6448385.97205  21369491.01805  21369494.18005
  23188893.89305  13426742.51005  10462391.52505  23188893.89305  23188898.33205
  24094205.74505  -4911612.59905  -3827223.24505  24094205.74505  24094211.53705
  24081933.02505  -5958379.57905  -4642874.31505  24081933.02505  24081938.67905
  20520820.53705 -18254773.30305 -14224491.46805  20520820.53705  20520823.65105
  22084410.41505  -6050667.90005  -4714799.16205  22084410.41505  22084414.87105
  22056421.15905 -16143813.77605 -12579581.91705  22056421.15905  22056425.63605
 97  4 25  0 38 30.0000000  0  7 30 05 26 23 06 10 17
  21383795.24005  -8200260.66205  -6389812.48205  21383795.24005  21383798.41205
  23208930.73105  13532035.44505  10544437.90405  23208930.73105  23208935.35405
  24079632.67105  -4988194.32405  -3886897.27705  24079632.67105  24079638.59305
  24062090.27605  -6062657.42105  -4724129.67705  24062090.27605  24062096.02105
  20515025.25505 -18285227.76305 -14248222.21605  20515025.25505  20515028.44805
  22097984.75905  -5979335.66705  -4659215.61805  22097984.75905  22097988.73405
  22045671.88305 -16200300.95905 -12623597.88205  22045671.88305  22045676.10805
 97  4 25  0 39  0.0000000  4  1
 -2609191.0000 -4570718.0000  3592953.0000                  APPROX POSITION XYZ
 97  4 25  0 39  0.0000000  0  7 30 05 26 23 06 10 17
  21398182.51505  -8124655.35605  -6330899.28305  21398182.51505  21398185.71505
  23229000.91305  13637504.41705  10626621.47205  23229000.91305  23229005.43805
  24065082.01605  -5064656.83905  -3946478.38805  24065082.01605  24065087.19905
  24042268.98705  -6166819.75905  -4805295.00505  24042268.98705  24042273.69305
  20509284.24305 -18315396.70905 -14271730.48205  20509284.24305  20509287.42105
  22111636.66105  -5907594.78905  -4603313.64705  22111636.66105  22111640.87805
  22034963.71805 -16256572.25605 -12667445.62705  22034963.71805  22034967.91105
 97  4 25  0 39 30.0000000  0  7 30 05 26 23 06 10 17
  21412650.31302  -8048626.01205  -6271655.66205  21412650.31302  21412653.37705
  23249096.26802  13743105.56305  10708908.01705  23249096.26802  23249100.83505
  24050550.57102  -5141019.76205  -4005981.92605  24050550.57102  24050555.72605
  24022467.00602  -6270877.49005  -4886378.83405  24022467.00602  24022474.47305
  20503594.66102 -18345295.07405 -14295027.90705  20503594.66102  20503597.80705
  22125362.02402  -5835467.11205  -4547110.27205  22125362.02402  22125365.99605
  22024298.79702 -16312617.88605 -12711117.52305  22024298.79702  22024303.42005
 97  4 25  0 40  0.0000000  0  7 30 05 26 23 06 10 17
  21427195.70902  -7972189.12905  -6212094.48105  21427195.70902  21427198.91505
  23269210.43002  13848806.48505  10791272.32605  23269210.43002  23269215.48805
  24036032.81702  -5217309.24705  -4065428.21905  24036032.81702  24036037.86805
  24002685.28502  -6374829.96105  -4967380.66405  24002685.28502  24002692.11005
  20497956.83502 -18374922.82905 -14318114.46705  20497956.83502  20497959.98205
  22139160.92602  -5762954.79305  -4490607.17605  22139160.92602  22139164.48205
  22013674.04902 -16368451.51605 -12754624.22505  22013674.04902  22013678.33105
 97  4 25  0 40 30.0000000  0  7 30 05 26 23 06 10 17
  21441826.06202  -7895306.59605  -6152186.04005  21441826.06202  21441829.26305
  23289350.98202  13954646.12705  10873744.70805  23289350.98202  23289355.95905
  24021534.91202  -5293496.81405  -4124795.12305  24021534.91202  24021539.52105
  23982933.22302  -6478625.00605  -5048259.81005  23982933.22302  23982939.81305
  20492383.58202 -18404210.10105 -14340935.71705  20492383.58202  20492386.75805
  22153039.37302  -5690023.22805  -4433777.39805  22153039.37302  22153042.73705
  22003095.31902 -16424042.93005 -12797942.19005  22003095.31902  22003099.65105
 97  4 25  0 41  0.0000000  0  7 30 05 26 23 06 10 17
  21456540.99502  -7817979.20805  -6091930.96205  21456540.99502  21456544.18905
  23309518.61402  14060629.07005  10956328.75905  23309518.61402  23309524.24905
  24007059.53702  -5369565.90805  -4184069.68605  24007059.53702  24007065.09505
  23963212.79502  -6582256.33705  -5129011.40005  23963212.79502  23963219.00605
  20486877.98602 -18433142.78205 -14363480.66105  20486877.98602  20486881.08805
  22166999.89602  -5616659.37105  -4376610.76505  22166999.89602  22167004.21505
  21992568.12002 -16479362.98505 -12841048.70705  21992568.12002  21992572.52605
 97  4 25  0 41 30.0000000  0  7 30 05 26 23 06 10 17
  21471334.83102  -7740237.03805  -6031352.67705  21471334.83102  21471338.03405
  23329710.06602  14166735.31305  11039008.88405  23329710.06602  23329714.72605
  23992605.99902  -5445520.99905  -4243255.38805  23992605.99902  23992609.70805
  23943521.53202  -6685733.82505  -5209643.11205  23943521.53202  23943527.22305
  20481434.65702 -18461747.55705 -14385770.09505  20481434.65702  20481437.76705
  22181040.80502  -5542873.22405  -4319115.08005  22181040.80502  22181045.11805
  21982089.99102 -16534425.23705 -12883954.33605  21982089.99102  21982094.38205
 97  4 25  0 42  0.0000000  0  7 30 05 26 23 06 10 17
  21486206.41402  -7662086.72405  -5970456.35805  21486206.41402  21486209.61605
  23349925.72602  14272968.30505  11121787.78305  23349925.72602  23349929.44405
  23978175.09602  -5521355.22005  -4302346.94205  23978175.09602  23978179.83905
  23923860.07702  -6789054.92905  -5290152.99605  23923860.07702  23923865.40805
  20476050.66902 -18490039.60905 -14407815.85105  20476050.66902  20476053.83405
  22195159.67802  -5468678.50705  -4261301.02805  22195159.67802  22195163.71705
  21971658.00902 -16589246.56105 -12926672.23205  21971658.00902  21971662.38905
 97  4 25  0 42 30.0000000  0  7 30 05 26 23 06 10 17
  21501153.21702  -7583541.47805  -5909252.29805  21501153.21702  21501156.43805
  23370161.72202  14379307.26105  11204649.26905  23370161.72202  23370166.93005
  23963768.61902  -5597061.01905  -4361338.41605  23963768.61902  23963771.36105
  23904221.95602  -6892255.61405  -5370569.00905  23904221.95602  23904226.79605
  20470720.54902 -18518050.44005 -14429642.46905  20470720.54902  20470723.69805
  22209347.94002  -5394118.74505  -4203202.52005  22209347.94002  22209351.65305
  21961267.58502 -16643848.36605 -12969219.07305  21961267.58502  21961271.94505
 97  4 25  0 43  0.0000000  0  7 30 05 26 23 06 10 17
  21516174.57702  -7504603.33705  -5847742.07905  21516174.57702  21516177.74405
  23390415.13302  14485739.59905  11287583.49705  23390415.13302  23390419.30405
  23949389.71202  -5672622.92205  -4420217.73805  23949389.71202  23949392.77005
  23884605.93002  -6995339.91905  -5450894.35005  23884605.93002  23884610.99105
  20465440.67302 -18545795.70305 -14451262.14905  20465440.67302  20465443.89105
  22223605.11202  -5319197.45305  -4144822.31105  22223605.11202  22223609.05505
  21950917.60402 -16698237.36505 -13011600.09605  21950917.60402  21950922.20005
 97  4 25  0 43 30.0000000  0  7 30 05 26 23 06 10 17
  21531276.73002  -7425240.40305  -5785900.86005  21531276.73002  21531280.01305
  23410693.80002  14592302.88105  11370619.76305  23410693.80002  23410699.53505
  23935044.55202  -5748006.55805  -4478958.15205  23935044.55202  23935047.04705
  23865020.37202  -7098262.85705  -5531093.94805  23865020.37202  23865025.58205
  20460218.66702 -18573237.95805 -14472645.72105  20460218.66702  20460221.80905
  22237937.29802  -5243881.64005  -4086134.67605  22237937.29802  22237941.30805
  21940614.84102 -16752379.41805 -13053788.69005  21940614.84102  21940619.02605
 97  4 25  0 44  0.0000000  0  7 30 05 26 23 06 10 17
  21546459.92302  -7345454.01205  -5723729.67405  21546459.92302  21546463.14805
  23430996.46902  14698994.16005  11453755.75605  23430996.46902  23431000.34705
  23920729.38602  -5823231.48505  -4537574.93605  23920729.38602  23920732.89405
  23845460.91902  -7201047.62505  -5611185.88805  23845460.91902  23845466.58205
  20455056.64402 -18600364.53605 -14493783.31205  20455056.64402  20455059.78105
  22252342.34902  -5168182.27705  -4027148.17305  22252342.34902  22252346.24605
  21930357.93602 -16806279.37905 -13095788.64105  21930357.93602  21930361.96605
 97  4 25  0 44 30.0000000  0  7 30 05 26 23 06 10 17
  21561719.48602  -7265265.40905  -5661245.07605  21561719.48602  21561722.50605
  23451320.48202  14805796.35705  11536978.19405  23451320.48202  23451324.42205
  23906442.26402  -5898312.14305  -4596079.27505  23906442.26402  23906446.57105
  23825925.63202  -7303704.74105  -5691178.36605  23825925.63202  23825930.59005
  20449954.84702 -18627174.70105 -14514674.34505  20449954.84702  20449958.00405
  22266817.52302  -5092114.56805  -3967874.64605  22266817.52302  22266821.32205
  21920145.64702 -16859945.30605 -13137606.23205  21920145.64702  21920149.87905
 97  4 25  0 45  0.0000000  0  7 30 05 26 23 06 10 17
  21577051.99302  -7184690.43605  -5598459.40805  21577051.99302  21577055.17905
  23471664.41802  14912705.44005  11620283.90005  23471664.41802  23471668.95805
  23892177.95602  -5973271.76205  -4654489.29605  23892177.95602  23892181.10805
  23806416.42002  -7406225.43405  -5771064.53405  23806416.42002  23806422.86805
  20444912.91902 -18653669.88705 -14535319.94205  20444912.91902  20444916.08705
  22281362.49802  -5015679.17405  -3908314.61305  22281362.49802  22281366.57505
  21909978.55002 -16913373.28705 -13179238.40305  21909978.55002  21909982.74705
 97  4 25  0 45 30.0000000  0  7 30 05 26 23 06 10 17
  21592461.42102  -7103713.04705  -5535360.17605  21592461.42102  21592464.58205
  23492033.24402  15019745.80905  11703691.90605  23492033.24402  23492037.38905
  23877939.92202  -6048090.52505  -4712789.57905  23877939.92202  23877948.85805
  23786936.11602  -7508593.98205  -5850832.16105  23786936.11602  23786942.51505
  20439937.16702 -18679817.50805 -14555694.70705  20439937.16702  20439940.35105
  22295982.40702  -4938852.38805  -3848449.59805  22295982.40702  22295986.06305
  21899862.07002 -16966535.55105 -13220663.52305  21899862.07002  21899866.51705
 97  4 25  0 46  0.0000000  0  7 30 05 26 23 06 10 17
  21607947.62902  -7022334.24105  -5471948.14505  21607947.62902  21607950.92705
  23512426.15302  15126913.33305  11787198.99605  23512426.15302  23512431.36205
  23863734.14002  -6122744.58105  -4770961.48405  23863734.14002  23863737.96105
  23767486.12102  -7610805.80205  -5930477.66705  23767486.12102  23767491.52405
  20435031.21802 -18705599.32105 -14575784.42805  20435031.21802  20435034.38105
  22310677.03202  -4861631.55005  -3788277.53205  22310677.03202  22310680.70605
  21889797.09202 -17019428.02205 -13261878.42005  21889797.09202  21889801.44405
 97  4 25  0 46 30.0000000  0  8 30 05 22 26 23 06 10 17
  21623505.50602  -6940576.28405  -5408240.67005  21623505.50602  21623508.81605
  23532838.95602  15234182.58505  11870785.35505  23532838.95602  23532843.42005
  24780242.04012        -0.29915        -0.23315  24780242.04012  24780242.04015
  23849561.66802  -6197220.86605  -4828994.90005  23849561.66802  23849565.03005
  23748068.11502  -7712849.28605  -6009992.00405  23748068.11502  23748073.35005
  20430190.30502 -18731038.18605 -14595606.91805  20430190.30502  20430193.45105
  22325445.17102  -4784023.54005  -3727803.77005  22325445.17102  22325449.18805
  21879780.81602 -17072062.83005 -13302892.53205  21879780.81602  21879785.09305
 97  4 25  0 47  0.0000000  0  8 30 05 22 26 23 06 10 17
  21639130.18502  -6858467.92005  -5344260.15005  21639130.18502  21639133.46805
  23553266.12302  15341527.21105  11954430.45305  23553266.12302  23553272.71205
  24764235.61002    -84114.71105    -65543.93105  24764235.61002  24764235.61005
  23835419.13202  -6271539.39005  -4886905.38105  23835419.13202  23835424.08605
  23728677.29802  -7814748.43405  -6089393.87305  23728677.29802  23728681.99405
  20425406.61402 -18756176.47405 -14615195.19405  20425406.61402  20425409.79105
  22340284.05902  -4706045.10005  -3667041.35605  22340284.05902  22340288.45705
  21869807.13502 -17124474.45505 -13343732.73605  21869807.13502  21869811.21005
 97  4 25  0 47 30.0000000  0  7 30 05 26 23 06 10 17
  21654820.40602  -6776015.18505  -5280011.29205  21654820.40602  21654823.81505
  23573706.73902  15448944.17305  12038131.89605  23573706.73902  23573711.65605
  23821309.46002  -6345685.54005  -4944681.53105  23821309.46002  23821313.96505
  23709314.29102  -7916501.69605  -6168682.06105  23709314.29102  23709319.74005
  20420678.37502 -18781023.41705 -14634556.44805  20420678.37502  20420681.48005
  22355192.03902  -4627703.22705  -3605995.76005  22355192.03902  22355195.83905
  21859873.89402 -17176674.15305 -13384407.80605  21859873.89402  21859878.37505
 97  4 25  0 48  0.0000000  0  7 30 05 26 23 06 10 17
  21670575.93202  -6693219.94105  -5215495.54405  21670575.93202  21670579.11905
  23594160.72902  15556429.46605  12121886.61005  23594160.72902  23594164.89505
  23807231.42102  -6419667.59305  -5002329.83205  23807231.42102  23807235.41505
  23689981.58702  -8018094.90105  -6247845.53905  23689981.58702  23689987.43805
  20416002.28802 -18805595.99805 -14653703.91305  20416002.28802  20416005.48005
  22370165.25302  -4549018.55905  -3544683.04605  22370165.25302  22370169.07305
  21849979.19802 -17228672.96705 -13424926.34205  21849979.19802  21849983.44305
 97  4 25  0 48 30.0000000  0  7 30 05 26 23 06 10 17
  21686400.61102  -6610061.12605  -5150696.49005  21686400.61102  21686403.74605
  23614632.21502  15664006.92505  12205713.13405  23614632.21502  23614637.49705
  23793183.29702  -6493491.24605  -5059854.68705  23793183.29702  23793188.38505
  23670683.51202  -8119507.34705  -6326868.15005  23670683.51202  23670689.12405
  20411378.58202 -18829893.65205 -14672637.14505  20411378.58202  20411381.77705
  22385206.69002  -4469975.08005  -3483090.74205  22385206.69002  22385210.96805
  21840123.99402 -17280461.16205 -13465280.76905  21840123.99402  21840128.07105
 97  4 25  0 49  0.0000000  0  7 30 05 26 23 06 10 17
  21702290.84502  -6526556.59405  -5085628.04705  21702290.84502  21702294.05605
  23635118.49202  15771660.42605  12289598.91205  23635118.49202  23635123.28505
  23779159.75602  -6567183.45205  -5117277.13005  23779159.75602  23779163.47905
  23651414.90702  -8220765.32005  -6405770.40405  23651414.90702  23651420.80405
  20406806.34802 -18853921.70505 -14691360.30105  20406806.34802  20406809.54105
  22400309.76602  -4390607.56305  -3421245.94105  22400309.76602  22400314.01505
  21830304.95502 -17332060.30505 -13505487.87405  21830304.95502  21830309.03405
 97  4 25  0 49 30.0000000  0  7 30 05 26 23 06 10 17
  21718246.64702  -6442708.54405  -5020291.93505  21718246.64702  21718250.22305
  23655617.59902  15879382.15405  12373537.84005  23655617.59902  23655621.77005
  23765159.49402  -6640753.19405  -5174604.16405  23765159.49402  23765163.91605
  23632174.61502  -8321872.90805  -6484555.46605  23632174.61502  23632181.28305
  20402290.75702 -18877650.98805 -14709850.65105  20402290.75702  20402293.87205
  22415472.76602  -4310925.17405  -3359155.78505  22415472.76602  22415476.72805
  21820522.09402 -17383469.73005 -13545547.14905  21820522.09402  21820526.47605
 97  4 25  0 50  0.0000000  0  7 30 05 26 23 06 10 17
  21734267.17602  -6358521.07505  -4954691.33805  21734267.17602  21734270.28005
  23676127.17002  15987160.46905  12457520.88205  23676127.17002  23676132.02505
  23751183.18602  -6714200.98105  -5231836.16805  23751183.18602  23751186.72205
  23612961.56802  -8422837.77605  -6563229.33305  23612961.56802  23612967.60005
  20397835.03802 -18901066.82405 -14728096.75505  20397835.03802  20397838.16105
  22430697.28202  -4230920.82905  -3296814.74905  22430697.28202  22430701.60105
  21810776.64002 -17434682.54805 -13585453.22405  21810776.64002  21810781.19405
 97  4 25  0 50 30.0000000  0  7 30 05 26 23 06 10 17
  21750357.92302  -6273963.30505  -4888802.19005  21750357.92302  21750361.01805
  23696651.25802  16095016.01405  12541564.09005  23696651.25802  23696656.57205
  23737241.38902  -6787466.72605  -5288926.28605  23737241.38902  23737244.91305
  23593779.56202  -8523639.33805  -6641775.93505  23593779.56202  23593785.71305
  20393449.67502 -18924110.77505 -14746053.07905  20393449.67502  20393452.85405
  22445991.33902  -4150549.25705  -3234187.57205  22445991.33902  22445995.22905
  21801076.07502 -17485658.72405 -13625174.90405  21801076.07502  21801080.39405
 97  4 25  0 51  0.0000000  0  7 30 05 26 23 06 10 17
  21766520.15702  -6189029.47405  -4822620.01305  21766520.15702  21766523.54305
  23717189.19502  16202944.36005  12625664.01905  23717189.19502  23717194.83205
  23723338.61902  -6860525.72505  -5345855.32105  23723338.61902  23723342.19805
  23574628.51102  -8624276.89805  -6720194.75105  23574628.51102  23574634.18405
  20389140.11702 -18946758.50505 -14763700.65905  20389140.11702  20389143.17105
  22461355.67302  -4069809.61205  -3171273.57305  22461355.67302  22461359.79305
  21791421.98102 -17536391.42405 -13664706.86205  21791421.98102  21791425.86705
 97  4 25  0 51 30.0000000  0  7 30 05 26 23 06 10 17
  21782752.40102  -6103728.68105  -4756151.88405  21782752.40102  21782755.81805
  23737740.20202  16310940.22805  12709816.57305  23737740.20202  23737744.59705
  23709475.70502  -6933375.86005  -5402621.64305  23709475.70502  23709478.57605
  23555508.43102  -8724752.48405  -6798487.35405  23555508.43102  23555514.28405
  20384901.68602 -18969030.94505 -14781055.80405  20384901.68602  20384904.86705
  22476789.67602  -3988704.28605  -3108074.63105  22476789.67602  22476793.22205
  21781812.03202 -17586892.10605 -13704058.02505  21781812.03202  21781815.89905
 97  4 25  0 52  0.0000000  0  7 30 05 26 23 06 10 17
  21799057.10302  -6018047.06005  -4689387.01305  21799057.10302  21799060.34105
  23758304.51502  16419008.48005  12794025.52105  23758304.51502  23758307.73605
  23695657.29502  -7005990.65805  -5459204.53405  23695657.29502  23695660.31705
  23536421.31502  -8825054.99705  -6876645.08605  23536421.31502  23536426.17305
  20380732.57002 -18990939.50805 -14798127.41105  20380732.57002  20380735.73205
  22492293.67902  -3907230.77105  -3044588.78905  22492293.67902  22492297.38005
  21772247.87002 -17637150.57005 -13743220.45005  21772247.87002  21772252.10905
 97  4 25  0 52 30.0000000  0  7 30 05 26 23 06 10 17
  21815436.80902  -5931972.00005  -4622315.56305  21815436.80902  21815440.10105
  23778885.66402  16527163.43005  12878302.03805  23778885.66402  23778891.67505
  23681884.60202  -7078365.97105  -5515600.83205  23681884.60202  23681888.51105
  23517370.01402  -8925169.65405  -6954656.44405  23517370.01402  23517375.29905
  20376632.00502 -19012488.79005 -14814919.05705  20376632.00502  20376635.15505
  22507867.10302  -3825391.28205  -2980817.77505  22507867.10302  22507871.11705
  21762730.22402 -17687166.74805 -13782194.08105  21762730.22402  21762734.44605
 97  4 25  0 53  0.0000000  0  7 30 05 26 23 06 10 17
  21831888.19802  -5845519.73705  -4554950.19205  21831888.19802  21831891.31105
  23799483.13002  16635403.13605  12962644.57905  23799483.13002  23799489.07305
  23668152.39502  -7150528.46405  -5571831.29805  23668152.39502  23668157.01605
  23498354.76002  -9025096.82505  -7032521.69905  23498354.76002  23498360.22205
  20372593.72102 -19033709.17605 -14831454.42105  20372593.72102  20372596.92305
  22523506.62902  -3743204.15105  -2916775.87105  22523506.62902  22523510.65205
  21753255.63502 -17736957.12905 -13820991.76405  21753255.63502  21753259.78605
 97  4 25  0 53 30.0000000  0  7 30 05 26 23 06 10 17
  21848406.60802  -5758714.64305  -4487309.88705  21848406.60802  21848409.92005
  23820094.20802  16743714.84605  13047043.23505  23820094.20802  23820098.92205
  23654457.67402  -7222494.46705  -5627908.65105  23654457.67402  23654462.05405
  23479372.46302  -9124850.30205  -7110251.61705  23479372.46302  23479378.30205
  20368614.96502 -19054618.99905 -14847747.78605  20368614.96502  20368618.07305
  22539208.93702  -3660689.14105  -2852478.47505  22539208.93702  22539212.55505
  21743824.08102 -17786520.00305 -13859612.16305  21743824.08102  21743828.31605
 97  4 25  0 54  0.0000000  0  7 30 05 26 23 06 10 17
  21864987.04302  -5671583.27205  -4419415.34105  21864987.04302  21864990.25505
  23840714.17802  16852072.14905  13131477.42605  23840714.17802  23840719.94405
  23640795.15502  -7294293.78105  -5683856.10705  23640795.15502  23640798.40105
  23460418.82102  -9224451.91605  -7187863.20305  23460418.82102  23460424.26605
  20364695.74902 -19075214.06205 -14863795.88605  20364695.74902  20364698.91805
  22554967.73302  -3577876.00505  -2787948.77705  22554967.73302  22554971.83405
  21734432.08802 -17835875.64805 -13898071.08605  21734432.08802  21734436.55705
 97  4 25  0 54 30.0000000  0  7 30 05 26 23 06 10 17
  21881630.65202  -5584121.49705  -4351263.33905  21881630.65202  21881633.92905
  23861347.94702  16960502.10905  13215968.19905  23861347.94702  23861355.02405
  23627167.43002  -7365907.68705  -5739659.11905  23627167.43002  23627171.64005
  23441500.88802  -9323863.98805  -7265327.09005  23441500.88802  23441506.63705
  20360845.18502 -19095448.93605 -14879563.31905  20360845.18502  20360848.35905
  22570788.63302  -3494736.86005  -2723165.03705  22570788.63302  22570792.60305
  21725084.51802 -17884996.10405 -13936346.74605  21725084.51802  21725088.66605
 97  4 25  0 55  0.0000000  0  7 30 05 26 23 06 10 17
  21898339.37602  -5496316.83305  -4282844.15005  21898339.37602  21898342.81805
  23881998.75102  17069020.93405  13300528.24505  23881998.75102  23882003.35305
  23613580.22602  -7437306.88005  -5795294.84005  23613580.22602  23613584.45405
  23422624.46702  -9423060.47805  -7342622.98505  23422624.46702  23422630.34905
  20357070.56302 -19115284.87705 -14895019.89505  20357070.56302  20357073.72405
  22586674.18902  -3411257.49905  -2658116.20805  22586674.18902  22586678.19105
  21715788.19002 -17933848.45705 -13974413.49305  21715788.19002  21715792.68905
 97  4 25  0 55 30.0000000  0  7 30 05 26 23 06 10 17
  21915113.31002  -5408168.55005  -4214157.20805  21915113.31002  21915116.77605
  23902663.67802  17177614.40605  13385146.41105  23902663.67802  23902668.38605
  23600036.01302  -7508484.20605  -5850757.65405  23600036.01302  23600040.09705
  23403788.77602  -9522042.99605  -7419752.14005  23403788.77602  23403794.45305
  20353372.23002 -19134718.85405 -14910163.25405  20353372.23002  20353375.38205
  22602622.88102  -3327446.21305  -2592808.73005  22602622.88102  22602627.34805
  21706543.90202 -17982428.00705 -14012267.67505  21706543.90202  21706548.22605
 97  4 25  0 56  0.0000000  0  7 30 05 26 23 06 10 17
  21931951.82502  -5319681.51305  -4145206.30405  21931951.82502  21931955.31605
  23923340.53102  17286270.85105  13469813.70305  23923340.53102  23923343.82905
  23586533.46002  -7579438.80605  -5906046.91205  23586533.46002  23586536.66505
  23384994.94102  -9620805.94605  -7496710.20305  23384994.94102  23385000.13105
  20349748.38302 -19153763.17605 -14925002.98605  20349748.38302  20349751.50805
  22618637.16902  -3243290.78605  -2527233.09105  22618637.16902  22618640.65605
  21697348.22702 -18030751.11405 -14049922.02705  21697348.22702  21697352.60905
 97  4 25  0 56 30.0000000  0  7 30 05 26 23 06 10 17
  21948854.84502  -5230856.47905  -4075992.02405  21948854.84502  21948858.04505
  23944027.27302  17394979.25205  13554521.46605  23944027.27302  23944032.55405
  23573077.35402  -7650150.30005  -5961146.74705  23573077.35402  23573081.92905
  23366243.13802  -9719347.83905  -7573496.03105  23366243.13802  23366247.84105
  20346192.64302 -19172447.90405 -14939562.51405  20346192.64302  20346195.77905
  22634717.50302  -3158788.29205  -2461387.01505  22634717.50302  22634721.70405
  21688203.01902 -18078809.97805 -14087370.47305  21688203.01902  21688207.33705
 97  4 25  0 57  0.0000000  0  7 30 05 26 23 06 10 17
  21965822.59102  -5141691.32805  -4006512.71605  21965822.59102  21965825.78105
  23964718.17002  17503713.09205  13639249.03405  23964718.17002  23964723.28505
  23559666.23102  -7720625.76205  -6016062.63205  23559666.23102  23559670.54805
  23347528.61002  -9817692.90305  -7650128.48105  23347528.61002  23347533.86005
  20342699.35702 -19190805.98605 -14953867.51405  20342699.35702  20342702.44305
  22650858.83602  -3073966.51205  -2395292.14505  22650858.83602  22650862.59905
  21679103.71902 -18126628.02805 -14124631.27505  21679103.71902  21679108.04405
 97  4 25  0 57 30.0000000  0  7 30 05 26 23 06 10 17
  21982851.10102  -5052205.71005  -3936783.68905  21982851.10102  21982854.25905
  23985411.77602  17612458.62905  13723985.75105  23985411.77602  23985416.60305
  23546298.05102  -7790875.11505  -6070802.34905  23546298.05102  23546301.52405
  23328849.81302  -9915850.13705  -7726614.59505  23328849.81302  23328855.29005
  20339265.04602 -19208853.44505 -14967930.46705  20339265.04602  20339268.18405
  22667061.08302  -2988822.53605  -2328946.20505  22667061.08302  22667065.13005
  21670045.68302 -18174227.35605 -14161721.64505  21670045.68302  21670050.00405
 97  4 25  0 58  0.0000000  0  7 30 05 26 23 06 10 17
  21999940.29602  -4962399.92505  -3866805.18505  21999940.29602  21999943.70205
  24006110.30102  17721229.29205  13808742.03705  24006110.30102  24006115.56405
  23532975.03502  -7860888.63605  -6125358.29105  23532975.03502  23532978.84805
  23310209.29102 -10013805.87105  -7802943.69405  23310209.29102  23310214.52205
  20335893.68502 -19226569.61605 -14981735.27505  20335893.68502  20335896.86705
  22683325.56202  -2903351.28605  -2262345.24605  22683325.56202  22683329.79305
  21661030.51702 -18221602.73805 -14198637.50405  21661030.51702  21661034.66805
 97  4 25  0 58 30.0000000  0  7 30 05 26 23 06 10 17
  22017090.20402  -4872276.09605  -3796578.86105  22017090.20402  22017093.60205
  24026811.76402  17830016.67705  13893511.31505  24026811.76402  24026817.42605
  23519696.84102  -7930666.90405  -6179730.91905  23519696.84102  23519700.60105
  23291607.00502 -10111559.46705  -7879115.27305  23291607.00502  23291612.90305
  20332588.32302 -19243939.33105 -14995270.11605  20332588.32302  20332591.50905
  22699648.23502  -2817574.60205  -2195506.28205  22699648.23502  22699652.47805
  21652057.26402 -18268757.81005 -14235381.70005  21652057.26402  21652060.91905
 97  4 25  0 59  0.0000000  0  7 30 05 26 23 06 10 17
  22034296.07302  -4781860.37505  -3726125.08205  22034296.07302  22034299.29405
  24047513.24602  17938802.43305  13978279.35105  24047513.24602  24047517.98505
  23506456.17102  -8000245.79505  -6233948.20905  23506456.17102  23506459.58505
  23273041.25302 -10209122.12105  -7955138.05105  23273041.25302  23273047.24505
  20329349.50502 -19260959.92805 -15008532.91405  20329349.50502  20329352.66305
  22716025.78602  -2731511.05005  -2128443.79405  22716025.78602  22716029.80505
  21643119.65902 -18315723.78305 -14271978.54205  21643119.65902  21643123.97905
 97  4 25  0 59 30.0000000  0  7 30 05 26 23 06 10 17
  22051557.78302  -4691149.11405  -3655441.01805  22051557.78302  22051561.33705
  24068218.75302  18047611.00305  14063065.15805  24068218.75302  24068223.79705
  23493257.73502  -8069604.80405  -6287994.17205  23493257.73502  23493262.64805
  23254517.70302 -10306464.53905  -8030989.22705  23254517.70302  23254523.03705
  20326182.43202 -19277602.58705 -15021501.22205  20326182.43202  20326185.60705
  22732462.49602  -2645136.35205  -2061138.85505  22732462.49602  22732466.36505
  21634221.34302 -18362485.82105 -14308416.47605  21634221.34302  21634225.43105
 97  4 25  1  0  0.0000000  0  7 30 05 26 23 06 10 17
  22068875.47502  -4600143.11805  -3584527.28505  22068875.47502  22068878.97205
  24088926.44602  18156430.48605  14147859.45805  24088926.44602  24088932.29105
  23480099.83002  -8138750.97705  -6341874.26205  23480099.83002  23480102.94305
  23236035.21602 -10403591.78105  -8106672.72705  23236035.21602  23236040.54405
  20323085.49802 -19293876.76705 -15034182.40405  20323085.49802  20323088.58305
  22748952.44702  -2558479.76205  -1993614.26105  22748952.44702  22748955.85005
  21625360.28502 -18409051.08305 -14344701.08405  21625360.28502  21625364.28805
 97  4 25  1  0 30.0000000  0  7 30 05 26 23 06 10 17
  22086253.53202  -4508822.22905  -3513368.18105  22086253.53202  22086257.01705
  24109638.61202  18265273.32005  14232671.93905  24109638.61202  24109643.67505
  23466988.13802  -8207652.87805  -6395564.03405  23466988.13802  23466991.23305
  23217597.92702 -10500479.96205  -8182169.96105  23217597.92702  23217602.81705
  20320061.40502 -19309768.33105 -15046565.44005  20320061.40502  20320064.59505
  22765500.08702  -2471520.91005  -1925854.14205  22765500.08702  22765503.66305
  21616539.77502 -18455403.03605 -14380819.48305  21616539.77502  21616543.67805
 97  4 25  1  1  0.0000000  0  7 30 05 26 23 06 10 17
  22103694.58602  -4417168.44705  -3441949.67905  22103694.58602  22103698.59705
  24130363.24902  18374181.35105  14317535.22505  24130363.24902  24130369.81205
  23453928.37702  -8276280.19905  -6449039.82005  23453928.37702  23453932.60205
  23199209.06602 -10597114.22005  -8257469.34105  23199209.06602  23199214.20005
  20317112.30002 -19325266.48805 -15058641.92505  20317112.30002  20317115.49005
  22782108.12402  -2384245.51805  -1857847.35505  22782108.12402  22782112.17705
  21607766.00202 -18501510.00805 -14416746.98305  21607766.00202  21607769.75505
 97  4 25  1  1 30.0000000  0  7 30 05 26 23 06 10 17
  22121198.74502  -4325183.72705  -3370273.31405  22121198.74502  22121202.14905
  24151100.24202  18483154.07205  14402448.93605  24151100.24202  24151107.16005
  23440923.47102  -8344623.57705  -6502294.37205  23440923.47102  23440927.74005
  23180864.64902 -10693514.39605  -8332586.32205  23180864.64902  23180868.84705
  20314235.04702 -19340386.88905 -15070424.05005  20314235.04702  20314238.15105
  22798772.96302  -2296672.27205  -1789608.47305  22798772.96302  22798777.13905
  21599038.52302 -18547371.57305 -14452483.26105  21599038.52302  21599042.52505
 97  4 25  1  2  0.0000000  0  7 30 05 26 23 06 10 17
  22138758.57102  -4232906.47205  -3298368.99005  22138758.57102  22138762.20705
  24171842.43302  18592153.02705  14487383.08105  24171842.43302  24171847.24405
  23427967.00502  -8412709.21005  -6555348.07705  23427967.00502  23427970.49705
  23162557.59802 -10789718.56605  -8407550.58005  23162557.59802  23162561.69505
  20311424.06202 -19355158.04405 -15081934.04105  20311424.06202  20311427.20905
  22815487.19002  -2208839.64405  -1721167.48405  22815487.19002  22815490.54405
  21590353.88702 -18593009.25005 -14488045.07805  21590353.88702  21590358.03705
 97  4 25  1  2 30.0000000  0  7 30 05 26 23 06 10 17
  22156370.57902  -4140356.10705  -3226251.86105  22156370.57902  22156373.77905
  24192587.55202  18701168.89005  14572330.39505  24192587.55202  24192594.53705
  23415060.16702  -8480535.17005  -6608199.42505  23415060.16702  23415063.52805
  23144284.97802 -10885741.43305  -8482373.54605  23144284.97802  23144289.51705
  20308679.81702 -19369579.73505 -15093171.72605  20308679.81702  20308682.99005
  22832250.90002  -2120744.44005  -1652521.88705  22832250.90002  22832255.00905
  21581710.08602 -18638432.35105 -14523439.69505  21581710.08602  21581714.38905
 97  4 25  1  3  0.0000000  0  7 30 05 26 23 06 10 17
  22174032.25102  -4047543.89005  -3153930.69005  22174032.25102  22174035.45105
  24213336.38802  18810204.03805  14657292.77305  24213336.38802  24213340.58605
  23402200.49502  -8548111.08605  -6660855.95905  23402200.49502  23402204.80805
  23126047.96602 -10981577.51405  -8557050.96405  23126047.96602  23126052.64105
  20306003.13002 -19383646.23105 -15104132.63305  20306003.13002  20306006.21005
  22849066.44302  -2032377.38505  -1583664.46205  22849066.44302  22849069.98405
  21573108.18702 -18683636.49305 -14558663.68805  21573108.18702  21573112.34205
 97  4 25  1  3 30.0000000  0  7 30 05 26 23 06 10 17
  22191743.09802  -3954472.09405  -3081407.24705  22191743.09802  22191746.42805
  24234082.66902  18919228.93905  14742247.12405  24234082.66902  24234091.10805
  23389386.44202  -8615448.06205  -6713326.29505  23389386.44202  23389390.15505
  23107848.50602 -11077215.74305  -8631574.20605  23107848.50602  23107853.78705
  20303397.14602 -19397339.69305 -15114802.86505  20303397.14602  20303400.30705
  22865936.43802  -1943725.11605  -1514584.79605  22865936.43802  22865940.43805
  21564546.08602 -18728631.21405 -14593724.49705  21564546.08602  21564550.11005
 97  4 25  1  4  0.0000000  0  7 30 05 26 23 06 10 17
  22209506.05202  -3861127.27905  -3008671.06705  22209506.05202  22209509.39905
  24254828.65902  19028251.85605  14827199.94405  24254828.65902  24254835.42605
  23376622.00702  -8682526.85905  -6765595.45305  23376622.00702  23376625.88805
  23089692.66002 -11172625.62805  -8705919.51805  23089692.66002  23089698.05005
  20300868.98802 -19410625.80405 -15125155.68105  20300868.98802  20300872.10805
  22882865.00002  -1854764.17105  -1445264.59605  22882865.00002  22882869.36505
  21556028.43002 -18773391.48605 -14628602.61505  21556028.43002  21556032.42905
 97  4 25  1  4 30.0000000  0  7 30 05 26 23 06 10 17
  22227320.95302  -3767508.88405  -2935721.70505  22227320.95302  22227324.24505
  24275573.59902  19137266.64205  14912146.40305  24275573.59902  24275578.99005
  23363905.60202  -8749353.15105  -6817667.86105  23363905.60202  23363909.22105
  23071580.90002 -11267804.44705  -8780084.79005  23071580.90002  23071585.83005
  20298415.69402 -19423517.89905 -15135201.47005  20298415.69402  20298418.78505
  22899851.29602  -1765501.02705  -1375708.91505  22899851.29602  22899855.66805
  21547554.15202 -18817924.00005 -14663303.26005  21547554.15202  21547558.09705
 97  4 25  1  5  0.0000000  0  7 30 05 26 23 06 10 17
  22245190.44902  -3673602.83305  -2862548.19705  22245190.44902  22245193.83905
  24296317.72302  19246278.63505  14997090.72605  24296317.72302  24296325.33205
  23351237.51002  -8815924.10605  -6869541.30505  23351237.51002  23351240.94905
  23053515.92102 -11362736.52805  -8854057.80505  23053515.92102  23053520.66305
  20296036.01502 -19436022.54105 -15144945.35205  20296036.01502  20296039.15905
  22916892.23502  -1675950.35105  -1305929.19405  22916892.23502  22916896.86905
  21539125.13502 -18862218.72205 -14697818.61005  21539125.13502  21539129.16105
 97  4 25  1  5 30.0000000  0  7 30 05 26 23 06 10 17
  22263119.03302  -3579388.43705  -2789134.42205  22263119.03302  22263122.41205
  24317063.06502  19355296.40905  15082039.51705  24317063.06502  24317072.00105
  23338623.74502  -8882210.77705  -6921193.21405  23338623.74502  23338628.25305
  23035498.67402 -11457417.68605  -8927835.29105  23035498.67402  23035503.85505
  20293731.65802 -19448132.73605 -15154381.87405  20293731.65802  20293734.80405
  22933986.47902  -1586120.46805  -1235931.90205  22933986.47902  22933990.08405
  21530744.47602 -18906258.42905 -14732135.24705  21530744.47602  21530748.70005
 97  4 25  1  6  0.0000000  0  7 30 05 26 23 06 10 17
  22281107.51402  -3484858.18305  -2715474.51805  22281107.51402  22281111.44705
  24337813.04102  19464337.89405  15167006.78205  24337813.04102  24337820.95705
  23326071.22502  -8948176.54805  -6972595.08205  23326071.22502  23326075.52005
  23017533.59902 -11551822.26905  -9001397.26805  23017533.59902  23017538.57705
  20291500.82402 -19459855.36005 -15163516.39005  20291500.82402  20291504.01505
  22951133.39502  -1496012.75405  -1165718.11705  22951133.39502  22951137.92105
  21522416.08902 -18950025.18705 -14766239.20105  21522416.08902  21522420.24505
 97  4 25  1  6 30.0000000  0  7 30 05 26 23 06 10 17
  22299148.90702  -3390050.44905  -2641598.39505  22299148.90702  22299153.04105
  24358561.15202  19573369.49005  15251966.35505  24358561.15202  24358568.22105
  23313571.95302  -9013858.90805  -7023776.11805  23313571.95302  23313576.35805
  22999617.02802 -11645973.22105  -9074761.61605  22999617.02802  22999622.90505
  20289335.75002 -19471232.54405 -15172381.73205  20289335.75002  20289338.91105
  22968325.54502  -1405667.58505  -1095319.30605  22968325.54502  22968329.75305
  21514132.00202 -18993558.73005 -14800161.43105  21514132.00202  21514135.76005
 97  4 25  1  7  0.0000000  0  7 30 05 26 23 06 10 17
  22317238.64702  -3294987.98705  -2567523.78505  22317238.64702  22317242.40205
  24379304.65802  19682376.13705  15336906.49505  24379304.65802  24379312.84905
  23301124.44602  -9079267.96905  -7074744.16405  23301124.44602  23301128.63005
  22981746.34802 -11739883.20305  -9147938.18005  22981746.34802  22981751.89405
  20287235.77002 -19482269.28905 -15180981.79305  20287235.77002  20287238.85005
  22985560.63802  -1315096.84205  -1024744.71905  22985560.63802  22985564.61505
  21505886.76702 -19036886.67105 -14833923.45205  21505886.76702  21505890.98905
 97  4 25  1  7 30.0000000  0  7 30 05 26 23 06 10 17
  22335373.68102  -3199687.45205  -2493263.66505  22335373.68102  22335377.23805
  24400040.19502  19791341.34005  15421814.31005  24400040.19502  24400048.38605
  23288728.70802  -9144408.64705  -7125503.09905  23288728.70802  23288732.81805
  22963919.90202 -11833563.01805  -9220935.39405  22963919.90202  22963925.84005
  20285202.36902 -19492953.35205 -15189307.03605  20285202.36902  20285205.54905
  23002837.98402  -1224302.80305   -953996.13705  23002837.98402  23002841.50605
  21497676.80502 -19080029.91305 -14867541.55105  21497676.80502  21497681.19705
 97  4 25  1  8  0.0000000  0  7 30 05 26 23 06 10 17
  22353554.93002  -3104144.93905  -2418814.98705  22353554.93002  22353558.42605
  24420771.40302  19900283.84005  15506704.48205  24420771.40302  24420779.32805
  23276385.61502  -9209273.35805  -7176046.99705  23276385.61502  23276389.48305
  22946140.52102 -11926995.42505  -9293739.82605  22946140.52102  22946145.99705
  20283242.12802 -19503255.05905 -15197334.34305  20283242.12802  20283245.27705
  23020161.70602  -1133266.19205   -883058.54305  23020161.70602  23020166.29905
  21489503.27302 -19122982.83705 -14901011.34605  21489503.27302  21489507.39005
 97  4 25  1  8 30.0000000  0  7 30 05 26 23 06 10 17
  22371785.34702  -3008343.84205  -2344164.81205  22371785.34702  22371789.00605
  24441502.23402  20009226.22205  15591594.52405  24441502.23402  24441509.85205
  23264096.24302  -9273852.59805  -7226368.46405  23264096.24302  23264101.32805
  22928408.01702 -12020180.80905  -9366351.77905  22928408.01702  22928412.83505
  20281360.99302 -19513140.72505 -15205037.46005  20281360.99302  20281364.07605
  23037537.44502  -1041957.27305   -811908.75105  23037537.44502  23037542.67305
  21481367.87902 -19165734.88605 -14934324.62005  21481367.87902  21481372.02405
 97  4 25  1  9  0.0000000  4  1
 -2609191.0000 -4570718.0000  3592953.0000                  APPROX POSITION XYZ
 97  4 25  1  9  0.0000000  0  7 30 05 26 23 06 10 17
  22390063.63302  -2912292.14105  -2269319.36805  22390063.63302  22390067.13205
  24462230.74902  20118154.61905  15676473.64005  24462230.74902  24462238.27905
  23251863.45102  -9338136.15605  -7276459.50705  23251863.45102  23251867.55705
  22910717.84902 -12113142.46905  -9438789.39805  22910717.84902  22910722.02705
  20279560.09602 -19522604.61405 -15212411.91905  20279560.09602  20279563.16105
  23054963.06602   -950382.58505   -740551.87105  23054963.06602  23054967.49105
  21473270.09902 -19208289.11705 -14967483.74805  21473270.09902  21473274.21805
 97  4 25  1  9 30.0000000  0  7 30 05 26 23 06 10 17
  22408391.75605  -2815976.65205  -2194268.38205  22408391.75605  22408395.17505
  24482958.01802  20227075.18005  15761346.68005  24482958.01805  24482967.94705
  23239690.70002  -9402105.35305  -7326305.61005  23239690.70005  23239694.67705
  22893073.68002 -12205862.34605  -9511038.61405  22893073.68005  22893078.83205
  20277840.91302 -19531639.49405 -15219452.08705  20277840.91305  20277843.99405
  23072441.36002   -858534.44405   -668981.90905  23072441.36005  23072445.63805
  21465216.53402 -19250611.64205 -15000462.32705  21465216.53405  21465220.55905
 97  4 25  1 10  0.0000000  0  7 30 05 26 23 06 10 17
  22426764.08002  -2719429.81705  -2119037.12105  22426764.08005  22426767.24405
  24503679.39902  20335963.52005  15846194.58905  24503679.39905  24503679.39905
  23227575.35602  -9465773.22305  -7375916.88505  23227575.35605  23227578.87805
  22875473.09102 -12298353.83605  -9583109.87305  22875473.09105  22875477.29805
  20276196.21902 -19540282.39705 -15226186.81605  20276196.21905  20276199.31805
  23089969.00102   -766426.74505   -597209.69305  23089969.00105  23089973.11405
  21457206.31902 -19292704.07705 -15033261.61505  21457206.31905  21457210.62205
 97  4 25  1 10 30.0000000  0  7 30 05 26 23 06 10 17
  22445182.46802  -2622642.15105  -2043618.19305  22445182.46805  22445185.58605
  24524393.33202  20444814.69805  15931013.55705  24524393.33205  24524398.64605
  23215518.60602  -9529132.02805  -7425287.34005  23215518.60605  23215521.77705
  22857917.33802 -12390609.66405  -9654997.50205  22857917.33805  22857922.32305
  20274625.35902 -19548537.23905 -15232619.15905  20274625.35905  20274628.44705
  23107544.76002   -674062.35505   -525237.46005  23107544.76005  23107549.88805
  21449242.73702 -19334553.36905 -15065871.43805  21449242.73705  21449246.41805
 97  4 25  1 11  0.0000000  0  7 30 05 26 23 06 10 17
  22463648.47802  -2525601.93405  -1968002.47205  22463648.47805  22463652.30305
  24545102.42202  20553640.27405  16015812.56005  24545102.42205  24545109.99305
  23203524.15702  -9592162.02705  -7474401.58805  23203524.15705  23203528.25305
  22840410.89702 -12482608.25105  -9726684.67305  22840410.89705  22840416.07005
  20273129.22802 -19556399.38705 -15238745.51105  20273129.22805  20273132.36105
  23125167.39002   -581456.66405   -453077.19405  23125167.39005  23125172.62605
  21441329.41702 -19376138.29305 -15098275.26205  21441329.41705  21441333.53905
 97  4 25  1 11 30.0000000  0  7 17 30 05 26 23 06 10
  21433469.74502 -19417439.85405 -15130458.28305  21433469.74505  21433474.10305
  22482164.31902  -2428299.18105  -1892182.17805  22482164.31905  22482168.10005
  24565809.67702  20662456.15205  16100604.02305  24565809.67705  24565809.67705
  23191593.81602  -9654856.54405  -7523254.43005  23191593.81605  23191598.45105
  22822958.80202 -12574319.97705  -9798148.32105  22822958.80205  22822963.35305
  20271707.74102 -19563869.94305 -15244566.73005  20271707.74105  20271710.82705
  23142836.83102   -488605.53505   -380725.68105  23142836.83105  23142840.95705
 97  4 25  1 12  0.0000000  0  7 17 30 05 26 23 06 10
  21425656.63102 -19458499.58305 -15162452.86505  21425656.63105  21425660.55805
  22500725.95102  -2330755.90905  -1816174.47805  22500725.95105  22500729.40005
  24586509.10702  20771231.89805  16185364.23505  24586509.10705  24586509.10705
  23179722.83902  -9717238.88805  -7571864.03005  23179722.83905  23179726.20505
  22805553.53802 -12665783.61005  -9869418.63905  22805553.53805  22805558.58505
  20270358.02902 -19570961.68805 -15250092.76905  20270358.02905  20270361.10205
  23160547.27502   -395536.84705   -308204.64905  23160547.27505  23160551.90705
 97  4 25  1 12 30.0000000  0  7 17 30 05 26 23 06 10
  21417883.70702 -19499345.53505 -15194280.86605  21417883.70705  21417887.83205
  22519333.66602  -2232972.13205  -1739979.36505  22519333.66605  22519337.12705
  24607199.70402  20879964.55005  16270090.82305  24607199.70405  24607199.70405
  23167910.03402  -9779315.35105  -7620235.26005  23167910.03405  23167914.06305
  22788194.89102 -12757003.15605  -9940498.76705  22788194.89105  22788200.52905
  20269081.65902 -19577668.78505 -15255319.08205  20269081.65905  20269084.79505
  23178295.99702   -302265.70305   -235525.84305  23178295.99705  23178300.58805
 97  4 25  1 13  0.0000000  0  7 17 30 05 26 23 06 10
  21410150.68302 -19539983.16905 -15225946.54105  21410150.68305  21410154.88705
  22537986.39402  -2134954.37005  -1663601.92305  22537986.39405  22537989.92505
  24627883.49902  20988657.96605  16354786.87505  24627883.49905  24627883.49905
  23156158.23402  -9841070.93105  -7668356.44805  23156158.23405  23156161.87405
  22770886.13602 -12847960.94305 -10011374.92305  22770886.13605  22770890.99905
  20267879.67702 -19583985.88905 -15260241.50205  20267879.67705  20267882.77905
  23196087.86902   -208770.49005   -162672.44705  23196087.86905  23196092.38205
 97  4 25  1 13 30.0000000  0  7 17 30 05 26 23 06 10
  21402453.29102 -19580433.04805 -15257465.91005  21402453.29105  21402457.28305
  22556678.79302  -2036725.10805  -1587059.67605  22556678.79305  22556682.68705
  24648557.71702  21097301.37505  16439443.91005  24648557.71705  24648557.71705
  23144466.02202  -9902513.70005  -7716233.88405  23144466.02205  23144470.20505
  22753626.52202 -12938659.93205 -10082049.43705  22753626.52205  22753631.68405
  20266753.95302 -19589900.78805 -15264850.52005  20266753.95305  20266757.09105
  23213926.57602   -115027.54105    -89626.01405  23213926.57605  23213930.82705
 97  4 25  1 14  0.0000000  0  7 17 30 05 26 23 06 10
  21394787.00602 -19620720.54705 -15288858.75705  21394787.00605  21394790.93605
  22575407.72702  -1938302.69305  -1510366.91605  22575407.72705  22575411.78905
  24669221.40702  21205888.96005  16524057.44805  24669221.40705  24669228.74105
  23132832.27802  -9963650.62705  -7763873.01305  23132832.27805  23132835.27305
  22736414.92102 -13029108.23405 -10152528.59505  22736414.92105  22736420.33605
  20265706.38202 -19595406.19105 -15269140.45005  20265706.38205  20265709.46805
  23231812.39402    -21036.06705    -16385.91705  23231812.39405  23231816.01805
 97  4 25  1 14 30.0000000  0  7 17 30 05 26 23 06 10
  21387158.85102 -19660805.54305 -15320093.80705  21387158.85105  21387162.88605
  22594176.10602  -1839673.36805  -1433512.93105  22594176.10605  22594180.35405
  24689881.82702  21314458.29905  16608656.78205  24689881.82705  24689888.99505
  23121261.17902 -10024455.76405  -7811253.61105  23121261.17905  23121264.41305
  22719259.74802 -13119259.55305 -10222776.33805  22719259.74805  22719265.27505
  20264742.95302 -19600469.77905 -15273086.11005  20264742.95305  20264746.06205
  23249750.26302     73227.96405     57066.57005  23249750.26305  23249754.73205
 97  4 25  1 15  0.0000000  0  7 17 30 05 26 23 06 10
  21379569.81902 -19700686.65205 -15351169.98205  21379569.81905  21379573.81905
  22612982.22602  -1740845.57605  -1356504.30205  22612982.22605  22612986.22505
  24710532.63502  21422979.34905  16693218.47905  24710532.63505  24710539.12205
  23109752.03502 -10084936.30105  -7858381.27105  23109752.03505  23109756.76905
  22702157.71802 -13209131.77105 -10292806.60205  22702157.71805  22702162.57205
  20263861.14302 -19605103.33205 -15276696.67105  20263861.14305  20263864.30205
  23267735.40902    167741.68205    130713.60205  23267735.40905  23267740.28105
 97  4 25  1 15 30.0000000  0  7 17 30 05 26 23 06 10
  21372018.40402 -19740369.39805 -15382091.59005  21372018.40405  21372022.30605
  22631825.39502  -1641824.60605  -1279345.15105  22631825.39505  22631830.04905
  24731170.57102  21531431.61105  16777726.59205  24731170.57105  24731177.25505
  23098302.77002 -10145102.74205  -7905264.17005  23098302.77005  23098307.14705
  22685104.98302 -13298744.38105 -10362634.56905  22685104.98305  22685109.83305
  20263058.43602 -19609321.71005 -15279983.72305  20263058.43605  20263061.47505
  23285761.16002    262468.78705    204526.90605  23285761.16005  23285765.58505
 97  4 25  1 16  0.0000000  0  7 17 30 05 26 23 06 10
  21364504.17302 -19779856.78905 -15412860.97005  21364504.17305  21364508.17905
  22650705.80502  -1542608.77605  -1202034.15705  22650705.80505  22650709.30605
  24751790.70302  21639789.20505  16862160.90205  24751790.70305  24751790.70305
  23086911.80902 -10204963.35405  -7951908.77205  23086911.80905  23086915.63005
  22668099.07002 -13388111.38805 -10432271.15305  22668099.07005  22668103.97505
  20262327.37502 -19613164.28105 -15282977.93605  20262327.37505  20262330.39505
  23303818.83502    357361.22005    278469.04205  23303818.83505  23303823.98105
 97  4 25  1 16 30.0000000  0  7 17 30 05 26 23 06 10
  21357034.98702 -19819108.26605 -15443446.52405  21357034.98705  21357038.90505
  22669632.60302  -1443149.41605  -1124533.39405  22669632.60305  22669635.91705
  24772397.32602  21748074.80505  16946539.12205  24772397.32605  24772397.32605
  23075589.13502 -10264464.00605  -7998272.89105  23075589.13505  23075592.26105
  22651146.63002 -13477196.45105 -10501688.05005  22651146.63005  22651151.42105
  20261671.85902 -19616607.93805 -15285661.30605  20261671.85905  20261675.01405
  23321913.04802    452445.02505    352560.30305  23321913.04805  23321916.38205
 97  4 25  1 17  0.0000000  0  7 17 30 05 26 23 06 10
  21349613.96902 -19858106.86205 -15473835.03105  21349613.96905  21349617.75805
  22688610.18502  -1343420.43305  -1046822.53005  22688610.18505  22688613.98305
  24792992.83602  21856303.79905  17030873.24305  24792992.83605  24792998.70705
  23064341.15702 -10323572.45805  -8044331.38705  23064341.15705  23064344.23605
  22634250.66602 -13565985.17305 -10570874.03105  22634250.66605  22634255.09305
  20261093.56702 -19619646.54605 -15288029.05805  20261093.56705  20261096.70505
  23340046.19202    547736.21405    426813.14605  23340046.19205  23340050.25505
 97  4 25  1 17 30.0000000  0  7 17 30 05 26 23 06 10
  21342234.56902 -19896885.30305 -15504051.98505  21342234.56905  21342238.38405
  22707629.65202  -1243471.24905   -968940.09005  22707629.65205  22707633.36305
  24813576.92602  21964473.59005  17115161.21005  24813576.92605  24813576.92605
  23053161.41302 -10382321.13905  -8090109.55705  23053161.41305  23053164.63105
  22617407.29302 -13654498.11705 -10639845.12305  22617407.29305  22617411.62905
  20260586.48102 -19622311.84805 -15290105.92305  20260586.48105  20260589.47305
  23358213.72102    643208.56905    501207.16705  23358213.72105  23358216.92405
 97  4 25  1 18  0.0000000  0  7 17 30 05 26 23 06 10
  21334897.98102 -19935439.02705 -15534093.83705  21334897.98105  21334901.76905
  22726692.81502  -1143294.28505   -890880.15405  22726692.81505  22726697.03105
  24834150.90102  22072591.08005  17199421.62105  24834150.90105  24834150.90105
  23042051.99502 -10440702.63605  -8135601.59905  23042051.99505  23042055.92805
  22600617.74402 -13742726.84205 -10708594.74105  22600617.74405  22600622.17505
  20260154.95902 -19624579.62305 -15291873.02805  20260154.95905  20260158.02705
  23376418.29202    738872.45005    575750.42805  23376418.29205  23376422.67605
 97  4 25  1 18 30.0000000  0  7 17 30 05 26 23 06 10
  21327607.52202 -19973749.22505 -15563945.92805  21327607.52205  21327611.58505
  22745799.10102  -1042890.43905   -812643.42405  22745799.10105  22745802.77105
  24854718.30602  22180673.72605  17283641.86405  24854718.30605  24854718.30605
  23031016.90602 -10498692.52605  -8180788.51305  23031016.90605  23031020.07805
  22583886.07602 -13830653.25405 -10777108.78805  22583886.07605  22583890.27105
  20259808.63802 -19626399.91005 -15293291.43905  20259808.63805  20259811.69505
  23394665.62902    834761.53305    650469.16605  23394665.62905  23394670.05705
 97  4 25  1 19  0.0000000  0  7 17 30 05 26 23 06 10
  21320355.95602 -20011857.22305 -15593640.45805  21320355.95605  21320360.01305
  22764936.91502   -942321.81705   -734278.29105  22764936.91505  22764939.94105
  24875273.04002  22288691.09705  17367811.24405  24875273.04005  24875273.04005
  23020045.32802 -10556348.32505  -8225715.07405  23020045.32805  23020049.26805
  22567204.02202 -13918319.08605 -10845419.78905  22567204.02205  22567208.45105
  20259541.02002 -19627806.27505 -15294387.31105  20259541.02005  20259544.12005
  23412949.04302    930843.31405    725338.08005  23412949.04305  23412953.57005
 97  4 25  1 19 30.0000000  0  7 17 30 05 26 23 06 10
  21313143.75702 -20049758.23305 -15623173.70305  21313143.75705  21313147.60405
  22784107.06102   -841581.48605   -655779.37105  22784107.06105  22784111.07205
  24895814.48302  22396638.51505  17451926.11605  24895814.48305  24895814.48305
  23009140.27102 -10613654.81005  -8270369.44605  23009140.27105  23009144.13005
  22550574.48202 -14005706.98105 -10913514.22005  22550574.48205  22550578.75005
  20259357.93102 -19628768.64905 -15295137.21305  20259357.93105  20259360.99105
  23431272.79402   1027137.44305    800372.43505  23431272.79405  23431278.20305
 97  4 25  1 20  0.0000000  0  7 30 05 26 23 06 10 17
  22803311.37002   -740662.26805   -577141.06205  22803311.37005  22803315.08405
  24916339.43202  22504497.17205  17535971.82205  24916339.43205  24916339.43205
  22998305.79102 -10670589.09905  -8314733.80105  22998305.79105  22998308.81705
  22533997.98402 -14092814.99105 -10981390.55405  22533997.98405  22534003.05505
  20259260.87202 -19629278.48705 -15295534.49405  20259260.87205  20259263.97305
  23449637.37402   1123643.57905    875571.98905  23449637.37405  23449641.98405
  21305972.10402 -20087443.96305 -15652539.19705  21305972.10405  21305976.25505
 97  4 25  1 20 30.0000000  0  7 17 30 05 26 23 06 10
  21298842.89802 -20124908.10105 -15681732.02605  21298842.89805  21298846.86405
  22822547.72002   -639575.42005   -498372.12605  22822547.72005  22822551.69705
  24936851.54602  22612290.50405  17619966.62605  24936851.54605  24936851.54605
  22987543.86802 -10727143.56505  -8358802.20205  22987543.86805  22987548.02805
  22517477.25002 -14179632.33305 -11049040.39905  22517477.25005  22517481.65005
  20259249.39402 -19629338.63705 -15295581.37005  20259249.39405  20259252.47905
  23468045.37602   1220376.25105    950948.08005  23468045.37605  23468048.62205
 97  4 25  1 21  0.0000000  0  7 17 30 05 26 23 06 10
  21291752.08102 -20162170.47705 -15710767.63405  21291752.08105  21291755.99205
  22841815.05902   -538324.05505   -419474.99705  22841815.05905  22841819.06205
  24957349.84202  22720007.90605  17703887.93305  24957349.84205  24957349.84205
  22976848.98102 -10783346.61005  -8402596.75305  22976848.98105  22976852.34905
  22501010.58302 -14266166.07405 -11116469.25705  22501010.58305  22501015.13705
  20259317.78602 -19628979.55405 -15295301.56905  20259317.78605  20259320.84505
  23486491.22902   1317309.40605   1026480.39005  23486491.22905  23486495.29805
 97  4 25  1 21 30.0000000  0  7 17 30 05 26 23 06 10
  21284703.48302 -20199211.90505 -15739631.07505  21284703.48305  21284707.41105
  22861118.56302   -436883.89805   -340430.75105  22861118.56305  22861121.95205
  24977832.66802  22827646.27605  17787776.31905  24977832.66805  24977832.66805
  22966225.85802 -10839168.93305  -8446094.63505  22966225.85805  22966229.26105
  22484601.31502 -14352397.77305 -11183662.75705  22484601.31505  22484605.61005
  20259468.87002 -19628185.13505 -15294682.54205  20259468.87005  20259471.90805
  23504973.45202   1414436.82005   1102164.07105  23504973.45205  23504978.66305
 97  4 25  1 22  0.0000000  0  7 17 30 05 26 23 06 10
  21277698.77702 -20236022.23505 -15768314.44005  21277698.77705  21277702.67005
  22880457.64002   -335256.89705   -261240.91405  22880457.64005  22880461.07805
  24998304.45102  22935225.69305  17871604.43605  24998304.45105  24998304.45105
  22955675.63002 -10894613.58305  -8489298.22405  22955675.63005  22955678.86605
  22468249.85802 -14438324.20305 -11250618.38005  22468249.85805  22468254.24005
  20259701.34402 -19626963.02805 -15293730.25505  20259701.34405  20259704.40005
  23523492.45502   1511754.90705   1177996.34005  23523492.45505  23523497.60305
 97  4 25  1 22 30.0000000  0  7 17 30 05 26 23 06 10
  21270736.88702 -20272607.52005 -15796822.44505  21270736.88705  21270740.53205
  22899834.41502   -233432.45805   -181897.23905  22899834.41505  22899837.96805
  25018764.95402  23042745.87605  17955386.39705  25018764.95405  25018764.95405
  22945194.70902 -10949690.45005  -8532215.24205  22945194.70905  22945198.41105
  22451958.75002 -14523935.44305 -11317328.40905  22451958.75005  22451963.33105
  20260018.33802 -19625297.64705 -15292432.56205  20260018.33805  20260021.50605
  23542048.91502   1609267.57905   1253980.21705  23542048.91505  23542053.53705
 97  4 25  1 23  0.0000000  0  7 17 30 05 26 23 06 10
  21263816.46402 -20308972.83405 -15825159.04305  21263816.46405  21263820.38105
  22919248.19702   -131412.35805   -102401.09205  22919248.19705  22919251.94705
  25039209.31102  23150177.17605  18039083.96105  25039209.31105  25039212.04205
  22934785.19202 -11004392.52505  -8574840.20605  22934785.19205  22934788.83005
  22435727.58202 -14609230.35605 -11383791.94705  22435727.58205  22435732.01405
  20260418.91702 -19623192.60705 -15290792.27805  20260418.91705  20260421.99005
  23560636.75902   1706947.35305   1330094.31105  23560636.75905  23560640.78605
 97  4 25  1 23 30.0000000  0  7 17 30 05 26 23 06 10
  21256938.69402 -20345115.77005 -15853322.36205  21256938.69405  21256942.75705
  22938695.33002    -29216.47605    -22767.96705  22938695.33005  22938699.37105
  25059635.55902  23257514.00005  18122722.79805  25059635.55905  25059635.55905
  22924451.08202 -11058698.93405  -8617156.86205  22924451.08205  22924454.18305
  22419555.79102 -14694213.00605 -11450012.16805  22419555.79105  22419560.51105
  20260903.09002 -19620648.38305 -15288809.77305  20260903.09005  20260906.10605
  23579255.19702   1804789.05005   1406334.56105  23579255.19705  23579259.26705
 97  4 25  1 24  0.0000000  0  7 17 30 05 26 23 06 10
  21250103.38402 -20381035.66105 -15881311.87805  21250103.38405  21250107.23505
  22958177.67102     73162.21405     57007.59805  22958177.67105  22958181.66505
  25080047.17402  23364775.59205  18206303.04905  25080047.17405  25080047.17405
  22914191.96902 -11112610.86405  -8659166.12305  22914191.96905  22914194.91105
  22403447.66902 -14778862.18705 -11515972.54605  22403447.66905  22403452.20105
  20261474.09402 -19617647.78605 -15286471.65305  20261474.09405  20261477.20105
  23597907.60902   1902808.19605   1482713.10105  23597907.60905  23597912.14705
 97  4 25  1 24 30.0000000  0  6 17 30 26 23 06 10
  21243307.69002 -20416747.37605 -15909139.18105  21243307.69005  21243311.60205
  22977693.55402    175718.56305    136921.58905  22977693.55405  22977697.60105
  22904006.64502 -11166134.95705  -8700873.19805  22904006.64505  22904009.75205
  22387403.60302 -14863174.41005 -11581670.35605  22387403.60305  22387407.84505
  20262129.67702 -19614203.15105 -15283787.52805  20262129.67705  20262132.80505
  23616591.89202   2000989.32705   1559217.86005  23616591.89205  23616596.00305
 97  4 25  1 25  0.0000000  0  6 17 30 26 23 06 10
  21236555.67202 -20452230.41405 -15936788.29205  21236555.67205  21236559.38005
  22997241.18402    278442.82905    216966.43405  22997241.18405  22997244.74305
  22893897.89002 -11219255.66405  -8742265.91705  22893897.89005  22893901.39205
  22371424.61602 -14947144.23505 -11647101.36105  22371424.61605  22371429.46705
  20262866.19502 -19610332.42505 -15280771.38505  20262866.19505  20262869.34705
  23635309.14302   2099346.26605   1635859.60805  23635309.14305  23635312.15005
 97  4 25  1 25 30.0000000  0  7 17 30 21 26 23 06 10
  21229845.97602 -20487489.27305 -15964262.71705  21229845.97605  21229849.75905
  23016820.08802    381331.05705    297139.02505  23016820.08805  23016823.44505
  25537370.38512        -0.62015         0.01715  25537370.38515  25537380.06515
  22883863.63102 -11271986.22305  -8783354.64005  22883863.63105  22883867.78805
  22355508.05302 -15030785.11105 -11712276.03605  22355508.05305  22355512.80405
  20263683.71902 -19606035.50005 -15277423.14005  20263683.71905  20263686.85705
  23654060.19102   2197884.99005   1712643.00605  23654060.19105  23654063.72205
 97  4 25  1 26  0.0000000  0  7 17 30 21 26 23 06 10
  21223172.84002 -20522557.40105 -15991588.52005  21223172.84005  21223176.78805
  23036425.48602    484358.00405    377419.71505  23036425.48605  23036429.66505
  25518168.23502   -100909.98405    -78630.26605  25518168.23505  25518168.23505
  22873897.29302 -11324358.88205  -8824164.48005  22873897.29305  22873901.56305
  22339645.65802 -15114142.56505 -11777229.87305  22339645.65805  22339650.18205
  20264575.88202 -19601348.15405 -15273770.67205  20264575.88205  20264579.01105
  23672841.67202   2296585.43805   1789552.42705  23672841.67205  23672845.82205
 97  4 25  1 26 30.0000000  0  7 17 30 21 26 23 06 10
  21216543.96202 -20557392.35905 -16018732.63305  21216543.96205  21216547.82005
  23056056.95602    587521.17105    457806.56805  23056056.95605  23056060.63205
  25498981.59602   -201735.64805   -157195.31805  25498981.59605  25498990.78005
  22864007.39902 -11376331.72105  -8864662.78205  22864007.39905  22864010.93805
  22323837.32002 -15197216.22805 -11841962.57405  22323837.32005  22323841.77005
  20265544.92802 -19596254.99905 -15269801.98605  20265544.92805  20265548.04805
  23691659.91402   2395475.71705   1866609.78105  23691659.91405  23691663.46005
 97  4 25  1 27  0.0000000  0  7 17 30 21 26 23 06 10
  21209957.76502 -20592003.55105 -16045702.38105  21209957.76505  21209961.53705
  23075708.61605    690791.62005    538277.01505  23075708.61605  23075712.73805
  25479802.68805   -302521.12605   -235729.09005  25479802.68805  25479807.66105
  22854192.81705 -11427906.66705  -8904851.02605  22854192.81705  22854196.54905
  22308078.27105 -15280030.30105 -11906492.99705  22308078.27105  22308082.71405
  20266592.80705 -19590748.42605 -15265511.15705  20266592.80705  20266595.96805
  23710511.76805   2494542.08305   1943804.32805  23710511.76805  23710515.10605
 97  4 25  1 27 30.0000000  0  7 17 30 21 26 23 06 10
  21203403.03205 -20626447.43905 -16072541.76205  21203403.03205  21203407.02905
  23095374.02905    794133.16505    618802.84805  23095374.02905  23095377.25105
  25460623.29105   -403306.64005   -314262.87105  25460623.29105  25460628.76705
  22844447.77905 -11479117.84705  -8944755.81705  22844447.77905  22844450.42405
  22292361.95505 -15362619.62705 -11970848.28405  22292361.95505  22292366.51305
  20267713.68205 -19584858.08105 -15260921.28605  20267713.68205  20267716.83905
  23729385.63005   2593725.10205   2021089.78005  23729385.63005  23729389.68605
 97  4 25  1 28  0.0000000  0  7 17 30 21 26 23 06 10
  21196885.81305 -20660696.12505 -16099229.03605  21196885.81305  21196889.63605
  23115058.17505    897572.33605    699404.76405  23115058.17505  23115061.67005
  25441448.59205   -504066.36905   -392776.60005  25441448.59205  25441453.61205
  22834778.78705 -11529928.77805  -8984348.72905  22834778.78705  22834781.98005
  22276696.74505 -15444939.92105 -12034993.93605  22276696.74505  22276701.35105
  20268912.47605 -19578559.25305 -15256013.11505  20268912.47605  20268915.60305
  23748286.79205   2693054.21505   2098489.07305  23748286.79205  23748291.97305
 97  4 25  1 28 30.0000000  0  7 17 30 21 26 23 06 10
  21190406.75805 -20694743.72205 -16125759.62005  21190406.75805  21190410.67705
  23134762.64305   1001120.41005    780091.52205  23134762.64305  23134766.12905
  25422278.78805   -604801.18805   -471270.92405  25422278.78805  25422287.97205
  22825187.50005 -11580330.02805  -9023622.40205  22825187.50005  22825191.52805
  22261092.31005 -15526942.79005 -12098892.25205  22261092.31005  22261096.59505
  20270194.67505 -19571821.03205 -15250762.56105  20270194.67505  20270197.80305
  23767213.56905   2792517.35105   2175992.78705  23767213.56905  23767216.92605
 97  4 25  1 29  0.0000000  0  7 17 30 21 26 23 06 10
  21183964.18305 -20728600.60505 -16152141.59305  21183964.18305  21183967.87805
  23154493.86505   1104809.02505    860887.79805  23154493.86505  23154497.12905
  25403117.11005   -705498.30205   -549738.93705  25403117.11005  25403117.11005
  22815674.62005 -11630320.50805  -9062575.99805  22815674.62005  22815678.47005
  22245553.62905 -15608600.11205 -12162521.31605  22245553.62905  22245557.59105
  20271560.24705 -19564645.00505 -15245170.86105  20271560.24705  20271563.37605
  23786164.28105   2892104.12005   2253592.87905  23786164.28105  23786168.11605
 97  4 25  1 29 30.0000000  0  7 17 30 21 26 23 06 10
  21177566.65305 -20762218.95205 -16178337.69205  21177566.65305  21177570.67105
  23174261.93005   1208690.47305    941834.35005  23174261.93005  23174266.54105
  25383973.90505   -806096.55205   -628123.82905  25383973.90505  25383978.74105
  22806248.35305 -11679856.27005  -9101175.27405  22806248.35305  22806251.38605
  22230088.77705 -15689868.33105 -12225847.17105  22230088.77705  22230093.63005
  20273013.69205 -19557006.57705 -15239218.84405  20273013.69205  20273016.76905
  23805147.62805   2991858.96705   2331323.89205  23805147.62805  23805150.81505
 97  4 25  1 30  0.0000000  0  7 30 21 26 23 06 10 17
  23194060.84205   1312736.67705   1022909.26905  23194060.84205  23194065.16605
  25364843.65305   -906625.40305   -706457.70805  25364843.65305  25364843.65305
  22796902.99105 -11728967.79405  -9139443.96005  22796902.99105  22796905.81405
  22214692.24305 -15770776.98705 -12288892.85405  22214692.24305  22214696.64905
  20274551.18605 -19548927.42105 -15232923.40305  20274551.18605  20274554.30105
  23824157.79005   3091757.22705   2409166.68205  23824157.79005  23824160.91105
  21171210.97805 -20795617.75305 -16204362.72305  21171210.97805  21171215.04005
 97  4 25  1 30 30.0000000  0  7 30 21 26 23 06 10 17
  23213879.28305   1416883.32105   1104062.45405  23213879.28305  23213883.92005
  25345717.44105  -1007134.23205   -784776.01705  25345717.44105  25345726.62505
  22787627.18905 -11777711.91405  -9177426.35705  22787627.18905  22787630.40705
  22199353.86305 -15851380.17005 -12351700.50005  22199353.86305  22199358.30405
  20276160.78905 -19540468.91905 -15226332.36605  20276160.78905  20276163.87805
  23843183.30105   3191738.09205   2487073.82505  23843183.30105  23843187.36205
  21164887.80905 -20828845.57905 -16230254.52605  21164887.80905  21164891.73305
 97  4 25  1 31  0.0000000  0  7 30 21 26 23 06 10 17
  23233726.33205   1521178.82205   1185331.62805  23233726.33205  23233729.72605
  25326609.45305  -1107545.94205   -863022.81205  25326609.45305  25326609.45305
  22778434.86805 -11826017.65505  -9215067.17005  22778434.86805  22778437.56305
  22184081.92305 -15931633.65405 -12414235.65505  22184081.92305  22184086.36005
  20277852.97005 -19531576.39205 -15219403.13005  20277852.97005  20277856.05505
  23862240.92705   3291887.94605   2565112.65605  23862240.92705  23862246.19805
  21158611.51505 -20861828.43205 -16255955.44005  21158611.51505  21158615.57305
 97  4 25  1 31 30.0000000  0  7 30 21 26 23 06 10 17
  23253592.87505   1625578.20205   1266681.74405  23253592.87505  23253598.02305
  25307513.90705  -1207892.62605   -941210.61405  25307513.90705  25307522.34605
  22769319.73005 -11873916.35205  -9252390.80505  22769319.73005  22769322.89205
  22168869.24205 -16011577.30905 -12476529.39205  22168869.24205  22168873.89505
  20279628.42305 -19522245.95705 -15212132.67105  20279628.42305  20279631.61005
  23881328.84505   3392196.36505   2643275.04505  23881328.84505  23881333.55005
  21152375.29005 -20894598.74405 -16281490.73605  21152375.29005  21152379.30805
 97  4 25  1 32  0.0000000  0  7 30 21 26 23 06 10 17
  23273479.43905   1730083.03105   1348114.03205  23273479.43905  23273483.70305
  25288429.40705  -1308177.15505  -1019354.15805  25288429.40705  25288435.93605
  22760283.89305 -11921400.14705  -9289391.13805  22760283.89305  22760286.98605
  22153720.41105 -16091185.96005 -12538562.08505  22153720.41105  22153725.08505
  20281494.69305 -19512438.82505 -15204490.75505  20281494.69305  20281497.82105
  23900448.99305   3492670.91505   2721566.90005  23900448.99305  23900452.83605
  21146179.70405 -20927157.43805 -16306861.13205  21146179.70405  21146183.60405
 97  4 25  1 32 30.0000000  0  7 30 21 26 23 06 10 17
  23293378.95405   1834655.41305   1429598.96105  23293378.95405  23293383.40005
  25269351.98805  -1408429.67805  -1097472.73605  25269351.98805  25269351.98805
  22751322.21205 -11968494.15005  -9326087.73805  22751322.21205  22751325.34805
  22138628.65505 -16170493.15005 -12600359.87505  22138628.65505  22138633.30205
  20283447.38305 -19502177.75205 -15196495.12005  20283447.38305  20283450.49305
  23919592.41205   3593270.37305   2799956.05805  23919592.41205  23919596.28905
  21140018.16405 -20959535.97205 -16332091.14705  21140018.16405  21140022.13405
 97  4 25  1 33  0.0000000  0  7 30 21 26 23 06 10 17
  23313295.55005   1939316.94705   1511153.36805  23313295.55005  23313299.45705
  25250282.71905  -1508639.99005  -1175558.44605  25250282.71905  25250289.27105
  22742439.16405 -12015176.04605  -9362463.21505  22742439.16405  22742442.54805
  22123595.17505 -16249494.58705 -12661919.41605  22123595.17505  22123599.87105
  20285494.01705 -19491422.68405 -15188114.55405  20285494.01705  20285497.09205
  23938761.38205   3694005.18905   2878450.70805  23938761.38205  23938766.53305
  21133892.78705 -20991724.43205 -16357173.05205  21133892.78705  21133896.84105
 97  4 25  1 33 30.0000000  0  7 30 21 26 23 06 10 17
  23333232.67305   2044087.73005   1592792.90705  23333232.67305  23333236.43905
  25231221.62605  -1608806.63705  -1253610.10505  25231221.62605  25231226.81705
  22733635.22505 -12061439.79405  -9398512.85905  22733635.22505  22733638.60205
  22108622.25805 -16328177.62005 -12723230.84905  22108622.25805  22108626.40405
  20287635.51405 -19480168.87505 -15179345.36005  20287635.51405  20287638.61605
  23957952.83505   3794859.44105   2957038.40905  23957952.83505  23957956.81305
  21127804.60905 -21023718.94705 -16382103.83405  21127804.60905  21127808.79505
 97  4 25  1 34  0.0000000  0  7 30 21 26 23 06 10 17
  23353198.29505   2149008.97905   1674549.67805  23353198.29505  23353202.49605
  25212178.95805  -1708876.60805  -1331586.49005  25212178.95805  25212189.38305
  22724921.83505 -12107228.51505  -9434192.36105  22724921.83505  22724925.11905
  22093719.32405 -16406493.40505 -12784256.11205  22093719.32405  22093723.40805
  20289872.45905 -19468413.85905 -15170185.61605  20289872.45905  20289875.54605
  23977170.57205   3895848.35805   3035731.06905  23977170.57205  23977174.73605
  21121763.03905 -21055467.76005 -16406843.15705  21121763.03905  21121766.76805
 97  4 25  1 34 30.0000000  0  7 30 21 26 23 06 10 17
  23373188.60405   2254059.50905   1756407.19205  23373188.60405  23373191.67005
  25193156.45605  -1808841.09005  -1409480.66505  25193156.45605  25193166.38405
  22716297.84605 -12152549.26205  -9469507.21405  22716297.84605  22716301.06805
  22078880.77205 -16484470.39005 -12845017.37705  22078880.77205  22078884.72205
  20292197.44105 -19456196.52505 -15160665.62105  20292197.44105  20292200.52605
  23996411.81605   3996959.17805   3114518.71105  23996411.81605  23996415.43905
  21115767.05905 -21086977.03205 -16431395.82405  21115767.05905  21115770.78505
 97  4 25  1 35  0.0000000  0  7 30 21 26 23 06 10 17
  23393199.61305   2359216.14005   1838347.38805  23393199.61305  23393204.11005
  25174151.53905  -1908711.11405  -1487307.36205  25174151.53905  25174151.53905
  22707760.79105 -12197411.13605  -9504464.48605  22707760.79105  22707764.04505
  22064104.69805 -16562118.83105 -12905522.63305  22064104.69805  22064109.03905
  20294605.54105 -19443541.04605 -15150804.21205  20294605.54105  20294608.69805
  24015676.90905   4098196.50105   3193404.91705  24015676.90905  24015680.41505
  21109812.47805 -21118269.90205 -16455779.86605  21109812.47805  21109816.28705
 97  4 25  1 35 30.0000000  0  7 30 21 26 23 06 10 17
  23413226.30205   2464456.12805   1920352.52105  23413226.30205  23413229.69405
  25155163.00905  -2008494.99905  -1565054.63705  25155163.00905  25155171.69605
  22699311.76005 -12241811.33205  -9539062.01705  22699311.76005  22699314.84405
  22049390.08005 -16639445.21805 -12965776.93605  22049390.08005  22049394.01505
  20297091.62605 -19430476.93205 -15140624.38605  20297091.62605  20297094.74205
  24034962.40005   4199543.06605   3272376.23205  24034962.40005  24034966.90005
  21103894.82105 -21149366.62405 -16480011.06405  21103894.82105  21103898.50605
 97  4 25  1 36  0.0000000  0  7 30 21 26 23 06 10 17
  23433267.38905   2569771.38005   2002416.31005  23433267.38905  23433271.13205
  25136191.84105  -2108184.73905  -1642734.74005  25136191.84105  25136199.04205
  22690951.21705 -12285745.94705  -9573296.75805  22690951.21705  22690954.43605
  22034739.02805 -16716435.83805 -13025769.60405  22034739.02805  22034743.63905
  20299656.80005 -19416997.10105 -15130120.62705  20299656.80005  20299659.85605
  24054273.28105   4301021.12005   3351450.05005  24054273.28105  24054276.46205
  21098013.76105 -21180272.20505 -16504093.32305  21098013.76105  21098017.25505
 97  4 25  1 36 30.0000000  0  7 30 21 26 23 06 10 17
  23453334.66805   2675225.26705   2084588.12005  23453334.66805  23453337.84205
  25117249.86805  -2207726.37505  -1720299.43405  25117249.86805  25117258.55505
  22682689.32805 -12329161.61705  -9607127.13405  22682689.32805  22682692.99105
  22020164.14305 -16793027.06705 -13085451.05805  22020164.14305  22020168.96305
  20302316.75405 -19403018.18005 -15119227.96605  20302316.75405  20302319.78605
  24073621.12405   4402694.95605   3430676.39005  24073621.12405  24073627.17705
  21092179.98405 -21210928.36205 -16527981.22305  21092179.98405  21092183.56805
 97  4 25  1 37  0.0000000  0  7 30 21 26 23 06 10 17
  23473413.91605   2780742.62705   2166809.39905  23473413.91605  23473417.01905
  25098320.71005  -2307201.02805  -1797811.96005  25098320.71005  25098328.90105
  22674513.03705 -12372127.30905  -9640606.87105  22674513.03705  22674516.39505
  22005653.50405 -16869280.37805 -13144869.19605  22005653.50405  22005657.89005
  20305059.72105 -19388604.04505 -15107996.18105  20305059.72105  20305062.83805
  24092988.30705   4504470.60005   3509982.06405  24092988.30705  24092994.34805
  21086379.21305 -21241411.06405 -16551733.96305  21086379.21305  21086382.95305
 97  4 25  1 37 30.0000000  0  7 30 21 26 23 06 10 17
  23493509.26405   2886343.58605   2249095.82005  23493509.26405  23493512.11005
  25079408.80805  -2406586.44005  -1875254.94805  25079408.80805  25079415.69805
  22666423.59905 -12414638.48205  -9673732.44405  22666423.59905  22666427.39205
  21991211.40205 -16945173.98205 -13204007.04605  21991211.40205  21991215.35405
  20307888.25505 -19373740.02705 -15096413.84405  20307888.25505  20307891.37105
  24112373.49905   4606340.47905   3589361.18105  24112373.49905  24112376.95605
  21080616.70705 -21271693.65405 -16575330.77005  21080616.70705  21080620.37405
 97  4 25  1 38  0.0000000  0  7 30 21 26 23 06 10 17
  23513615.09305   2992001.21805   2331426.39705  23513615.09305  23513620.06205
  25060511.68005  -2505891.74905  -1952635.51005  25060511.68005  25060520.11905
  22658412.05005 -12456738.54605  -9706537.66805  22658412.05005  22658415.51305
  21976830.69005 -17020744.65705 -13262893.26305  21976830.69005  21976834.93805
  20310799.23805 -19358443.74105 -15084494.67505  20310799.23805  20310802.23905
  24131771.92505   4708279.18205   3668793.91105  24131771.92505  24131775.89605
  21074890.90805 -21301782.47505 -16598776.59205  21074890.90805  21074894.71505
 97  4 25  1 38 30.0000000  0  7 30 21 26 23 06 10 17
  23533734.90005   3097733.57005   2413815.19105  23533734.90005  23533739.35705
  25041636.02105  -2605080.77605  -2029925.47505  25041636.02105  25041642.27605
  22650486.17905 -12498390.46905  -9738993.69505  22650486.17905  22650489.59505
  21962511.60005 -17095992.56605 -13321527.97305  21962511.60005  21962516.16905
  20313799.12605 -19342678.94005 -15072210.42305  20313799.12605  20313802.18905
  24151182.38405   4810282.75305   3748277.19005  24151182.38405  24151186.86105
  21069208.46605 -21331642.47505 -16622044.11005  21069208.46605  21069212.48805
 97  4 25  1 39  0.0000000  4  1
 -2609191.0000 -4570718.0000  3592953.0000                  APPROX POSITION XYZ
 97  4 25  1 39  0.0000000  0  7 30 21 26 23 06 10 17
  23553868.80005   3203538.48105   2496260.52305  23553868.80005  23553872.38505
  25022784.59105  -2704142.95805  -2107116.63505  25022784.59105  25022791.99105
  22642647.78705 -12539581.70305  -9771090.73505  22642647.78705  22642650.84905
  21948254.52805 -17170915.86505 -13379909.74205  21948254.52805  21948258.54105
  20316888.70805 -19326442.71505 -15059558.82905  20316888.70805  20316891.86405
  24170607.83105   4912363.32205   3827820.47205  24170607.83105  24170615.12105
  21063568.77005 -21361280.54905 -16645138.69905  21063568.77005  21063572.44505
 97  4 25  1 39 30.0000000  0  6 30 21 26 23 10 17
  23574018.63002   3309427.14002   2578771.11405  23574018.63005  23574023.46205
  25003956.69902  -2803079.99502  -2184210.22605  25003956.69905  25003965.38705
  22634896.72502 -12580314.65202  -9802830.68305  22634896.72505  22634899.81305
  21934058.90802 -17245512.82602 -13438037.22105  21934058.90805  21934063.45705
  24190051.71202   5014541.92402   3907440.16205  24190051.71205  24190056.91405
  21057971.36702 -21390695.14002 -16668059.14505  21057971.36705  21057975.37905
 97  4 25  1 40  0.0000000  0  6 30 21 26 23 10 17
  23594184.12502   3415396.58802   2661344.65305  23594184.12505  23594188.94805
  24985151.92402  -2901897.39902  -2261210.59805  24985151.92405  24985158.87305
  22627234.63902 -12620577.89902  -9834204.61705  22627234.63905  22627238.18405
  21919927.01902 -17319776.35902 -13495904.88005  21919927.01905  21919931.85405
  24209514.18102   5116816.41402   3987134.54505  24209514.18105  24209517.42205
  21052415.03202 -21419893.51202 -16690811.11105  21052415.03205  21052418.63505
 97  4 25  1 40 30.0000000  0  6 30 21 26 23 10 17
  23614364.46102   3521444.02602   2743978.96105  23614364.46105  23614368.45405
  24966365.76802  -3000621.52102  -2338138.34305  24966365.76805  24966373.95905
  22619664.61702 -12660358.84202  -9865202.72405  22619664.61705  22619668.01605
  21905865.52502 -17393671.00402 -13553485.09205  21905865.52505  21905869.77705
  24228994.38202   5219187.05602   4066903.85005  24228994.38205  24228997.89505
  21046896.87602 -21448892.40602 -16713407.64105  21046896.87605  21046900.48405
 97  4 25  1 41  0.0000000  0  7 30 21 26 23 06 10 17
  23634558.58602   3627563.18902   2826669.16105  23634558.58605  23634562.22305
  24947591.62702  -3099282.15002  -2415016.60005  24947591.62705  24947601.30805
  22612181.86602 -12699678.55802  -9895841.44705  22612181.86605  22612185.21205
  21891878.25902 -17467175.11302 -13610760.99905  21891878.25905  21891882.15705
  20330153.90012        -0.97412        -0.36115  20330153.90015  20330156.94915
  24248495.05602   5321665.56902   4146757.24805  24248495.05605  24248498.86605
  21041413.02202 -21477710.25702 -16735863.09905  21041413.02205  21041416.63305
 97  4 25  1 41 30.0000000  0  7 30 21 26 23 06 10 17
  23654764.24002   3733743.84902   2909407.29405  23654764.24005  23654767.29805
  24928829.14202  -3197879.18202  -2491845.28005  24928829.14205  24928835.49605
  22604786.86902 -12738539.69902  -9926122.83705  22604786.86905  22604790.38105
  21877965.24102 -17540287.20402 -13667731.43605  21877965.24105  21877969.55905
  20333688.31402     18572.20902     14472.24105  20333688.31405  20333691.41305
  24268013.12402   5424236.06802   4226682.30905  24268013.12405  24268016.95805
  21035965.33602 -21506336.99302 -16758169.63405  21035965.33605  21035969.02105
 97  4 25  1 42  0.0000000  0  7 30 21 26 23 06 10 17
  23674979.74602   3839975.14802   2992184.88005  23674979.74605  23674983.44705
  24910081.83602  -3296398.12302  -2568613.13005  24910081.83605  24910089.01605
  22597483.47502 -12776920.62202  -9956030.02805  22597483.47505  22597487.24605
  21864128.77802 -17612996.86202 -13724388.28505  21864128.77805  21864133.20905
  20337308.86602     37598.32602     29297.78005  20337308.86605  20337311.98605
  24287548.84102   5526896.45802   4306677.40205  24287548.84105  24287552.48505
  21030555.49902 -21534765.70702 -16780321.87005  21030555.49905  21030559.12005
 97  4 25  1 42 30.0000000  0  7 30 21 26 23 06 10 17
  23695203.73502   3946253.95802   3074999.49005  23695203.73505  23695207.55805
  24891349.53202  -3394835.59402  -2645317.50005  24891349.53205  24891354.76705
  22590270.44502 -12814824.76302  -9985565.70405  22590270.44505  22590273.85105
  21850365.45802 -17685323.78202 -13780746.89805  21850365.45805  21850369.95405
  20341012.54002     57061.44102     44463.83705  20341012.54005  20341015.63005
  24307100.93502   5629640.59802   4386737.74905  24307100.93505  24307105.74705
  21025181.71202 -21563005.89602 -16802327.20505  21025181.71205  21025185.49505
 97  4 25  1 43  0.0000000  0  7 30 21 26 23 06 10 17
  23715439.36202   4052591.17702   3157859.60505  23715439.36205  23715443.06905
  24872637.53602  -3493163.31202  -2721936.33505  24872637.53605  24872643.39605
  22583149.86402 -12852244.37402 -10014723.82505  22583149.86405  22583152.69505
  21836673.25502 -17757277.00502 -13836814.31805  21836673.25505  21836677.54405
  20344802.64402     76978.47302     59983.60005  20344802.64405  20344805.73605
  24326669.16202   5732471.51602   4466865.72505  24326669.16205  24326673.73805
  21019845.95402 -21591045.24202 -16824176.03705  21019845.95405  21019849.58605
 97  4 25  1 43 30.0000000  0  7 30 21 26 23 06 10 17
  23735684.93502   4158984.96702   3240763.80405  23735684.93505  23735689.27005
  24853948.67302  -3591367.43802  -2798468.13405  24853948.67305  24853948.67305
  22576125.88402 -12889155.24702 -10043485.52505  22576125.88405  22576129.10905
  21823050.47502 -17828866.20002 -13892598.08305  21823050.47505  21823054.61505
  20348684.34502     97376.64002     75878.26905  20348684.34505  20348687.49305
  24346253.31502   5835386.47602   4547059.19105  24346253.31505  24346257.87605
  21014552.48702 -21618862.56302 -16845851.86105  21014552.48705  21014556.04905
 97  4 25  1 44  0.0000000  0  7 30 21 26 23 06 10 17
  23755939.61102   4265423.62602   3323702.97405  23755939.61105  23755945.57105
  24835282.82902  -3689457.93502  -2874892.92905  24835282.82905  24835291.26805
  22569195.38502 -12925575.57002 -10071864.96905  22569195.38505  22569198.83205
  21809494.19202 -17900104.88402 -13948108.72305  21809494.19205  21809498.29905
  20352655.97402    118248.12602     92141.75405  20352655.97405  20352659.10005
  24365852.20202   5938380.58802   4627314.31405  24365852.20205  24365855.25905
  21009299.69102 -21646465.62202 -16867360.73005  21009299.69105  21009303.36605
 97  4 25  1 44 30.0000000  0  7 30 21 26 23 06 10 17
  23776201.26702   4371897.09102   3406669.25205  23776201.26705  23776204.87005
  24816634.80202  -3787456.14802  -2951255.03105  24816634.80205  24816643.73705
  22562354.08602 -12961527.01602 -10099879.06205  22562354.08605  22562357.26005
  21796002.22702 -17971004.92502 -14003355.48505  21796002.22705  21796006.51805
  20356716.66302    139586.73002    108769.22605  20356716.66305  20356719.68605
  24385463.99702   6041442.18702   4707622.04905  24385463.99705  24385467.86605
  21004086.35202 -21673862.35102 -16888708.82305  21004086.35205  21004090.15605
 97  4 25  1 45  0.0000000  0  7 30 21 26 23 06 10 17
  23796472.86902   4478425.12202   3489678.05305  23796472.86905  23796479.61405
  24798011.54902  -3885322.86002  -3027514.67805  24798011.54905  24798019.12805
  22555610.93902 -12996961.25402 -10127490.13005  22555610.93905  22555614.56505
  21782582.02202 -18041528.44302 -14058308.85305  21782582.02205  21782586.29905
  20360874.88902    161438.78902    125796.80105  20360874.88905  20360877.98205
  24405098.40502   6144622.74802   4788022.49005  24405098.40505  24405104.35905
  20998921.87002 -21701002.52702 -16909857.00405  20998921.87005  20998925.48205
 97  4 25  1 45 30.0000000  0  7 30 21 26 23 06 10 17
  23816750.65002   4584984.50502   3572711.27905  23816750.65005  23816754.86805
  24779409.42002  -3983079.47202  -3103688.57105  24779409.42005  24779414.39305
  22548963.14002 -13031896.32102 -10154712.23905  22548963.14005  22548966.23905
  21769227.83002 -18111704.68502 -14112991.62105  21769227.83005  21769232.07005
  20365126.06102    183778.35002    143204.24305  20365126.06105  20365129.18805
  24424753.49602   6247909.00702   4868505.26605  24424753.49605  24424756.97405
  20993801.39602 -21727911.01302 -16930824.64805  20993801.39605  20993804.84605
 97  4 25  1 46  0.0000000  0  7 30 21 26 23 06 10 17
  23837035.23302   4691579.72402   3655772.43505  23837035.23305  23837039.20505
  24760829.09602  -4080719.86502  -3179771.88605  24760829.09605  24760839.27305
  22542406.97302 -13066348.79302 -10181558.30305  22542406.97305  22542409.82205
  21755941.09202 -18181526.55502 -14167398.24805  21755941.09205  21755945.46805
  20369467.21902    206591.75302    160980.91105  20369467.21905  20369470.28605
  24444426.63502   6351289.83302   4949061.73605  24444426.63505  24444431.70305
  20988719.07102 -21754618.04902 -16951635.31605  20988719.07105  20988722.83305
 97  4 25  1 46 30.0000000  0  7 26 30 21 23 06 10 17
  22535945.91902 -13100300.82202 -10208014.41305  22535945.91905  22535949.27905
  23857327.20302   4798214.78302   3738864.62205  23857327.20305  23857332.09605
  24742271.74202  -4178236.46002  -3255758.75405  24742271.74205  24742278.36205
  21742721.75402 -18250994.69902 -14221529.24205  21742721.75405  21742725.98005
  20373897.79702    229874.46802    179123.28105  20373897.79705  20373900.91205
  24464116.09702   6454756.42902   5029685.03805  24464116.09705  24464120.28005
  20983670.69602 -21781147.02402 -16972307.23305  20983670.69605  20983674.62805
 97  4 25  1 47  0.0000000  0  7 26 30 21 23 06 10 17
  22529577.33002 -13133768.76602 -10234093.30005  22529577.33005  22529580.48105
  23877623.90802   4904876.46102   3821977.56305  23877623.90805  23877628.55205
  24723734.76402  -4275645.14202  -3331661.47905  24723734.76405  24723742.95505
  21729565.68702 -18320131.31602 -14275401.90705  21729565.68705  21729569.63405
  20378411.92002    253596.93302    197608.31005  20378411.92005  20378415.07305
  24483818.52202   6558290.79202   5110361.14105  24483818.52205  24483821.37505
  20978651.98502 -21807520.56202 -16992858.03605  20978651.98505  20978655.87205
 97  4 25  1 47 30.0000000  0  7 26 30 21 23 06 10 17
  22523302.54002 -13166743.37302 -10259787.78305  22523302.54005  22523305.97105
  23897929.59102   5011583.01602   3905125.47505  23897929.59105  23897934.60705
  24705223.80102  -4372921.84302  -3407461.40105  24705223.80105  24705230.62505
  21716480.17002 -18388896.34302 -14328985.02505  21716480.17005  21716484.00805
  20383016.03402    277790.96302    216460.79305  20383016.03405  20383019.22605
  24503532.61702   6661889.89802   5191087.72205  24503532.61705  24503535.08905
  20973666.49002 -21833719.24102 -17013272.58405  20973666.49005  20973670.40805
 97  4 25  1 48  0.0000000  0  7 26 23 30 21 06 10 17
  22517119.63702 -13199233.88202 -10285105.03805  22517119.63705  22517123.23705
  21703464.69602 -18457292.43602 -14382280.65805  21703464.69605  21703468.96605
  23918237.98902   5118303.93902   3988284.57505  23918237.98905  23918242.45505
  24686736.34502  -4470073.21602  -3483163.64805  24686736.34505  24686746.52205
  20387703.48002    302423.23102    235654.75505  20387703.48005  20387706.57505
  24523252.83302   6765522.59202   5271840.47005  24523252.83305  24523257.67205
  20968714.17102 -21859744.30002 -17033551.84205  20968714.17105  20968717.79405
 97  4 25  1 48 30.0000000  0  7 26 23 30 21 06 10 17
  22511031.27102 -13231229.67102 -10310036.79505  22511031.27105  22511034.32205
  21690518.68702 -18525324.02802 -14435292.25905  21690518.68705  21690523.08205
  23938546.94702   5225030.28102   4071447.91605  23938546.94705  23938551.07705
  24668273.07402  -4567097.27502  -3558766.69205  24668273.07405  24668283.49905
  20392473.94802    327492.54102    255189.27305  20392473.94805  20392477.07505
  24542981.77002   6869201.75702   5352629.43105  24542981.77005  24542987.04505
  20963799.02402 -21885573.40402 -17053678.41105  20963799.02405  20963802.55905
 97  4 25  1 49  0.0000000  0  7 26 23 30 21 06 10 17
  22505039.11402 -13262717.90802 -10334573.06705  22505039.11405  22505042.59305
  21677647.62502 -18592960.21502 -14487995.75105  21677647.62505  21677652.11105
  23958858.54002   5331768.83202   4154620.74805  23958858.54005  23958862.10805
  24649838.84902  -4663972.94302  -3634254.13705  24649838.84905  24649843.88305
  20397333.09702    353027.90302    275086.95005  20397333.09705  20397336.14205
  24562724.58502   6972952.05202   5433473.78305  24562724.58505  24562729.52605
  20958931.00702 -21911155.53102 -17073612.53105  20958931.00705  20958934.62405
 97  4 25  1 49 30.0000000  0  7 26 23 30 21 06 10 17
  22499145.81502 -13293687.96002 -10358705.55405  22499145.81505  22499148.97405
  21664854.27802 -18660190.93802 -14540383.30405  21664854.27805  21664858.14805
  23979170.11002   5438505.01302   4237791.73805  23979170.11005  23979176.46505
  24631436.14502  -4760680.52802  -3709610.58005  24631436.14505  24631440.94005
  20402281.28402    379030.55602    295348.74805  20402281.28405  20402284.39805
  24582479.20102   7076765.20702   5514367.13905  24582479.20105  24582486.33905
  20954109.82802 -21936491.08402 -17093354.51205  20954109.82805  20954113.34105
 97  4 25  1 50  0.0000000  0  7 26 23 30 21 06 10 17
  22493342.16102 -13324185.90802 -10382470.17905  22493342.16105  22493345.33705
  21652126.89202 -18727074.12402 -14592500.05305  21652126.89205  21652130.53505
  23999473.57202   5545198.72902   4320929.64305  23999473.57205  23999477.41905
  24613055.16002  -4857271.64902  -3784876.27805  24613055.16005  24613064.34405
  20407307.83602    405444.66302    315931.15205  20407307.83605  20407310.92805
  24602239.41202   7180605.33102   5595281.52605  24602239.41205  24602242.93705
  20949324.25802 -21961638.99002 -17112950.27805  20949324.25805  20949327.79905
 97  4 25  1 50 30.0000000  0  7 26 23 30 21 06 10 17
  22487627.98102 -13354214.31602 -10405868.92005  22487627.98105  22487630.69305
  21639465.72002 -18793608.29002 -14644344.83205  21639465.72005  21639469.85905
  24019770.01702   5651854.36902   4404037.87905  24019770.01705  24019772.45905
  24594693.98902  -4953758.96002  -3860061.10005  24594693.98905  24594700.00705
  20412416.03302    432288.98402    336848.79305  20412416.03305  20412419.20105
  24622004.52602   7284470.67702   5676215.56205  24622004.52605  24622007.62405
  20944572.70502 -21986607.52902 -17132406.27205  20944572.70505  20944576.42405
 97  4 25  1 51  0.0000000  0  7 26 23 30 21 06 10 17
  22482006.45402 -13383753.93702 -10428886.78805  22482006.45405  22482009.95105
  21626873.93502 -18859778.01502 -14695905.62805  21626873.93505  21626878.16805
  24040061.40902   5758485.23002   4487126.80905  24040061.40905  24040064.34405
  24576353.58802  -5050136.40102  -3935160.28105  24576353.58805  24576360.98905
  20417610.59002    459586.79702    358119.80705  20417610.59005  20417613.77105
  24641773.89602   7388359.52402   5757167.91005  24641773.89605  24641778.31505
  20939858.22702 -22011383.65502 -17151712.33105  20939858.22705  20939861.67105
 97  4 25  1 51 30.0000000  0  7 26 23 30 21 06 10 17
  22476482.64202 -13412782.78502 -10451506.64805  22476482.64205  22476485.81205
  21614353.49202 -18925574.48802 -14747175.58005  21614353.49205  21614357.60205
  24060351.72602   5865112.27102   4570212.75405  24060351.72605  24060355.79205
  24558035.59702  -5146400.36402  -4010171.10105  24558035.59705  24558043.37505
  20422891.94602    487339.91602    379745.59905  20422891.94605  20422895.02105
  24661547.99802   7492274.48002   5838140.59605  24661547.99805  24661553.50005
  20935178.52802 -22035975.09402 -17170874.48105  20935178.52805  20935181.98405
 97  4 25  1 52  0.0000000  0  7 26 23 30 21 06 10 17
  22471058.00902 -13441290.21402 -10473720.20705  22471058.00905  22471061.18805
  21601905.61602 -18990988.86102 -14798147.79605  21601905.61605  21601909.26005
  24080645.51002   5971757.46802   4653312.85305  24080645.51005  24080648.67405
  24539737.12202  -5242558.75202  -4085099.60205  24539737.12205  24539744.94005
  20428264.58202    515572.92002    401745.33305  20428264.58205  20428267.68605
  24681327.14602   7596216.67202   5919134.53705  24681327.14605  24681335.58605
  20930536.72602 -22060367.44102 -17189881.49105  20930536.72605  20930540.53905
 97  4 25  1 52 30.0000000  0  7 26 23 30 21 06 10 17
  22465737.43202 -13469248.81002 -10495506.10905  22465737.43205  22465740.61405
  21589532.69402 -19056008.15202 -14848812.16005  21589532.69405  21589536.48905
  24100943.56102   6078426.30602   4736431.37005  24100943.56105  24100946.66705
  24521461.67302  -5338597.24602  -4159934.73105  24521461.67305  24521469.29505
  20433734.81002    544319.84302    424145.52205  20433734.81005  20433738.02205
  24701112.70502   7700191.76202   6000154.07905  24701112.70505  24701116.96005
  20925937.08902 -22084538.75002 -17208716.26505  20925937.08905  20925940.92905
 97  4 25  1 53  0.0000000  0  7 30 21 26 23 06 10 17
  24121244.95702   6185115.06202   4819565.39605  24121244.95705  24121249.78205
  24503206.63602  -5434525.52702  -4234683.95405  24503206.63605  24503213.20405
  22460520.34302 -13496665.49002 -10516869.72605  22460520.34305  22460523.19105
  21577233.92402 -19120637.29602 -14899172.51005  21577233.92405  21577238.08505
  20439301.93402    573575.21902    446941.91205  20439301.93405  20439305.10705
  24720905.48802   7804201.88502   6081200.96105  24720905.48805  24720910.88305
  20921377.81302 -22108497.73102 -17227385.58505  20921377.81305  20921381.65105
 97  4 25  1 53 30.0000000  0  8 30 21 28 26 23 06 10 17
  24141552.47202   6291830.66802   4902720.36505  24141552.47205  24141557.70105
  24484976.47502  -5530325.74502  -4309333.34805  24484976.47505  24484982.36605
  22983460.53816        -0.35816         0.29819  22983446.52416  22983449.40516
  22455406.50102 -13523539.40602 -10537810.42005  22455406.50105  22455409.70205
  21565014.41902 -19184852.22702 -14949210.09305  21565014.41905  21565018.66005
  20444967.27702    603346.18702    470140.05805  20444967.27705  20444970.40105
  24740707.06002   7908258.82202   6162284.28605  24740707.06005  24740711.22105
  20916858.43402 -22132247.40802 -17245891.80805  20916858.43405  20916862.08505
 97  4 25  1 54  0.0000000  0  7 26 23 30 21 06 10 17
  22450389.98002 -13549900.19502 -10558351.27905  22450389.98005  22450393.18405
  21552871.41702 -19248665.27502 -14998934.52105  21552871.41705  21552875.39405
  24161860.74402   6398549.94702   4985878.19605  24161860.74405  24161865.29305
  24466770.15402  -5625997.98902  -4383883.08905  24466770.15405  24466776.59405
  20450728.71302    633622.85602    493732.25605  20450728.71305  20450731.87505
  24760514.86702   8012349.83602   6243394.17805  24760514.86705  24760519.60805
  20912376.38302 -22155801.53702 -17264245.65805  20912376.38305  20912380.11505
 97  4 25  1 54 30.0000000  0  7 26 23 30 21 06 10 17
  22445474.64102 -13575730.56402 -10578478.82005  22445474.64105  22445478.19705
  21540807.01702 -19312063.09202 -15048335.39405  21540807.01705  21540811.14405
  24182171.69802   6505284.10702   5069047.62305  24182171.69805  24182176.43305
  24448595.27902  -5721510.00902  -4458307.93505  24448595.27905  24448600.61105
  20456586.36602    664405.34902    517718.60805  20456586.36605  20456589.48005
  24780336.55802   8116513.45602   6324560.62805  24780336.55805  24780343.14505
  20907933.55202 -22179148.65902 -17282438.20305  20907933.55205  20907937.04305
 97  4 25  1 55  0.0000000  0  7 26 23 30 21 06 10 17
  22440656.57902 -13601049.82402 -10598208.09605  22440656.57905  22440659.64905
  21528822.36502 -19375042.18702 -15097409.99205  21528822.36505  21528826.51005
  24202485.34502   6612033.28902   5152228.73205  24202485.34505  24202489.15105
  24430453.17702  -5816848.03702  -4532597.22305  24430453.17705  24430459.67905
  20462535.71502    695669.27502    542080.10005  20462535.71505  20462538.75005
  24800172.22702   8220750.04902   6405783.94405  24800172.22705  24800175.29505
  20903528.67602 -22202295.97602 -17300475.05605  20903528.67605  20903532.27705
 97  4 25  1 55 30.0000000  0  7 26 23 30 21 06 10 17
  22435933.64502 -13625867.65602 -10617546.65205  22435933.64505  22435936.79005
  21516913.46002 -19437624.42002 -15146175.34905  21516913.46005  21516917.32605
  24222797.89802   6718776.49202   5235405.19305  24222797.89805  24222802.76705
  24412345.58302  -5912004.71602  -4606745.19105  24412345.58305  24412351.40505
  20468571.90902    727390.18802    566797.68205  20468571.90905  20468575.07005
  24820017.62302   8325035.68602   6487045.50605  24820017.62305  24820020.41805
  20899159.91502 -22225253.76902 -17318364.23005  20899159.91505  20899163.44005
 97  4 25  1 56  0.0000000  0  7 26 23 30 21 06 10 17
  22431307.59502 -13650179.00302 -10636490.53505  22431307.59505  22431310.75405
  21505074.06802 -19499840.82302 -15194655.64105  21505074.06805  21505077.69305
  24243107.26302   6825500.39402   5318566.62605  24243107.26305  24243112.19205
  24394271.08202  -6006985.03302  -4680755.73605  24394271.08205  24394278.57305
  20474693.69202    759560.87702    591865.74005  20474693.69205  20474696.88605
  24839871.73702   8429370.39802   6568345.28605  24839871.73705  24839876.75005
  20894829.12802 -22248011.76202 -17336097.72005  20894829.12805  20894832.67405
 97  4 25  1 56 30.0000000  0  7 30 21 26 23 06 10 17
  24263409.46602   6932189.06002   5401700.59605  24263409.46605  24263412.35605
  24376226.14502  -6101810.33602  -4754645.48905  24376226.14505  24376230.53305
  22426778.69802 -13673977.61702 -10655034.89905  22426778.69805  22426781.41005
  21493302.82102 -19561698.64802 -15242856.52005  21493302.82105  21493306.69605
  20480901.14502    792180.76302    617283.81905  20480901.14505  20480904.35905
  24859733.31702   8533743.78802   6649675.20505  24859733.31705  24859737.69505
  20890536.45202 -22270570.41702 -17353675.88105  20890536.45205  20890540.05005
 97  4 25  1 57  0.0000000  0  7 26 23 30 21 06 10 17
  22422350.13702 -13697250.08602 -10673169.28705  22422350.13705  22422353.78605
  21481602.44402 -19623184.57702 -15290767.60905  21481602.44405  21481606.47505
  24283704.00702   7038836.23802   5484802.22705  24283704.00705  24283707.18605
  24358208.60202  -6196489.72102  -4828421.55105  24358208.60205  24358213.31505
  20487196.54802    825262.93802    643062.12505  20487196.54805  20487199.70105
  24879598.34802   8638135.87802   6731019.71205  24879598.34805  24879602.79005
  20886283.71402 -22292919.14102 -17371090.45805  20886283.71405  20886287.20405
 97  4 25  1 57 30.0000000  0  7 26 23 30 21 06 10 17
  22418024.66702 -13719980.75602 -10690881.50805  22418024.66705  22418027.78805
  21469970.14202 -19684312.46102 -15338399.70305  21469970.14205  21469974.02005
  24303983.63702   7145409.18402   5567846.02405  24303983.63705  24303988.54005
  24340215.72402  -6291044.77902  -4902100.72205  24340215.72405  24340222.35805
  20493579.46602    858805.15302    669198.90505  20493579.46605  20493582.65405
  24899462.48002   8742522.29902   6812359.80905  24899462.48005  24899465.66105
  20882069.10502 -22315065.91402 -17388347.67605  20882069.10505  20882072.56205
 97  4 25  1 58  0.0000000  0  7 26 30 21 23 06 10 17
  22413805.70002 -13742150.41102 -10708157.08205  22413805.70005  22413809.00705
  24324250.53502   7251912.72502   5650835.72105  24324250.53505  24324255.31505
  24322246.86802  -6385470.31202  -4975678.97605  24322246.86805  24322253.03505
  21458409.90502 -19745061.54802 -15385736.63305  21458409.90505  21458413.70205
  20500053.25702    892824.33302    695707.34605  20500053.25705  20500056.42205
  24919327.99202   8846916.13402   6893705.64305  24919327.99205  24919333.59005
  20877894.00202 -22337005.92802 -17405443.77905  20877894.00205  20877897.75605
 97  4 25  1 58 30.0000000  0  8 28 30 21 26 23 06 10 17
  22807834.49616        -0.66816        -0.36919  22807825.64616  22807828.49416
  24344509.69802   7358372.71102   5733791.50105  24344509.69805  24344514.09105
  24304307.45002  -6479746.49802  -5049140.84805  24304307.45005  24304313.52805
  22409696.75702 -13763745.42702 -10724984.75005  22409696.75705  22409698.89405
  21446928.07402 -19805399.18202 -15432752.94405  21446928.07405  21446932.03605
  20506620.68902    927336.01802    722599.55705  20506620.68905  20506623.78105
  24939194.72302   8951316.27802   6975056.45005  24939194.72305  24939201.71905
  20873759.00102 -22358736.96202 -17422377.04905  20873759.00105  20873762.56505
 97  4 25  1 59  0.0000000  0  8 28 30 21 26 23 06 10 17
  22790421.47106    -91500.50806    -71298.92509  22790413.78206  22790416.69206
  24364759.06002   7464782.00902   5816707.80105  24364759.06005  24364762.47305
  24286398.10402  -6573862.05402  -5122477.57305  24286398.10405  24286401.61105
  22405696.43802 -13784766.87802 -10741365.11805  22405696.43805  22405699.03505
  21435521.25402 -19865342.94302 -15479462.34505  21435521.25405  21435525.11405
  20513276.97502    962315.63202    749856.38405  20513276.97505  20513280.04805
  24959059.49602   9055707.44102   7056400.21405  24959059.49605  24959063.82205
  20869662.17602 -22380265.04702 -17439152.17205  20869662.17605  20869665.75005
 97  4 25  1 59 30.0000000  0  8 28 30 21 26 23 06 10 17
  22773038.93906   -182850.39206   -142480.63009  22773030.48306  22773033.42706
  24385000.46802   7571151.85102   5899593.33005  24385000.46805  24385005.39505
  24268521.60802  -6667801.91902  -5195677.40305  24268521.60805  24268527.46905
  22401804.75202 -13805216.75802 -10757300.07805  22401804.75205  22401806.84805
  21424188.53602 -19924896.75502 -15525867.89105  21424188.53605  21424192.36505
  20520022.40902    997764.20902    777478.63805  20520022.40905  20520025.54105
  24978926.10902   9160109.79802   7137752.71205  24978926.10905  24978931.14505
  20865604.21002 -22401589.35102 -17455768.50905  20865604.21005  20865607.98905
 97  4 25  2  0  0.0000000  0  8 28 30 21 26 23 06 10 17
  22755683.14606   -274051.76206   -213546.60909  22755675.41806  22755678.46006
  24405239.98102   7677510.66502   5982470.29005  24405239.98105  24405246.95905
  24250677.24302  -6761574.06502  -5268746.53405  24250677.24305  24250683.59305
  22398018.16502 -13825116.13802 -10772806.08505  22398018.16505  22398021.33505
  21412929.94402 -19984060.39802 -15571969.40905  21412929.94405  21412933.91905
  20526859.15702   1033690.94302    805473.48405  20526859.15705  20526862.24605
  24998796.90702   9264530.84702   7219119.76305  24998796.90705  24998801.09005
  20861583.16102 -22422720.20302 -17472234.10205  20861583.16105  20861586.70405
 97  4 25  2  0 30.0000000  0  8 30 21 28 26 23 06 10 17
  24425477.08602   7783858.11902   6065338.37105  24425477.08605  24425482.78805
  24232860.14802  -6855202.35602  -5341703.58505  24232860.14805  24232867.70305
  22738356.40406   -365106.95906   -284498.68309  22738348.18506  22738351.14306
  22394334.56102 -13844472.23602 -10787888.74105  22394334.56105  22394337.67005
  21401743.41002 -20042845.90302 -15617776.27105  21401743.41005  21401747.43705
  20533786.26402   1070092.73802    833838.51005  20533786.26405  20533789.44705
  25018668.86002   9368957.04602   7300490.86705  25018668.86005  25018673.14505
  20857597.02402 -22443667.75702 -17488556.86405  20857597.02405  20857600.52905
 97  4 25  2  1  0.0000000  0  8 30 21 28 26 23 06 10 17
  24445708.26002   7890175.22002   6148182.81205  24445708.26005  24445712.87505
  24215069.06802  -6948691.79602  -5414552.42705  24215069.06805  24215075.52005
  22721060.78306   -456007.55306   -355330.28309  22721050.41806  22721053.21006
  22390754.54402 -13863286.43802 -10802549.14405  22390754.54405  22390756.75105
  21390628.69302 -20101254.32902 -15663289.30905  21390628.69305  21390632.74505
  20540803.35702   1106968.32302    862572.72105  20540803.35705  20540806.46605
  25038543.54402   9473397.21102   7381872.81805  25038543.54405  25038547.93005
  20853645.35102 -22464434.60902 -17504738.82405  20853645.35105  20853648.87605
 97  4 25  2  1 30.0000000  0  8 30 21 28 26 23 06 10 17
  24465935.98502   7996471.49902   6231011.01405  24465935.98505  24465941.88505
  24197303.71802  -7042048.91802  -5487298.15905  24197303.71805  24197310.02405
  22703791.74406   -546747.50506   -426036.71209  22703783.21506  22703785.91006
  22387274.14202 -13881575.45502 -10816800.30305  22387274.14205  22387277.29205
  21379589.23402 -20159267.23802 -15708494.15005  21379589.23405  21379593.30305
  20547914.54102   1144337.70002    891691.70505  20547914.54105  20547917.68305
  25058422.83202   9577862.25702   7463274.18305  25058422.83205  25058427.04405
  20849724.97002 -22485035.20202 -17520791.22805  20849724.97005  20849728.66405
 97  4 25  2  2  0.0000000  0  8 30 21 28 26 23 06 10 17
  24486156.89402   8102734.15602   6313813.05105  24486156.89405  24486161.72205
  24179565.37602  -7135265.14102  -5559934.12505  24179565.37605  24179569.10805
  22686557.44006   -637316.66906   -496610.06709  22686548.49506  22686551.14906
  22383895.19702 -13899331.79902 -10830636.39505  22383895.19705  22383897.89205
  21368627.78602 -20216869.16602 -15753378.74905  21368627.78605  21368631.95505
  20555120.33502   1182204.16302    921198.02405  20555120.33505  20555123.51705
  25078305.58602   9682347.68802   7544691.42405  25078305.58605  25078310.81005
  20845838.27202 -22505459.98502 -17536706.63705  20845838.27205  20845841.90605
 97  4 25  2  2 30.0000000  0  8 30 21 28 26 23 06 10 17
  24506364.99802   8208929.15002   6396562.35205  24506364.99805  24506370.59405
  24161857.16002  -7228324.23002  -5632447.61205  24161857.16005  24161864.64805
  22669356.01306   -727716.79506   -567051.70409  22669345.90806  22669348.59306
  22380618.76102 -13916550.32302 -10844053.40505  22380618.76105  22380621.93905
  21357743.70502 -20274064.99902 -15797946.90905  21357743.70505  21357747.57005
  20562415.04002   1220538.14502    951068.64705  20562415.04005  20562418.21805
  25098189.38402   9786839.53502   7626113.66505  25098189.38405  25098194.43805
  20841986.53802 -22525701.04502 -17552478.88205  20841986.53805  20841990.22705
 97  4 25  2  3  0.0000000  0  7 30 21 26 23 06 10 17
  24526559.63502   8315050.58902   6479254.30405  24526559.63505  24526564.24705
  24144184.58102  -7321196.84702  -5704815.79705  24144184.58105  24144191.47805
  22377443.51002 -13933235.97202 -10857055.19505  22377443.51005  22377446.67905
  21346939.81502 -20330840.14502 -15842187.26305  21346939.81505  21346943.71705
  20569798.83002   1259340.10602    981303.92605  20569798.83005  20569801.99605
  25118075.56902   9891344.31402   7707545.96105  25118075.56905  25118081.42605
  20838173.56402 -22545738.87402 -17568092.76605  20838173.56405  20838177.03305
 97  4 25  2  3 30.0000000  0  8 30 21 28 26 23 06 10 17
  24546735.74202   8421077.51002   6561872.63605  24546735.74205  24546743.46205
  24126544.86002  -7413891.47002  -5777045.30605  24126544.86005  24126552.24605
  22635049.98416        -0.74116        -0.31019  22635041.23816  22635044.04716
  22374368.31602 -13949396.50102 -10869647.78405  22374368.31605  22374371.20105
  21336212.51702 -20387212.23302 -15886113.54405  21336212.51705  21336216.39805
  20577268.40902   1298592.56102   1011890.23905  20577268.40905  20577271.55505
  25137960.27402   9995838.05102   7788969.70105  25137960.27405  25137965.73505
  20834399.24602 -22565574.05802 -17583548.74205  20834399.24605  20834402.46005
 97  4 25  2  4  0.0000000  0  8 23 30 21 28 26 06 10 17
  21325559.88602 -20443192.21002 -15929734.28105  21325559.88605  21325563.78805
  24566891.80302   8526997.82602   6644407.89905  24566891.80305  24566895.31205
  24108940.86802  -7506398.29602  -5849128.47205  24108940.86805  24108947.12305
  22617948.23006    -89874.80206    -70032.02509  22617938.77106  22617941.47506
  22371397.20502 -13965009.33502 -10881813.60805  22371397.20505  22371400.30405
  20584821.62002   1338285.10102   1042819.47505  20584821.62005  20584824.74305
  25157839.99702  10100304.04302   7870371.79105  25157839.99705  25157847.57305
  20830665.51002 -22585193.20502 -17598836.37705  20830665.51005  20830669.10505
 97  4 25  2  4 30.0000000  0  8 30 21 28 26 23 06 10 17
  24587030.51002   8632827.30002   6726872.37205  24587030.51005  24587035.26105
  24091373.52702  -7598716.38202  -5921064.58905  24091373.52705  24091380.17805
  22600880.40006   -179566.92006   -139921.96809  22600870.90006  22600873.55106
  22368532.55802 -13980062.85802 -10893543.61205  22368532.55805  22368535.61505
  21314981.53802 -20498782.91602 -15973051.69605  21314981.53805  21314985.31605
  20592462.03602   1378435.61702   1074105.57305  20592462.03605  20592465.17805
  25177713.78202  10204741.39602   7951751.55305  25177713.78205  25177718.18405
  20826974.11102 -22604591.39302 -17613951.83605  20826974.11105  20826977.89205
 97  4 25  2  5  0.0000000  0  8 23 30 21 28 26 06 10 17
  21304479.78702 -20553970.10802 -16016054.68505  21304479.78705  21304483.61405
  24607153.21702   8738572.20402   6809270.96105  24607153.21705  24607156.77905
  24073841.08802  -7690850.43202  -5992857.30805  24073841.08805  24073846.36705
  22583849.65706   -269068.19806   -209663.20209  22583839.36506  22583842.06006
  22365776.11202 -13994546.93402 -10904829.88905  22365776.11205  22365779.18005
  20600194.98102   1419071.74502   1105770.07805  20600194.98105  20600198.07205
  25197585.95102  10309170.01102   8033124.48905  25197585.95105  25197589.29705
  20823325.68502 -22623764.10602 -17628891.60005  20823325.68505  20823329.34505
 97  4 25  2  5 30.0000000  0  8 23 30 21 28 26 06 10 17
  21294052.91302 -20608762.67702 -16058750.17105  21294052.91305  21294056.64905
  24627260.87502   8844238.06902   6891607.98905  24627260.87505  24627263.98605
  24056341.52302  -7782810.60602  -6064514.51405  24056341.52305  24056346.28105
  22566851.73506   -358386.85006   -279262.13409  22566842.51306  22566845.22806
  22363128.97402 -14008458.16002 -10915669.78205  22363128.97405  22363132.15805
  20608020.04702   1460192.80602   1137812.45405  20608020.04705  20608023.05105
  25217455.36202  10413584.89002   8114486.78105  25217455.36205  25217459.08605
  20819717.09202 -22642727.69302 -17643668.41405  20819717.09205  20819720.78405
 97  4 25  2  6  0.0000000  0  8 30 21 28 26 23 06 10 17
  24647355.03802   8949835.91802   6973892.00905  24647355.03805  24647360.93705
  24038874.53202  -7874602.82402  -6136040.87205  24038874.53205  24038881.17205
  22549888.91806   -447531.97106   -348725.84709  22549878.76906  22549881.39706
  22360589.36102 -14021804.20302 -10926069.27505  22360589.36105  22360592.51805
  21283701.93602 -20663156.81902 -16101135.19305  21283701.93605  21283705.81205
  20615939.05902   1501807.34002   1170239.34805  20615939.05905  20615942.26305
  25237323.42102  10517991.15902   8195842.33605  25237323.42105  25237327.11305
  20816145.34402 -22661497.17402 -17658293.97305  20816145.34405  20816148.96405
 97  4 25  2  6 30.0000000  0  8 23 30 21 28 26 06 10 17
  21273431.70102 -20717127.77602 -16143190.46405  21273431.70105  21273435.62305
  24667436.92502   9055368.81902   7056125.37505  24667436.92505  24667444.21205
  24021438.85102  -7966228.43202  -6207437.37205  24021438.85105  24021443.20205
  22532960.51606   -536493.34706   -418046.38409  22532950.02306  22532952.60006
  22358156.62802 -14034588.72702 -10936031.22105  22358156.62805  22358159.75205
  20623953.10802   1543921.89202   1203055.86505  20623953.10805  20623956.25905
  25257193.90302  10622412.71702   8277209.81505  25257193.90305  25257193.90305
  20812611.14902 -22680069.36602 -17672765.80405  20812611.14905  20812614.42005
 97  4 25  2  7  0.0000000  0  8 23 30 21 28 26 06 10 17
  21263239.72002 -20770686.11002 -16184924.20805  21263239.72005  21263243.81305
  24687501.24402   9160806.92702   7138284.88005  24687501.24405  24687505.59405
  24004031.48902  -8057704.22002  -6278717.12705  24004031.48905  24004035.96305
  22516063.26606   -625287.56606   -487236.66709  22516053.01706  22516055.71206
  22355826.51202 -14046833.58502 -10945572.64705  22355826.51205  22355829.47205
  20632055.20502   1586499.23202   1236232.99405  20632055.20505  20632058.35005
  25277064.30302  10726833.48902   8358571.55005  25277064.30305  25277064.30305
  20809109.84802 -22698469.97102 -17687103.92705  20809109.84805  20809113.19905
 97  4 25  2  7 30.0000000  0  8 23 30 21 28 26 06 10 17
  21253122.38402 -20823854.06302 -16226353.76305  21253122.38405  21253126.24105
  24707546.94802   9266145.72502   7220367.01505  24707546.94805  24707550.30805
  23986651.35002  -8149035.64102  -6349884.38405  23986651.35005  23986657.76405
  22499195.92106   -713921.52006   -556302.06309  22499186.54606  22499189.30606
  22353595.93102 -14058554.95102 -10954706.16105  22353595.93105  22353598.98205
  20640241.70302   1629518.90002   1269754.80405  20640241.70305  20640244.82305
  25296928.06102  10831220.40702   8439912.00505  25296928.06105  25296928.06105
  20805638.77802 -22716709.72502 -17701316.71405  20805638.77805  20805642.39305
 97  4 25  2  8  0.0000000  0  8 23 30 21 28 26 06 10 17
  21243084.87202 -20876601.19302 -16267455.40005  21243084.87205  21243088.60805
  24727574.44602   9371388.78202   7302374.50905  24727574.44605  24727581.06305
  23969304.27302  -8240194.58802  -6420917.25105  23969304.27305  23969309.40805
  22482367.28506   -802363.02306   -625217.49709  22482356.78206  22482359.44106
  22351471.83202 -14069717.38602 -10963404.13805  22351471.83205  22351474.85205
  20648515.58902   1672998.70302   1303635.15605  20648515.58905  20648518.74705
  25316789.89602  10935597.25602   8521244.61505  25316789.89605  25316789.89605
  20802205.58202 -22734750.57802 -17715374.51605  20802205.58205  20802209.25805
 97  4 25  2  8 30.0000000  0  8 23 30 21 28 26 06 10 17
  21233129.01302 -20928919.20102 -16308222.65505  21233129.01305  21233132.74205
  24747584.73802   9476544.29402   7384313.82305  24747584.73805  24747588.31605
  23951994.33502  -8331156.94302  -6491796.91305  23951994.33505  23952000.08905
  22465578.84206   -890586.54006   -693963.07809  22465568.40006  22465570.99306
  22349459.53402 -14080292.35602 -10971644.36005  22349459.53405  22349462.70005
  20656878.83102   1716948.00702   1337881.35005  20656878.83105  20656882.00005
  25336651.39102  11039971.99102   8602575.57805  25336651.39105  25336651.39105
  20798815.71402 -22752564.60302 -17729255.56805  20798815.71405  20798819.39105
 97  4 25  2  9  0.0000000  4  1
 -2609191.0000 -4570718.0000  3592953.0000                  APPROX POSITION XYZ
 97  4 25  2  9  0.0000000  0  8 23 30 21 28 26 06 10 17
  21223249.87802 -20980834.81902 -16348676.36305  21223249.87805  21223253.60105
  24767579.91602   9581620.39902   7466191.27005  24767579.91605  24767584.25705
  23934723.28602  -8421916.83102  -6562518.83905  23934723.28605  23934729.62105
  22448830.96406   -978592.53906   -762539.16509  22448821.26606  22448823.94706
  22347558.93202 -14090278.82402 -10979425.99405  22347558.93205  22347561.98005
  20665333.16402   1761375.77902   1372500.37605  20665333.16405  20665336.33905
  25356509.88002  11144328.90602   8683897.91705  25356509.88005  25356509.88005
  20795470.31402 -22770145.54202 -17742954.99405  20795470.31405  20795473.81105
 97  4 25  2  9 30.0000000  0  8 23 30 21 28 26 06 10 17
  21213447.51905 -21032346.56305 -16388815.36205  21213447.51905  21213451.38905
  24787563.05302   9686631.57505   7548018.11405  24787563.05302  24787568.38005
  23917492.61302  -8512465.19505  -6633075.94805  23917492.61302  23917499.23805
  22432126.63006  -1066374.28309   -830940.50709  22432116.83106  22432119.57006
  22345770.08602 -14099679.56105 -10986751.22805  22345770.08602  22345773.17505
  20673881.19302   1806295.39705   1407502.66005  20673881.19302  20673884.36405
  25376364.34702  11248665.20605   8765193.66705  25376364.34702  25376364.34705
  20792169.80402 -22787490.01805 -17756470.16105  20792169.80402  20792173.29005
 97  4 25  2 10  0.0000000  0  8 23 30 21 28 26 06 10 17
  21203723.67602 -21083444.50605 -16428631.92005  21203723.67602  21203727.48805
  24807533.92702   9791582.50505   7629798.03705  24807533.92702  24807538.89605
  23900300.95102  -8602807.67105  -6703472.61005  23900300.95102  23900306.13305
  22415465.48706  -1153928.57209   -899164.60809  22415455.77106  22415458.46906
  22344092.43802 -14108494.69505 -10993620.14205  22344092.43802  22344095.53005
  20682523.27202   1851709.67205   1442890.39005  20682523.27202  20682526.38305
  25396216.82702  11352990.09505   8846485.78805  25396216.82702  25396216.82705
  20788912.94002 -22804603.68505 -17769805.47805  20788912.94002  20788916.60005
 97  4 25  2 10 30.0000000  0  8 23 30 21 28 26 06 10 17
  21194069.98202 -21134175.49105 -16468162.53405  21194069.98202  21194073.65005
  24827488.34802   9896441.19305   7711506.05705  24827488.34802  24827492.56705
  23883138.43802  -8692996.27805  -6773749.36705  23883138.43802  23883144.65105
  22398839.82206  -1241297.21409   -967244.04909  22398830.10306  22398832.74306
  22342516.10502 -14116779.06805 -11000075.47705  22342516.10502  22342518.70905
  20691251.98302   1897579.62505   1478633.19405  20691251.98302  20691255.14805
  25416057.19402  11457251.61305   8927728.53005  25416057.19402  25416057.19405
  20785688.76402 -22821546.91605 -17783007.98705  20785688.76402  20785692.46105
 97  4 25  2 11  0.0000000  0  8 23 30 21 28 26 06 10 17
  21184479.60502 -21184573.20605 -16507433.46005  21184479.60502  21184483.22705
  24847414.87302  10001151.12605   7793098.17605  24847414.87302  24847418.64105
  23865995.61802  -8783081.66005  -6843945.69505  23865995.61802  23866001.00405
  22382240.01006  -1328529.73109  -1035217.42209  22382230.30706  22382232.98706
  22341030.62502 -14124585.86705 -11006158.68105  22341030.62502  22341033.79705
  20700058.63202   1943858.21805   1514694.41905  20700058.63202  20700061.68705
  25435876.97602  11561404.21205   9008886.39905  25435876.97602  25435876.97605
  20782485.60802 -22838380.24705 -17796124.85905  20782485.60802  20782488.92405
 97  4 25  2 11 30.0000000  0  8 23 30 21 28 26 06 10 17
  21174957.36102 -21234612.80005 -16546425.33005  21174957.36102  21174961.10505
  24867309.60402  10105698.22705   7874563.41905  24867309.60402  24867312.24705
  23848872.02002  -8873065.90905  -6914063.23005  23848872.02002  23848877.23505
  22365668.10506  -1415621.52909  -1103081.14009  22365657.29206  22365660.07806
  22339636.34702 -14131913.30705 -11011868.35605  22339636.34702  22339639.28405
  20708940.49802   1990532.79105   1551064.20005  20708940.49802  20708943.68505
  25455678.95302  11665457.88405   9089967.18205  25455678.95302  25455678.95305
  20779302.15502 -22855109.86505 -17809160.91805  20779302.15502  20779305.45505
 97  4 25  2 12  0.0000000  0  8 23 30 21 28 26 06 10 17
  21165524.51402 -21284182.84405 -16585051.31305  21165524.51402  21165528.31705
  24887192.41402  10210181.68905   7955979.06205  24887192.41402  24887197.54205
  23831789.91702  -8962833.12605  -6984011.64305  23831789.91702  23831796.93705
  22349143.67906  -1502455.65709  -1170744.07509  22349133.26706  22349136.07106
  22338357.22702 -14138632.74105 -11017104.25505  22338357.22702  22338360.27005
  20717919.24702   2037716.89805   1587831.01905  20717919.24702  20717922.44905
  25475486.54902  11769541.62105   9171071.39305  25475486.54902  25475486.54905
  20776160.91102 -22871616.24805 -17822023.02805  20776160.91102  20776164.43405
 97  4 25  2 12 30.0000000  0  8 23 30 21 28 26 06 10 17
  21156193.16602 -21333219.07705 -16623261.34305  21156193.16602  21156197.08705
  24907070.57802  10314641.76605   8037376.45405  24907070.57802  24907074.26805
  23814763.76702  -9052305.24005  -7053730.09805  23814763.76702  23814769.94605
  22332681.70006  -1588964.10009  -1238153.22509  22332671.23006  22332673.95806
  22337209.77802 -14144664.04405 -11021803.95705  22337209.77802  22337212.52405
  20727006.77902   2085472.89005   1625043.46705  20727006.77902  20727009.98405
  25495307.08002  11873721.46105   9252250.48905  25495307.08002  25495307.08005
  20773075.18202 -22887831.58205 -17834658.34505  20773075.18202  20773078.85005
 97  4 25  2 13  0.0000000  0  7 23 30 21 28 26 06 17
  21146936.67302 -21381862.11205 -16661164.98605  21146936.67302  21146940.47705
  24926918.14502  10418935.87005   8118644.55905  24926918.14502  24926918.14505
  23797767.02102  -9141623.74705  -7123328.86305  23797767.02102  23797771.68105
  22316253.80006  -1675291.59509  -1305421.37309  22316243.60506  22316246.27706
  22336165.47102 -14150151.14405 -11026079.60105  22336165.47102  22336168.76305
  20736173.88602   2133646.57905   1662581.39305  20736173.88602  20736177.24105
  20770019.37202 -22903890.83005 -17847172.03405  20770019.37202  20770022.88305
 97  4 25  2 13 30.0000000  0  8 23 30 21 28 26 06 22 17
  21137764.10502 -21430064.00705 -16698724.88405  21137764.10502  21137767.84105
  24946740.95802  10522649.15005   8199466.87005  24946740.95802  24946740.95805
  23780812.40702  -9230721.68005  -7192755.78005  23780812.40702  23780818.30705
  22299872.70306  -1761377.02809  -1372500.90309  22299862.09406  22299864.70406
  22335234.45802 -14155043.67405 -11029891.94705  22335234.45802  22335237.50305
  20745430.74302   2182290.70505   1700485.89205  20745430.74302  20745433.89805
  23165031.78212         0.21715         0.88515  23165031.78212  23165036.99215
  20767006.39402 -22919723.60105 -17859509.24705  20767006.39402  20767009.91105
 97  4 25  2 14  0.0000000  0  7 23 21 28 26 22 06 17
  21128677.38802 -21477815.31405 -16735933.67205  21128677.38802  21128681.00105
  23763901.79402  -9319588.59205  -7262002.66105  23763901.79402  23763906.34105
  22283539.93106  -1847206.33009  -1439380.85809  22283529.43006  22283531.88106
  22334420.81902 -14159318.97705 -11033223.33005  22334420.81902  22334424.00505
  23163870.66702     -6102.01105     -4754.10805  23163870.66702  23163874.32705
  20754781.79602   2231430.99905   1738777.01905  20754781.79602  20754785.04005
  20764038.76202 -22935318.81305 -17871661.35205  20764038.76202  20764042.12705
 97  4 25  2 14 30.0000000  0  7 23 21 28 26 22 06 17
  21119665.36502 -21525173.91505 -16772836.45805  21119665.36502  21119669.07805
  23747022.66702  -9408289.42305  -7331120.13005  23747022.66702  23747028.47905
  22267243.57206  -1932838.24709  -1506107.00609  22267234.15306  22267236.64306
  22333713.13102 -14163039.34905 -11036122.31205  22333713.13102  22333715.75405
  23162799.89502    -11725.48505     -9136.03505  23162799.89502  23162804.83905
  20764215.65102   2281006.90005   1777407.57605  20764215.65102  20764218.89505
  20761106.00902 -22950730.22505 -17883670.23005  20761106.00902  20761109.48105
 97  4 25  2 15  0.0000000  0  7 23 21 28 26 22 06 17
  21110727.69702 -21572140.64705 -16809433.88705  21110727.69702  21110731.72705
  23730175.79702  -9496819.64805  -7400104.64805  23730175.79702  23730180.84705
  22250988.29006  -2018263.58009  -1572672.17709  22250978.18606  22250980.79106
  22333109.70502 -14166209.90005 -11038592.85505  22333109.70502  22333112.90305
  23161823.70002    -16856.65705    -13134.35005  23161823.70002  23161827.65505
  20773736.32602   2331036.85905   1816391.94505  20773736.32602  20773739.50505
  20758210.84802 -22965943.47905 -17895524.70005  20758210.84802  20758214.47405
 97  4 25  2 15 30.0000000  0  7 23 21 28 26 06 22 17
  21101877.37002 -21618648.63505 -16845673.85805  21101877.37002  21101881.22405
  23713375.57502  -9585103.97105  -7468897.56105  23713375.57502  23713381.62905
  22234785.92106  -2103407.66009  -1639018.19009  22234775.76206  22234778.44306
  22332626.22602 -14168750.40605 -11040572.45405  22332626.22602  22332629.53805
  20783359.68402   2381608.12705   1855798.11305  20783359.68402  20783362.86805
  23160956.17302    -21417.31905    -16688.10805  23160956.17302  23160960.35005
  20755367.47202 -22980885.92805 -17907168.15405  20755367.47202  20755371.00805
 97  4 25  2 16  0.0000000  0  8 23 30 21 28 26 06 22 17
  21093102.26202 -21664763.48905 -16881607.48805  21093102.26202  21093105.98405
  25045529.07512        -0.34015        -0.02715  25045529.07512  25045529.07515
  23696607.65002  -9673217.35905  -7537557.28105  23696607.65002  23696614.04605
  22218624.46506  -2188336.88709  -1705196.78609  22218614.25306  22218616.95006
  22332252.13502 -14170715.35005 -11042103.56405  22332252.13502  22332255.33105
  20793074.45702   2432660.15505   1895578.89705  20793074.45702  20793077.67605
  23160184.66002    -25469.53705    -19845.69205  23160184.66002  23160189.21505
  20752559.59702 -22995642.34805 -17918666.65205  20752559.59702  20752562.89005
 97  4 25  2 16 30.0000000  0  8 23 30 21 28 26 06 22 17
  21084400.28502 -21710492.58605 -16917240.53105  21084400.28502  21084403.82205
  25065201.93702    103382.14105     80557.67205  25065201.93702  25065204.79405
  23679875.82302  -9761144.33605  -7606071.75505  23679875.82302  23679881.89105
  22202505.29506  -2273042.98509  -1771201.51609  22202495.23706  22202497.87306
  22331987.58202 -14172106.48205 -11043187.56105  22331987.58202  22331990.62405
  20802881.51402   2484196.02405   1935736.70405  20802881.51402  20802884.73105
  23159512.70302    -29002.01205    -22598.28305  23159512.70302  23159515.88805
  20749787.37902 -23010209.84405 -17930017.93805  20749787.37902  20749790.73705
 97  4 25  2 17  0.0000000  0  8 23 30 21 28 26 06 22 17
  21075771.19202 -21755838.26005 -16952574.80005  21075771.19202  21075774.90305
  25084846.61502    206615.53805    160999.26505  25084846.61502  25084846.61505
  23663180.09802  -9848881.91205  -7674438.61905  23663180.09802  23663185.24705
  22186427.35206  -2357531.82309  -1837036.95609  22186417.49206  22186420.06506
  22331829.72202 -14172934.88805 -11043833.05505  22331829.72202  22331832.77505
  20812779.53402   2536210.96705   1976267.81705  20812779.53402  20812782.70605
  23158938.98502    -32020.11405    -24950.06305  23158938.98502  23158942.31205
  20747046.11102 -23024615.21605 -17941242.89305  20747046.11102  20747049.71005
 97  4 25  2 17 30.0000000  0  8 23 30 21 28 26 06 22 17
  21067218.93902 -21800780.59405 -16987594.77805  21067218.93902  21067222.67605
  25104468.49002    309728.12005    241346.68605  25104468.49002  25104471.58405
  23646522.54302  -9936417.06005  -7742647.76705  23646522.54302  23646527.80005
  22170394.98306  -2441787.66009  -1902690.83809  22170384.14006  22170386.76006
  22331782.86102 -14173181.73205 -11044025.38105  22331782.86102  22331785.86405
  20822768.29702   2588702.19005   2017170.05805  20822768.29702  20822771.48005
  23158464.11102    -34512.28905    -26892.03705  23158464.11102  23158467.54905
  20744336.00402 -23038857.17005 -17952340.51105  20744336.00402  20744339.57005
 97  4 25  2 18  0.0000000  0  8 23 30 21 28 26 06 22 17
  21058745.62902 -21845309.00105 -17022292.21605  21058745.62902  21058749.39405
  25124072.09002    412746.86205    321621.00505  25124072.09002  25124077.50305
  23629906.89002 -10023734.80805  -7810687.50705  23629906.89002  23629912.90205
  22154408.58006  -2525791.65409  -1968148.47909  22154398.66406  22154401.36706
  22331848.30302 -14172838.17405 -11043757.65605  22331848.30302  22331851.31105
  20832846.89702   2641665.86705   2058440.44005  20832846.89702  20832850.11005
  23158094.63102    -36449.04705    -28401.21105  23158094.63102  23158098.99805
  20741659.28702 -23052923.64505 -17963301.39505  20741659.28702  20741662.92105
 97  4 25  2 18 30.0000000  0  8 23 30 21 28 26 06 22 17
  21050346.63202 -21889445.37505 -17056684.17505  21050346.63202  21050350.27705
  25143655.06605    515652.13605    401806.83105  25143655.06602  25143658.60405
  23613329.38305 -10110850.10205  -7878569.50705  23613329.38302  23613334.53405
  22138468.18809  -2609559.33009  -2033421.97809  22138458.24606  22138460.87806
  22332021.10505 -14171930.12405 -11043050.06505  22332021.10502  22332024.20105
  20843009.12705   2695067.95805   2100052.44205  20843009.12702  20843012.33805
  23157827.31505    -37859.00505    -29499.89505  23157827.31502  23157830.84505
  20739017.03405 -23066808.79505 -17974120.98705  20739017.03402  20739020.41905
 97  4 25  2 19  0.0000000  0  8 23 30 21 28 26 06 22 17
  21042025.29405 -21933174.50405 -17090758.79805  21042025.29402  21042028.98705
  25163212.52005    618427.46805    481891.48205  25163212.52002  25163217.04805
  23596791.29905 -10197757.34105  -7946289.38305  23596791.29902  23596796.13505
  22122574.19109  -2693086.63209  -2098508.17509  22122563.57106  22122566.13106
  22332301.27805 -14170457.76905 -11041902.76505  22332301.27802  22332304.09505
  20853252.23505   2748895.48005   2141995.95205  20853252.23502  20853255.32305
  23157657.02505    -38756.61305    -30199.33905  23157657.02502  23157661.17705
  20736411.46005 -23080500.54305 -17984789.87705  20736411.46002  20736414.88005
 97  4 25  2 19 30.0000000  0  8 23 30 21 28 26 06 22 17
  21033779.98905 -21976504.12905 -17124522.12205  21033779.98902  21033783.63105
  25182740.31405    721045.80505    561853.73905  25182740.31402  25182744.23805
  23580290.58605 -10284467.02105  -8013855.32305  23580290.58602  23580294.40605
  22106725.55809  -2776370.82409  -2163404.93609  22106715.05806  22106717.66906
  22332686.91405 -14168430.29805 -11040322.90105  22332686.91402  22332690.18605
  20863574.86405   2803141.34605   2184265.44905  20863574.86402  20863577.94905
  23157582.71705    -39143.32305    -30500.68805  23157582.71702  23157586.76505
  20733846.00805 -23093981.79105 -17995294.74005  20733846.00802  20733849.41105
 97  4 25  2 20  0.0000000  0  8 23 30 21 28 26 06 22 17
  21025612.32005 -22019424.33405 -17157966.41705  21025612.32002  21025616.39005
  25202235.94005    823499.21005    641687.57705  25202235.94002  25202235.94005
  23563828.66805 -10370975.12005  -8081264.17705  23563828.66802  23563834.66705
  22090925.69909  -2859400.88009  -2228103.67409  22090914.95406  22090917.61706
  22333179.98205 -14165839.19805 -11038303.85505  22333179.98202  22333182.88405
  20873981.05905   2857826.27305   2226877.05905  20873981.05902  20873984.25305
  23157606.31105    -39021.44805    -30405.71105  23157606.31102  23157610.26405
  20731322.60405 -23107243.61705 -18005628.62605  20731322.60402  20731325.82105
 97  4 25  2 20 30.0000000  0  8 30 21 28 26 23 06 22 17
  25221696.54705    925771.83905    721380.46005  25221696.54702  25221696.54705
  23547404.96505 -10457282.34105  -8148516.51305  23547404.96502  23547409.48905
  22075172.50209  -2942186.37109  -2292611.83909  22075161.35606  22075164.10806
  22333779.12605 -14162691.40205 -11035851.01505  22333779.12602  22333782.10405
  21017521.56105 -22061941.64905 -17191096.77105  21017521.56102  21017525.35705
  20884472.11905   2912957.23305   2269836.22505  20884472.11902  20884475.28505
  23157719.09705    -38430.84705    -29945.52105  23157719.09702  23157722.45405
  20728837.42005 -23120303.01205 -18015804.77305  20728837.42002  20728840.79605
 97  4 25  2 21  0.0000000  0  8 30 21 28 26 23 06 22 17
  25241126.41605   1027874.94905    800941.51805  25241126.41602  25241126.41605
  23531021.50505 -10543378.46005  -8215604.35005  23531021.50502  23531026.47305
  22059467.61509  -3024717.60509  -2356921.88409  22059456.24306  22059458.85306
  22334484.59805 -14158983.27605 -11032961.55105  22334484.59802  22334487.67105
  21009510.82505 -22104038.78205 -17223899.71405  21009510.82502  21009514.40805
  20895052.62205   2968558.78405   2313162.08905  20895052.62202  20895055.73705
  23157922.79505    -37356.52205    -29108.40005  23157922.79502  23157926.00705
  20726387.22805 -23133177.96005 -18025837.19805  20726387.22802  20726390.89705
 97  4 25  2 21 30.0000000  0  8 30 21 28 26 23 06 22 17
  25260527.54105   1129824.06305    880382.38705  25260527.54102  25260527.54105
  23514675.18605 -10629279.86605  -8282540.47305  23514675.18602  23514680.45505
  22043809.97009  -3106992.68609  -2421032.33409  22043799.84106  22043802.33906
  22335297.70605 -14154710.84405 -11029632.36405  22335297.70602  22335300.32805
  21001578.63205 -22145722.09605 -17256380.19705  21001578.63202  21001582.19705
  20905724.89605   3024640.28705   2356861.94905  20905724.89602  20905728.02505
  23158220.02105    -35794.86305    -27891.54305  23158220.02102  23158224.59605
  20723972.53105 -23145867.27005 -18035724.97005  20723972.53102  20723975.95005
 97  4 25  2 22  0.0000000  0  8 30 21 28 26 23 06 22 17
  25279901.60705   1231629.93905    959711.64105  25279901.60702  25279901.60705
  23498369.06005 -10714966.87205  -8349309.51605  23498369.06002  23498373.26605
  22028205.75909  -3188998.84009  -2484933.22909  22028194.54806  22028197.12306
  22336223.51205 -14149844.46605 -11025840.36505  22336223.51202  22336226.73105
  20993728.70205 -22186973.56205 -17288524.17305  20993728.70202  20993732.19505
  20916489.50205   3081209.97105   2400942.20005  20916489.50202  20916492.78805
  23158612.20305    -33737.43305    -26288.35805  23158612.20302  23158615.84105
  20721594.21405 -23158365.48005 -18045463.83005  20721594.21402  20721597.73605
 97  4 25  2 22 30.0000000  0  7 21 28 26 22 23 06 17
  23482108.44705 -10800417.75205  -8415894.57005  23482108.44702  23482113.76305
  22012655.38009  -3270720.70309  -2548612.59209  22012643.32906  22012646.00906
  22337265.15805 -14144371.66805 -11021575.82205  22337265.15802  22337268.32105
  23159102.50405    -31159.09805    -24279.28105  23159102.50402  23159106.82205
  20985964.74605 -22227773.63805 -17320316.42005  20985964.74602  20985968.19205
  20927348.42905   3138273.65505   2445407.39205  20927348.42902  20927351.61405
  20719257.87305 -23170642.91305 -18055030.65705  20719257.87302  20719261.38805
 97  4 25  2 23  0.0000000  0  7 21 28 26 22 23 06 17
  23465887.84205 -10885655.54905  -8482313.57505  23465887.84202  23465893.28005
  21997157.93809  -3352161.84709  -2612073.21109  21997145.64206  21997148.23406
  22338419.68605 -14138303.66605 -11016847.50005  22338419.68602  22338422.68805
  23159695.47205    -28041.39205    -21849.89705  23159695.47202  23159699.94005
  20978286.32005 -22268124.23005 -17351758.42005  20978286.32002  20978289.87005
  20938296.30705   3195804.39005   2490236.52705  20938296.30702  20938299.43705
  20716965.42305 -23182690.31505 -18064418.23705  20716965.42302  20716968.87905
 97  4 25  2 23 30.0000000  0  7 21 28 26 22 23 06 17
  23449708.82405 -10970677.65605  -8548564.51405  23449708.82402  23449714.74505
  21981713.62209  -3433318.78609  -2675312.37209  21981701.95506  21981704.49206
  22339688.93405 -14131634.87305 -11011651.01905  22339688.93402  22339691.99305
  23160391.93205    -24382.13005    -18998.52405  23160391.93202  23160395.97405
  20970691.82505 -22308032.97005 -17382856.12005  20970691.82502  20970695.39205
  20949330.58705   3253790.30805   2535420.34205  20949330.58702  20949333.78105
  20714719.91505 -23194490.89405 -18073613.48705  20714719.91502  20714723.27105
 97  4 25  2 24  0.0000000  0  7 21 28 26 22 23 06 17
  23433575.51405 -11055461.56805  -8614629.84905  23433575.51402  23433579.67205
  21966322.38209  -3514193.05609  -2738331.27109  21966311.99406  21966314.57606
  22341070.75705 -14124372.01605 -11005991.63705  22341070.75702  22341073.88005
  23161191.27205    -20183.14905    -15726.59705  23161191.27202  23161195.60705
  20963181.54305 -22347499.82805 -17413609.49405  20963181.54302  20963185.10305
  20960449.56105   3312220.92905   2580950.67305  20960449.56102  20960452.74005
  20712517.17005 -23206065.83405 -18082632.91105  20712517.17002  20712520.64905
 97  4 25  2 24 30.0000000  0  7 21 28 26 22 23 06 17
  23417484.05505 -11140022.74005  -8680521.62405  23417484.05502  23417488.99505
  21950984.09109  -3594795.86409  -2801138.63509  21950973.77806  21950976.38106
  22342561.46405 -14116539.82305 -10999888.61805  22342561.46402  22342563.81905
  23162088.51505    -15467.96205    -12052.43205  23162088.51502  23162091.91405
  20955751.48305 -22386545.73705 -17444034.85705  20955751.48302  20955754.99905
  20971651.24705   3371084.89805   2626818.68505  20971651.24702  20971654.31505
  20710354.31405 -23217431.91805 -18091489.59405  20710354.31402  20710357.65905
 97  4 25  2 25  0.0000000  0  7 21 28 26 06 22 23 17
  23401436.24605 -11224353.73705  -8746234.02805  23401436.24602  23401441.30705
  21935699.71009  -3675117.93609  -2863727.24409  21935689.04006  21935691.52706
  22344160.33905 -14108137.29205 -10993341.17605  22344160.33902  22344162.99605
  20982935.52405   3430385.27005   2673026.75405  20982935.52402  20982938.74605
  23163081.95905    -10245.84205     -7983.25905  23163081.95902  23163086.45605
  20948399.27405 -22425180.69705 -17474139.99905  20948399.27402  20948403.03505
  20708227.74105 -23228607.13205 -18100197.54705  20708227.74102  20708230.95505
 97  4 25  2 25 30.0000000  0  7 21 28 26 06 22 23 17
  23385436.79905 -11308429.17905  -8811747.29405  23385436.79902  23385442.19605
  21920472.93109  -3755139.70409  -2926081.85009  21920461.50606  21920463.81806
  22345871.64005 -14099144.71605 -10986333.95705  22345871.64002  22345874.04305
  20994309.39005   3490156.56605   2719601.77305  20994309.39002  20994312.71405
  23164171.57305     -4521.36905     -3522.63805  23164171.57302  23164175.21805
  20941125.61505 -22463404.04405 -17503924.40405  20941125.61502  20941129.36505
  20706136.77405 -23239594.77005 -18108759.33505  20706136.77402  20706140.14305
 97  4 25  2 26  0.0000000  0  7 21 28 26 06 22 23 17
  23369484.08805 -11392259.32405  -8877069.41105  23369484.08802  23369490.05805
  21905302.18509  -3834858.28909  -2988200.21209  21905291.55706  21905293.91806
  22347696.48305 -14089555.04905 -10978861.47705  22347696.48302  22347699.21905
  21005774.97405   3550407.30505   2766550.38705  21005774.97402  21005778.18705
  23165355.73405      1703.58405      1327.95705  23165355.73402  23165359.16705
  20933929.51505 -22501219.78305 -17533391.19205  20933929.51502  20933933.12205
  20704080.76705 -23250399.76705 -18117178.80005  20704080.76702  20704084.08505
 97  4 25  2 26 30.0000000  0  7 21 28 26 06 22 23 17
  23353573.61805 -11475868.35705  -8942219.24605  23353573.61802  23353579.14805
  21890189.38909  -3914274.82909  -3050083.21109  21890179.00006  21890181.56606
  22349636.04505 -14079361.67305 -10970918.56905  22349636.04502  22349638.68505
  21017330.23205   3611130.86205   2813867.42905  21017330.23202  21017333.43805
  23166635.95905      8431.57305      6570.53805  23166635.95902  23166639.58205
  20926808.38505 -22538641.35905 -17562550.84105  20926808.38502  20926812.17405
  20702061.66705 -23261009.76005 -18125446.32205  20702061.66702  20702065.03405
 97  4 25  2 27  0.0000000  0  7 21 28 26 06 22 23 17
  23337702.34505 -11559273.44805  -9007210.16005  23337702.34502  23337708.27305
  21875132.50109  -3993403.38009  -3111741.80509  21875121.29506  21875123.85906
  22351687.34505 -14068581.46905 -10962518.39505  22351687.34502  22351690.24305
  21028972.08405   3672309.70305   2861539.23805  21028972.08402  21028975.27305
  23168015.19605     15676.77905     12216.14405  23168015.19602  23168020.08305
  20919760.50405 -22575678.24605 -17591410.73305  20919760.50402  20919764.01305
  20700077.68105 -23271435.52705 -18133570.28905  20700077.68102  20700081.03505
 97  4 25  2 27 30.0000000  0  7 21 28 26 06 22 23 17
  23321869.30705 -11642476.68005  -9072043.78805  23321869.30702  23321874.21705
  21860129.65009  -4072244.76409  -3173176.63409  21860118.27806  21860120.79406
  22353852.83305 -14057202.42305 -10953651.58605  22353852.83302  22353855.99705
  21040701.62305   3733948.08505   2909569.13005  21040701.62302  21040704.83905
  23169495.92705     23456.39905     18278.16505  23169495.92702  23169500.49005
  20912787.49705 -22612321.60605 -17619963.98005  20912787.49702  20912791.09005
  20698132.44805 -23281658.02705 -18141535.86505  20698132.44802  20698135.76605
 97  4 25  2 28  0.0000000  0  7 21 28 26 06 22 23 17
  23306070.36605 -11725501.23005  -9136738.18105  23306070.36602  23306075.46005
  21845176.41909  -4150824.18109  -3234407.33109  21845165.13406  21845167.59806
  22356129.37205 -14045238.37405 -10944328.93905  22356129.37202  22356132.49605
  21052509.35205   3795998.63105   2957920.19005  21052509.35202  21052512.59205
  23171074.09105     31749.62505     24740.40605  23171074.09102  23171078.30205
  20905886.88205 -22648585.00305 -17648221.15105  20905886.88202  20905890.59405
  20696222.68705 -23291693.61405 -18149355.79605  20696222.68702  20696226.22905
 97  4 25  2 28 30.0000000  0  7 21 28 26 06 22 23 17
  23290307.30705 -11808338.33605  -9201286.50905  23290307.30702  23290312.16505
  21830271.94709  -4229146.45209  -3295437.65709  21830260.96506  21830263.26906
  22358513.66505 -14032707.93805 -10934564.94405  22358513.66502  22358516.71005
  21064393.52305   3858449.66205   3006583.31305  21064393.52302  21064396.83805
  23172744.88205     40532.27605     31584.01405  23172744.88202  23172748.97405
  20899058.67805 -22684466.44205 -17676180.69205  20899058.67802  20899062.25905
  20694347.37405 -23301548.08805 -18157034.59905  20694347.37402  20694350.87305
 97  4 25  2 29  0.0000000  0  7 21 28 26 06 22 23 17
  23274579.72805 -11890984.99105  -9265686.43005  23274579.72802  23274584.59005
  21815415.64909  -4307216.41509  -3356271.38309  21815404.68306  21815407.01106
  22361002.28805 -14019631.60605 -10924375.57505  22361002.28802  22361005.45005
  21076354.29605   3921303.69205   3055560.46605  21076354.29602  21076357.58105
  23174504.27705     49778.29705     38788.69505  23174504.27702  23174509.21205
  20892303.20805 -22719966.76405 -17703843.26005  20892303.20802  20892306.89505
  20692502.46205 -23311243.71005 -18164589.62205  20692502.46202  20692505.80105
 97  4 25  2 29 30.0000000  0  7 21 28 26 06 22 23 17
  23258890.37405 -11973431.45505  -9329930.36105  23258890.37402  23258894.93805
  21800610.84209  -4385015.86909  -3416894.31809  21800599.84506  21800602.33206
  22363598.86705 -14005986.15205 -10913742.73505  22363598.86702  22363601.78105
  21088393.20005   3984569.05505   3104858.13505  21088393.20002  21088396.60605
  23176347.57605     59464.57305     46336.44305  23176347.57602  23176351.69405
  20885622.82405 -22755072.86405 -17731198.64205  20885622.82402  20885626.22705
  20690689.39705 -23320771.17105 -18172013.61005  20690689.39702  20690692.87905
 97  4 25  2 30  0.0000000  0  7 21 28 26 06 22 23 17
  23243240.39905 -12055673.18105  -9394014.76305  23243240.39902  23243245.06905
  21785860.50709  -4462532.66009  -3477296.99609  21785848.81806  21785851.41306
  22366301.31705 -13991782.81405 -10902675.18205  22366301.31702  22366304.51205
  21100510.54205   4048245.44405   3154476.07805  21100510.54202  21100513.76005
  23178273.29005     69584.77505     54222.30905  23178273.29002  23178277.69605
  20879020.60905 -22789767.14005 -17758233.11905  20879020.60902  20879024.11505
  20688907.41005 -23330135.44005 -18179310.44005  20688907.41002  20688910.82405
 97  4 25  2 30 30.0000000  0  7 21 28 26 06 22 23 17
  23227632.41905 -12137692.32405  -9457925.73205  23227632.41902  23227636.56905
  21771166.80709  -4539743.98209  -3537461.64809  21771155.95106  21771158.60906
  22369109.63905 -13977026.51905 -10891176.75605  22369109.63902  22369112.38005
  21112712.88005   4112370.19805   3204443.40305  21112712.88002  21112716.31605
  23180286.55005     80163.57005     62465.51105  23180286.55002  23180290.15305
  20872502.80505 -22824019.08005 -17784922.92005  20872502.80502  20872506.23505
  20687160.35905 -23339316.46005 -18186464.47405  20687160.35902  20687163.62005
 97  4 25  2 31  0.0000000  0  7 21 28 26 06 22 23 17
  23212069.60905 -12219476.35205  -9521653.48505  23212069.60902  23212075.53905
  21756537.69809  -4616617.59509  -3597363.15109  21756527.46606  21756530.07506
  22372029.19205 -13961684.13105 -10879221.63505  22372029.19202  22372031.83105
  21125005.31505   4176967.29905   3254778.78905  21125005.31502  21125008.62305
  23182395.96605     91248.36605     71102.99805  23182395.96602  23182399.70205
  20866075.17805 -22857796.34205 -17811242.84705  20866075.17802  20866078.60305
  20685455.47105 -23348275.27905 -18193445.36505  20685455.47102  20685458.89705
 97  4 25  2 31 30.0000000  0  7 21 28 26 06 22 23 17
  23196552.38205 -12301022.10705  -9585195.57805  23196552.38202  23196557.77805
  21741972.54509  -4693157.46209  -3657004.59709  21741962.34006  21741965.00206
  22375059.21405 -13945762.12305 -10866814.86405  22375059.21402  22375062.02505
  21137385.04005   4242022.10705   3305470.82805  21137385.04002  21137388.25205
  23184601.73505    102838.51005     80134.25405  23184601.73502  23184605.86905
  20859735.97005 -22891108.95005 -17837200.70205  20859735.97002  20859739.54005
  20683795.29805 -23356999.52405 -18200243.47505  20683795.29802  20683798.68205
 97  4 25  2 32  0.0000000  0  7 21 28 26 06 22 23 17
  23181083.75005 -12382310.24405  -9648536.92405  23181083.75002  23181089.05305
  21727473.01309  -4769354.68909  -3716379.04909  21727462.48306  21727465.05506
  22378199.08405 -13929260.81705 -10853956.69305  22378199.08402  22378202.11205
  21149854.05905   4307547.02705   3356529.19205  21149854.05902  21149857.15105
  23186907.50605    114954.79605     89575.51705  23186907.50602  23186911.98905
  20853485.43305 -22923955.01305 -17862795.01505  20853485.43302  20853488.97105
  20682181.16205 -23365481.99205 -18206853.18105  20682181.16202  20682184.56505
 97  4 25  2 32 30.0000000  0  7 21 28 26 06 22 23 17
  23165664.91805 -12463335.67405  -9711673.57705  23165664.91802  23165670.00105
  21713039.01609  -4845208.17209  -3775485.64909  21713028.14406  21713030.59406
  22381452.91205 -13912162.35705 -10840633.20805  22381452.91202  22381455.98705
  21162411.07505   4373535.09905   3407948.45405  21162411.07502  21162414.53605
  23189313.62805    127599.79405     99428.74105  23189313.62802  23189317.09205
  20847318.34505 -22956364.40605 -17888049.06605  20847318.34502  20847321.77905
  20680615.89405 -23373707.27205 -18213262.47905  20680615.89402  20680619.28205
 97  4 25  2 33  0.0000000  0  7 21 28 26 23 06 22 17
  23150297.81105 -12544088.72705  -9774597.98105  23150297.81102  23150302.94405
  21698670.54809  -4920714.99709  -3834322.12609  21698659.58806  21698662.06606
  22384826.14705 -13894435.69905 -10826820.20805  22384826.14702  22384828.94905
  20841229.49705 -22988360.26705 -17912980.88405  20841229.49702  20841233.12905
  21175053.92605   4439973.55205   3459718.65805  21175053.92602  21175057.23205
  23191819.10805    140767.45605    109689.24305  23191819.10802  23191823.41705
  20679099.39905 -23381676.73305 -18219472.44105  20679099.39902  20679102.76005
 97  4 25  2 33 30.0000000  0  7 21 28 26 06 22 23 17
  23134983.20805 -12624566.16305  -9837307.60905  23134983.20802  23134988.60305
  21684366.66609  -4995881.05509  -3892893.06709  21684355.96406  21684358.42906
  22388318.18305 -13876084.12805 -10812520.28005  22388318.18302  22388321.04005
  21187782.90205   4506864.27505   3511841.28305  21187782.90202  21187786.10205
  23194421.34405    154443.68305    120346.03605  23194421.34402  23194425.36105
  20835215.65205 -23019962.61105 -17937606.06705  20835215.65202  20835219.19005
  20677626.21605 -23389418.18205 -18225504.73505  20677626.21602  20677629.70805
 97  4 25  2 34  0.0000000  0  7 21 28 26 06 22 23 17
  23119712.37505 -12704814.05705  -9899838.37605  23119712.37502  23119717.96405
  21670123.36309  -5070725.80009  -3951213.64109  21670113.57106  21670115.99606
  22391925.68805 -13857126.44005 -10797748.04005  22391925.68802  22391928.62205
  21200596.39905   4574198.84305   3564309.75605  21200596.39902  21200599.58905
  23197118.25105    168614.90705    131388.53005  23197118.25102  23197122.47205
  20829273.07905 -23051192.03405 -17961940.66305  20829273.07902  20829276.67405
  20676188.94005 -23396971.24505 -18231390.23905  20676188.94002  20676192.47505
 97  4 25  2 34 30.0000000  0  7 21 28 26 06 22 23 17
  23104484.15705 -12784839.87105  -9962196.08805  23104484.15702  23104488.30005
  21655943.16509  -5145249.87309  -4009284.33809  21655932.18106  21655934.57806
  22395649.16505 -13837560.61105 -10782501.93205  22395649.16502  22395652.20605
  21213494.65305   4641979.93905   3617126.18005  21213494.65302  21213497.83705
  23199907.93605    183273.80405    142811.02905  23199907.93602  23199911.41405
  20823401.49505 -23082047.34905 -17985983.74505  20823401.49502  20823404.98805
  20674786.02805 -23404344.09805 -18237135.31605  20674786.02802  20674789.58505
 97  4 25  2 35  0.0000000  0  7 21 28 26 23 06 22 17
  23089295.63405 -12864657.08705 -10024391.26505  23089295.63402  23089300.38105
  21641820.96709  -5219462.00409  -4067111.96209  21641810.02406  21641812.43906
  22399482.38605 -13817417.15005 -10766805.71105  22399482.38602  22399485.42405
  20817604.20605 -23112511.75605 -18009722.21905  20817604.20602  20817607.76405
  21226478.73105   4710212.68105   3670294.54105  21226478.73102  21226482.18005
  23202786.74705    198402.97205    154599.97305  23202786.74702  23202791.22905
  20673410.88605 -23411570.00405 -18242765.88705  20673410.88602  20673414.46205
 97  4 25  2 35 30.0000000  0  8 03 21 28 26 23 06 22 17
  24831494.67115         0.20115         0.15715  24831494.67112  24831494.67115
  23074149.92105 -12944248.23105 -10086410.28705  23074149.92102  23074154.86005
  21627762.10409  -5293337.96309  -4124677.63609  21627751.76206  21627754.21206
  22403424.85505 -13796699.39105 -10750661.98605  22403424.85502  22403427.20205
  20811888.27005 -23142549.67505 -18033128.36705  20811888.27002  20811891.70505
  21239553.07205   4778919.16605   3723832.05105  21239553.07202  21239556.69305
  23205758.84405    214023.19705    166771.56705  23205758.84402  23205763.89205
  20672067.71805 -23418628.87505 -18248266.29305  20672067.71802  20672071.04205
 97  4 25  2 36  0.0000000  0  8 03 21 28 26 23 06 22 17
  24811362.05805   -105797.82605    -82439.86405  24811362.05802  24811362.05805
  23059048.27405 -13023606.92205 -10148248.18105  23059048.27402  23059053.23605
  21613768.24609  -5366877.68309  -4181981.29709  21613757.55706  21613760.15506
  22407477.10505 -13775404.03105 -10734068.18805  22407477.10502  22407479.93805
  20806256.73305 -23172143.48205 -18056188.45505  20806256.73302  20806260.10005
  21252712.67305   4848073.34905   3777718.41505  21252712.67302  21252716.19605
  23208822.75005    230124.94505    179318.38305  23208822.75002  23208827.01105
  20670760.23405 -23425499.03105 -18253619.65305  20670760.23402  20670763.59505
 97  4 25  2 36 30.0000000  0  8 03 21 28 26 23 06 22 17
  24791221.40605   -211640.38105   -164914.58305  24791221.40602  24791221.40605
  23043979.47705 -13102793.67805 -10209952.09605  23043979.47702  23043985.32105
  21599822.36909  -5440169.73509  -4239091.97009  21599810.70506  21599813.10606
  22411621.07805 -13753625.92605 -10717098.22605  22411621.07802  22411624.13605
  20800693.61905 -23201377.12305 -18078967.88805  20800693.61902  20800697.25205
  21265935.01805   4917556.59605   3831861.19505  21265935.01802  21265938.35805
  23211959.24005    246605.14405    192160.09105  23211959.24002  23211962.91605
  20669476.06305 -23432247.63305 -18258878.30105  20669476.06302  20669479.44205
 97  4 25  2 37  0.0000000  0  8 03 21 28 26 23 06 22 17
  24771057.73405   -317599.77705   -247480.34505  24771057.73402  24771057.73405
  23028929.99805 -13181879.21705 -10271577.14105  23028929.99802  23028934.35605
  21585909.84009  -5513281.89809  -4296062.47809  21585897.91906  21585900.19506
  22415841.74905 -13731446.35205 -10699815.43605  22415841.74902  22415844.65205
  20795184.98205 -23230325.88705 -18101525.34305  20795184.98202  20795188.31305
  21279201.93505   4987274.98305   3886187.20205  21279201.93502  21279205.09005
  23215154.78205    263398.32405    205245.68005  23215154.78202  23215159.21405
  20668206.44705 -23438918.99105 -18264076.75205  20668206.44702  20668209.87505
 97  4 25  2 37 30.0000000  0  8 03 21 28 26 23 06 22 17
  24750925.74105   -423387.68605   -329912.48305  24750925.74102  24750925.74105
  23013954.07905 -13260579.59405 -10332902.05905  23013954.07902  23013958.58705
  21572085.78809  -5585925.92609  -4352668.20409  21572074.20006  21572076.62106
  22420194.39605 -13708572.90205 -10681991.96005  22420194.39602  22420197.11205
  20789782.41005 -23258715.94605 -18123647.44705  20789782.41002  20789785.76105
  21292564.90005   5057496.94505   3940905.60005  21292564.90002  21292568.09905
  23218464.04305    280786.83205    218795.15905  23218464.04302  23218467.99305
  20667010.68805 -23445202.93805 -18268973.32205  20667010.68802  20667014.04305
 97  4 25  2 38  0.0000000  0  8 03 21 28 26 23 06 22 17
  24730815.54805   -529056.07005   -412250.17205  24730815.54802  24730815.54805
  22999040.07105 -13338951.60805 -10393971.11405  22999040.07102  22999044.48805
  21558341.54609  -5658153.75709  -4408949.61609  21558329.67706  21558332.22506
  22424669.06605 -13685059.76705 -10663670.02405  22424669.06602  22424671.87005
  20784476.15205 -23286599.63105 -18145374.97005  20784476.15202  20784479.72105
  21306014.77005   5128176.09205   3995980.23705  21306014.77002  21306018.09705
  23221875.05505    298711.19705    232762.19305  23221875.05502  23221878.37605
  20665878.97005 -23451150.93705 -18273608.11605  20665878.97002  20665882.18605
 97  4 25  2 38 30.0000000  0  8 03 21 28 26 23 06 22 17
  24710719.85105   -634659.57105   -494538.59505  24710719.85102  24710719.85105
  22984173.50105 -13417074.03205 -10454845.69305  22984173.50102  22984178.62305
  21544664.94109  -5730025.60109  -4464953.63809  21544652.89206  21544655.35906
  22429248.60005 -13660992.15705 -10644916.03405  22429248.60002  22429251.60805
  20779250.63205 -23314061.21905 -18166773.58605  20779250.63202  20779254.07905
  21319543.09205   5199268.56005   4051376.94505  21319543.09202  21319546.34005
  23225378.45505    317120.51105    247107.11305  23225378.45502  23225382.64505
  20664794.40605 -23456849.56105 -18278048.59105  20664794.40602  20664797.82505
 97  4 25  2 39  0.0000000  4  1
 -2609191.0000 -4570718.0000  3592953.0000                  APPROX POSITION XYZ
 97  4 25  2 39  0.0000000  0  8 03 21 28 26 23 06 22 17
  24690643.28105   -740171.01405   -576755.28305  24690643.28102  24690643.28105
  22969355.83305 -13494941.05005 -10515521.24605  22969355.83302  22969361.15505
  21531061.30409  -5801510.89709  -4520656.46009  21531049.67906  21531052.12106
  22433939.27105 -13636343.61805 -10625709.37005  22433939.27102  22433942.29805
  20774109.22505 -23341079.99905 -18187827.15905  20774109.22502  20774112.57905
  21333159.02605   5270820.98905   4107132.06905  21333159.02602  21333162.29005
  23228979.36505    336045.03105    261853.47805  23228979.36502  23228982.95605
  20663757.87605 -23462296.27905 -18282292.77405  20663757.87602  20663761.34605
 97  4 25  2 39 30.0000000  0  8 03 21 28 26 23 06 22 17
  24670588.22105   -845563.30302   -658879.13405  24670588.22102  24670589.86305
  22954589.73105 -13572538.99402 -10575987.12505  22954589.73102  22954594.60705
  21517535.55609  -5872588.52706  -4576041.61709  21517524.07706  21517526.45406
  22438744.42005 -13611090.15902 -10606031.34305  22438744.42002  22438747.60305
  20769055.32505 -23367636.99102 -18208520.89605  20769055.32502  20769058.69105
  21346870.37905   5342874.37602   4163277.55605  21346870.37902  21346873.55005
  23232681.86305    355504.33002    277016.55305  23232681.86302  23232686.02305
  20662767.12905 -23467503.35902 -18286350.23305  20662767.12902  20662770.49805
 97  4 25  2 40  0.0000000  0  8 03 21 28 26 23 06 22 17
  24650552.39705   -950850.36702   -740921.00005  24650552.39702  24650553.03405
  22939870.18405 -13649891.71502 -10636261.92605  22939870.18402  22939874.71105
  21504083.23909  -5943282.66206  -4631127.95009  21504071.47506  21504073.69606
  22443663.32105 -13585244.40302 -10585891.79305  22443663.32102  22443665.40005
  20764082.52105 -23393769.34202 -18228883.74305  20764082.52102  20764085.98205
  21360672.76305   5415406.27702   4219795.90305  21360672.76302  21360676.13805
  23236485.69505    375492.70002    292591.89305  23236485.69502  23236489.19605
  20661812.78805 -23472518.09202 -18290257.81005  20661812.78802  20661816.16405
 97  4 25  2 40 30.0000000  0  8 03 21 28 26 23 06 22 17
  24630535.78705  -1056037.35102   -822884.83505  24630535.78702  24630535.78705
  22925194.89505 -13727009.75702 -10696353.87105  22925194.89502  22925199.97405
  21490701.90809  -6013602.20306  -4685922.39209  21490690.05706  21490692.40406
  22448695.45905 -13558800.37302 -10565286.03505  22448695.45902  22448698.02405
  20759186.63805 -23419497.44802 -18248931.59405  20759186.63802  20759190.17805
  21374561.44305   5488392.41602   4276668.20205  21374561.44302  21374564.66405
  23240388.98505    396001.83902    308573.03005  23240388.98502  23240392.37405
  20660891.87205 -23477356.80802 -18294028.23405  20660891.87202  20660895.43605
 97  4 25  2 41  0.0000000  0  8 03 21 28 26 23 06 22 17
  24610537.31505  -1161129.49302   -904774.81505  24610537.31502  24610541.24705
  22910566.70205 -13803881.45002 -10756253.84105  22910566.70202  22910571.52305
  21477391.93609  -6083545.24906  -4740423.46009  21477380.35506  21477382.77606
  22453845.74105 -13531735.39202 -10544196.43505  22453845.74102  22453848.26405
  20754369.08405 -23444814.05202 -18268658.79705  20754369.08402  20754372.38905
  21388534.46205   5561821.29102   4333885.49205  21388534.46202  21388538.03805
  23244386.75305    417011.37902    324944.09405  23244386.75302  23244390.16405
  20660005.64205 -23482015.03302 -18297658.01105  20660005.64202  20660009.04305
 97  4 25  2 41 30.0000000  0  8 03 21 28 26 23 06 22 17
  24590553.90305  -1266139.71302   -986600.89105  24590553.90302  24590559.97005
  22895984.47805 -13880512.17002 -10815966.04205  22895984.47802  22895989.47405
  21464149.50409  -6153131.07306  -4794646.17409  21464138.56406  21464140.99106
  22459112.51605 -13504057.11202 -10522628.93405  22459112.51602  22459115.67505
  20749624.61905 -23469746.65702 -18288086.78505  20749624.61902  20749627.86005
  21402586.14405   5635662.76802   4391424.28905  21402586.14402  21402589.54605
  23248475.20005    438495.84902    341685.22905  23248475.20002  23248479.56305
  20659151.11005 -23486505.25302 -18301156.88205  20659151.11002  20659154.51905
 97  4 25  2 42  0.0000000  0  8 03 21 28 26 23 06 22 17
  24570578.84805  -1371111.57202  -1068397.11205  24570578.84802  24570581.44905
  22881442.10705 -13956932.47802 -10875514.30505  22881442.10702  22881446.10405
  21450968.95409  -6222397.31206  -4848619.86009  21450957.64006  21450959.99506
  22464488.16205 -13475807.61602 -10500616.33305  22464488.16202  22464491.17805
  20744947.16205 -23494326.20702 -18307239.66005  20744947.16202  20744950.46105
  21416705.44005   5709859.70502   4449240.07305  21416705.44002  21416708.62705
  23252643.38605    460399.21602    358752.77905  23252643.38602  23252647.09005
  20658321.64005 -23490864.40102 -18304553.62005  20658321.64002  20658325.01105
 97  4 25  2 42 30.0000000  0  8 03 21 28 26 23 06 22 17
  24550609.91305  -1476050.99002  -1150168.05505  24550609.91302  24550614.83605
  22866943.07405 -14033124.45602 -10934884.63605  22866943.07402  22866947.65305
  21437851.93209  -6291329.77206  -4902333.45709  21437840.18506  21437842.58706
  22469969.82305 -13447000.38302 -10478169.13305  22469969.82302  22469973.17205
  20740341.34905 -23518530.00802 -18326099.74505  20740341.34902  20740344.65905
  21430894.24605   5784422.27902   4507340.75905  21430894.24602  21430897.58805
  23256888.28005    482707.34002    376135.71605  23256888.28002  23256892.23605
  20657522.12605 -23495066.15302 -18307827.70805  20657522.12602  20657525.66005
 97  4 25  2 43  0.0000000  0  8 03 21 28 26 23 06 22 17
  24530648.74805  -1580947.89302  -1231905.85505  24530648.74802  24530651.94505
  22852491.56005 -14109067.26802 -10994060.81205  22852491.56002  22852496.98705
  21424801.14909  -6359913.73706  -4955775.49709  21424788.99806  21424791.49906
  22475556.13705 -13417644.80602 -10455294.64005  22475556.13702  22475559.33605
  20735809.09105 -23542347.17002 -18344658.55505  20735809.09102  20735812.36005
  21445157.40905   5859375.16702   4565745.59105  21445157.40902  21445160.80705
  23261213.40405    505436.29202    393846.57205  23261213.40402  23261217.88405
  20656758.08605 -23499080.38702 -18310955.68105  20656758.08602  20656761.47005
 97  4 25  2 43 30.0000000  0  8 03 21 28 26 23 06 22 17
  24510697.90605  -1685789.10002  -1313600.23205  24510697.90602  24510702.36905
  22838086.12405 -14184767.29002 -11053047.79105  22838086.12402  22838091.64805
  21411816.43509  -6428146.85606  -5008944.15309  21411804.68206  21411807.15206
  22481244.85205 -13387751.75002 -10432001.33005  22481244.85202  22481247.63105
  20731350.86105 -23565774.72802 -18362913.77705  20731350.86102  20731354.44405
  21459494.62705   5934718.66002   4624454.78605  21459494.62702  21459498.08105
  23265622.19205    528603.65002    411899.05805  23265622.19202  23265625.93605
  20656031.73805 -23502898.17002 -18313930.57105  20656031.73802  20656035.13105
 97  4 25  2 44  0.0000000  0  8 03 21 28 26 23 06 22 17
  24490750.77705  -1790613.88902  -1395281.86105  24490750.77702  24490755.18805
  22823721.02705 -14260257.85302 -11111871.56105  22823721.02702  22823725.17005
  21398893.27209  -6496060.56706  -5061863.92009  21398881.08506  21398883.54706
  22487026.76405 -13357366.63102 -10408324.60605  22487026.76402  22487029.44405
  20726961.97105 -23588838.22402 -18380885.31105  20726961.97102  20726965.66305
  21473900.01805   6010419.01502   4683442.06005  21473900.01802  21473903.21705
  23270108.51605    552179.18202    430269.58205  23270108.51602  23270112.84605
  20655338.45105 -23506540.67302 -18316768.88105  20655338.45102  20655341.73905
 97  4 25  2 44 30.0000000  0  8 03 21 28 26 23 06 22 17
  24470814.36805  -1895382.45802  -1476919.66205  24470814.36802  24470817.89305
  22809398.71705 -14335522.85602 -11170519.57205  22809398.71702  22809403.08405
  21386035.70409  -6563627.72006  -5114513.63909  21386023.52006  21386025.94406
  22492907.17405 -13326463.89402 -10384244.53805  22492907.17402  22492910.03905
  20722643.70605 -23611531.69802 -18398568.51705  20722643.70602  20722647.05405
  21488379.95705   6086511.49702   4742734.89305  21488379.95702  21488383.32805
  23274677.94705    576192.85002    448981.52605  23274677.94702  23274682.43705
  20654688.43605 -23509956.59302 -18319430.63405  20654688.43602  20654691.66305
 97  4 25  2 45  0.0000000  0  8 03 21 28 26 23 06 22 17
  24450907.71305  -1999990.80002  -1558432.62605  24450907.71302  24450910.63305
  22795131.99305 -14410493.41902 -11228938.15605  22795131.99302  22795135.96905
  21373260.32609  -6630762.01106  -5166826.06209  21373248.32306  21373250.79606
  22498905.50105 -13294942.46302 -10359682.37905  22498905.50102  22498907.92905
  20718411.10305 -23633774.35602 -18415900.44005  20718411.10302  20718414.35505
  21502950.04805   6163078.56802   4802397.53005  21502950.04802  21502953.55505
  23279348.01805    600736.07302    468106.10405  23279348.01802  23279352.27305
  20654096.79105 -23513066.31102 -18321853.79005  20654096.79102  20654100.18105
 97  4 25  2 45 30.0000000  0  8 03 21 28 26 23 06 22 17
  24431021.64905  -2104490.08102  -1639860.59105  24431021.64902  24431024.29405
  22780909.74005 -14485232.08102 -11287176.03505  22780909.74002  22780914.12205
  21360558.08609  -6697513.51106  -5218840.20809  21360546.01106  21360548.32706
  22505012.97405 -13262847.80202 -10334673.54805  22505012.97402  22505015.94605
  20714255.53405 -23655610.93802 -18432915.94005  20714255.53402  20714258.77705
  21517598.31105   6240055.99602   4862379.92405  21517598.31102  21517601.91005
  23284108.04605    625749.98702    487597.45105  23284108.04602  23284112.20905
  20653551.01305 -23515933.65602 -18324088.08205  20653551.01302  20653554.37805
 97  4 25  2 46  0.0000000  0  8 03 21 28 26 23 06 22 17
  24411153.96605  -2208896.14602  -1721215.92505  24411153.96602  24411158.83805
  22766731.45405 -14559739.58102 -11345233.78305  22766731.45402  22766735.93905
  21347927.62509  -6763886.16606  -5270559.15309  21347915.69406  21347918.06606
  22511226.84005 -13230192.94602 -10309228.19405  22511226.84002  22511229.91205
  20710174.19905 -23677059.54902 -18449629.12205  20710174.19902  20710177.50305
  21532325.43405   6317445.95402   4922683.77105  21532325.43402  21532328.69605
  23288954.00905    651214.26902    507439.72405  23288954.00902  23288957.85705
  20653051.61705 -23518558.43902 -18326133.36505  20653051.61702  20653055.04205
 97  4 25  2 46 30.0000000  0  8 03 21 28 26 23 06 22 17
  24391306.46705  -2313196.98802  -1802489.29805  24391306.46702  24391310.49405
  22752598.06505 -14634010.51502 -11403107.18905  22752598.06502  22752603.31005
  21335371.54009  -6829866.97306  -5321972.75609  21335359.89306  21335362.39906
  22517549.64705 -13196966.61202 -10283337.52605  22517549.64702  22517552.81005
  20706169.23105 -23698104.85302 -18466028.04205  20706169.23102  20706172.52605
  21547130.25705   6395245.83502   4983307.04205  21547130.25702  21547133.59905
  23293886.22105    677132.04002    527635.37405  23293886.22102  23293890.42005
  20652597.35405 -23520945.04102 -18327993.04905  20652597.35402  20652600.69005
 97  4 25  2 47  0.0000000  0  8 03 21 28 26 23 06 22 17
  24371473.19305  -2417418.57302  -1883700.86805  24371473.19302  24371477.67805
  22738510.41805 -14708039.86002 -11460792.34905  22738510.41802  22738515.09905
  21322888.11809  -6895465.14306  -5373088.19909  21322876.91806  21322879.39006
  22523978.11905 -13163185.32402 -10257014.44005  22523978.11902  22523980.77605
  20702242.09905 -23718741.56802 -18482108.58305  20702242.09902  20702245.62505
  21562008.09905   6473429.72602   5044229.54805  21562008.09902  21562011.45405
  23298901.45205    703487.61902    548172.16805  23298901.45202  23298905.51805
  20652179.26905 -23523142.65302 -18329705.46605  20652179.26902  20652182.67505
 97  4 25  2 47 30.0000000  0  8 03 21 28 26 23 06 22 17
  24351656.43805  -2521551.93102  -1964843.71305  24351656.43802  24351659.08105
  22724474.68405 -14781799.34902 -11518267.23205  22724474.68402  22724478.91605
  21310480.81109  -6960669.07006  -5423896.44109  21310469.00406  21310471.46106
  22530512.73505 -13128845.95602 -10230256.47705  22530512.73502  22530515.23705
  20698393.28805 -23738966.58902 -18497868.32505  20698393.28802  20698396.81805
  21576960.16405   6552003.88002   5105456.14805  21576960.16402  21576963.63905
  23304000.19805    730281.12602    569050.19705  23304000.19802  23304004.61905
  20651797.45005 -23525148.93302 -18331268.79405  20651797.45002  20651800.76805
 97  4 25  2 48  0.0000000  0  8 03 21 28 26 23 06 22 17
  24331860.51005  -2625578.27502  -2045903.17105  24331860.51002  24331864.79605
  22710492.88105 -14855274.88502 -11575520.85305  22710492.88102  22710497.66805
  21298151.63209  -7025459.37106  -5474382.37809  21298139.79106  21298142.22106
  22537156.70205 -13093930.96502 -10203049.98605  22537156.70202  22537159.60205
  20694624.14705 -23758773.52902 -18513302.28705  20694624.14702  20694627.64105
  21591989.43505   6630982.51302   5166997.92605  21591989.43502  21591993.04005
  23309182.49505    757513.71102    590270.37905  23309182.49502  23309187.79305
  20651452.45005 -23526961.65102 -18332681.29405  20651452.45002  20651455.79605
 97  4 25  2 48 30.0000000  0  8 03 21 28 26 23 06 22 17
  24312091.18605  -2729470.02702  -2126857.75405  24312091.18602  24312096.39305
  22696568.71105 -14928446.26802 -11632537.47505  22696568.71102  22696572.81505
  21285904.81909  -7089819.01806  -5524532.74209  21285892.60606  21285894.96506
  22543913.51905 -13058425.14702 -10175383.10505  22543913.51902  22543916.42505
  20690940.67305 -23778131.70302 -18528386.56405  20690940.67302  20690943.87405
  21607095.55605   6710365.55902   5228854.83105  21607095.55602  21607098.78005
  23314449.09005    785190.91202    611837.00605  23314449.09002  23314453.09505
  20651143.59005 -23528584.75402 -18333946.04305  20651143.59002  20651146.84005
 97  4 25  2 49  0.0000000  0  8 03 21 28 26 23 06 22 17
  24292349.19805  -2833216.85602  -2207699.42205  24292349.19802  24292354.31705
  22682701.96005 -15001316.45402 -11689319.39505  22682701.96002  22682705.81405
  21273739.59409  -7153745.95206  -5574345.92609  21273727.61806  21273730.19306
  22550781.41005 -13022332.18702 -10147258.71305  22550781.41002  22550784.10205
  20687340.05705 -23797052.11202 -18543129.72505  20687340.05702  20687343.39805
  21622281.03805   6790166.27502   5291037.19805  21622281.03802  21622284.32305
  23319800.89005    813314.69502    633751.62305  23319800.89002  23319804.61805
  20650873.66505 -23530003.32702 -18335051.41605  20650873.66502  20650877.07605
 97  4 25  2 49 30.0000000  0  8 03 21 28 26 23 06 22 17
  24272630.68805  -2936837.71802  -2288442.90105  24272630.68802  24272634.02305
  22668883.76305 -15073930.77802 -11745901.94205  22668883.76302  22668888.53105
  21261651.08809  -7217268.43106  -5623843.94809  21261639.80606  21261642.20406
  22557756.01005 -12985681.62902 -10118699.82705  22557756.01002  22557758.59205
  20683815.68105 -23815572.46902 -18557561.15505  20683815.68102  20683819.20705
  21637541.73905   6870361.68002   5353527.11305  21637541.73902  21637544.96505
  23325233.41905    841861.35102    655995.75205  23325233.41902  23325237.19005
  20650642.61205 -23531217.70502 -18335997.67705  20650642.61202  20650645.82605
 97  4 25  2 50  0.0000000  0  8 03 21 28 26 23 06 22 17
  24252934.22705  -3040341.14002  -2369094.90705  24252934.22702  24252937.66005
  22655111.40205 -15146304.77202 -11802297.21705  22655111.40202  22655116.40105
  21249639.22509  -7280393.46206  -5673032.27709  21249627.49006  21249629.78806
  22564834.29505 -12948484.16802 -10089714.78605  22564834.29502  22564837.37305
  20680368.37105 -23833689.17002 -18571678.04505  20680368.37102  20680371.66305
  21652875.95305   6950943.44802   5416318.08905  21652875.95302  21652879.15605
  23330745.50505    870827.90102    678567.07905  23330745.50502  23330749.32005
  20650449.35905 -23532232.71202 -18336788.58505  20650449.35902  20650452.79605
 97  4 25  2 50 30.0000000  0  8 03 21 28 26 23 06 22 17
  24233260.06205  -3143729.08602  -2449656.92505  24233260.06202  24233264.10405
  22641387.49905 -15218425.40102 -11858495.06005  22641387.49902  22641391.29705
  21237702.75309  -7343119.46006  -5721909.66609  21237691.13906  21237693.49806
  22572016.63405 -12910742.05202 -10060305.33205  22572016.63402  22572019.73905
  20676997.83805 -23851401.76602 -18585480.05005  20676997.83802  20677001.05605
  21668282.63605   7031905.19602   5479405.15705  21668282.63602  21668286.05305
  23336341.63705    900236.53202    701482.88305  23336341.63702  23336346.45205
  20650297.09905 -23533032.91602 -18337412.11605  20650297.09902  20650300.50505
 97  4 25  2 51  0.0000000  0  8 03 21 28 26 23 06 22 17
  24213605.88105  -3247012.14802  -2530137.20405  24213605.88102  24213610.31605
  22627709.50905 -15290303.04902 -11914503.58105  22627709.50902  22627713.36905
  21225843.53309  -7405443.57406  -5770473.89709  21225831.24506  21225833.58606
  22579302.27805 -12872455.85602 -10030471.91905  22579302.27802  22579305.13905
  20673698.59605 -23868738.55402 -18598989.21805  20673698.59602  20673701.87605
  21683762.84005   7113254.74702   5542794.40305  21683762.84002  21683766.24605
  23342026.41805    930108.80502    724759.96705  23342026.41802  23342029.98505
  20650186.85005 -23533613.30202 -18337864.35705  20650186.85002  20650190.19105
 97  4 25  2 51 30.0000000  0  8 03 21 28 26 23 06 22 17
  24193970.63605  -3350195.60902  -2610539.89305  24193970.63602  24193975.24605
  22614079.94105 -15361925.95002 -11970313.58705  22614079.94102  22614084.05305
  21214060.59209  -7467363.34006  -5818723.05409  21214048.27606  21214050.57406
  22586691.23405 -12833626.06002 -10000214.93705  22586691.23402  22586694.20205
  20670469.66605 -23885706.34302 -18612210.85305  20670469.66602  20670472.89205
  21699316.34505   7194989.26702   5606483.62405  21699316.34502  21699319.57605
  23347798.03705    960440.71502    748395.21105  23347798.03702  23347802.47405
  20650114.85305 -23533990.42202 -18338158.20805  20650114.85302  20650118.28805
 97  4 25  2 52  0.0000000  0  8 03 21 28 26 23 06 22 17
  24174354.85605  -3453278.69402  -2690864.36005  24174354.85602  24174360.02105
  22600501.24405 -15433281.99302 -12025915.65305  22600501.24402  22600505.55805
  21202355.42009  -7528872.91806  -5866652.58709  21202343.38806  21202345.78706
  22594184.00905 -12794251.55002  -9969533.49205  22594184.00902  22594186.93305
  20667312.05105 -23902300.02202 -18625140.97305  20667312.05102  20667315.27605
  21714942.30805   7277103.66102   5670468.85605  21714942.30802  21714945.55205
  23353654.27905    991215.14902    772375.27005  23353654.27902  23353658.03205
  20650080.99705 -23534169.35502 -18338297.62705  20650080.99702  20650084.30005
 97  4 25  2 52 30.0000000  0  8 03 21 28 26 23 06 22 17
  24154762.91805  -3556238.58102  -2771092.80305  24154762.91802  24154768.71905
  22586977.11405 -15504352.17402 -12081294.96105  22586977.11402  22586981.46105
  21190732.94709  -7589953.93506  -5914248.17009  21190720.04406  21190722.47906
  22601783.84405 -12754313.59702  -9938413.00005  22601783.84402  22601786.94605
  20664226.81305 -23918512.92602 -18637774.38505  20664226.81302  20664230.09405
  21730642.04105   7359605.67902   5734756.12605  21730642.04102  21730645.25605
  23359596.34205   1022440.33102    796706.57805  23359596.34202  23359600.10105
  20650089.40405 -23534124.68302 -18338262.81205  20650089.40402  20650092.81005
 97  4 25  2 53  0.0000000  0  8 03 21 28 26 23 06 22 17
  24135197.21305  -3659057.57902  -2851211.48905  24135197.21302  24135200.94105
  22573505.18405 -15575147.37502 -12136459.99505  22573505.18402  22573509.77105
  21179190.65409  -7650607.84206  -5961510.94309  21179178.00706  21179180.38806
  22609490.54305 -12713814.46202  -9906855.22705  22609490.54302  22609492.81105
  20661216.90905 -23934330.21302 -18650099.52705  20661216.90902  20661220.11305
  21746417.84905   7442508.27902   5799355.54105  21746417.84902  21746421.06305
  23365618.67505   1054087.24702    821366.50705  23365618.67502  23365623.34905
  20650138.81705 -23533864.60902 -18338060.15305  20650138.81702  20650142.16105
 97  4 25  2 53 30.0000000  0  8 03 21 28 26 23 06 22 17
  24115654.52905  -3761748.93002  -2931230.68805  24115654.52902  24115660.23305
  22560080.42905 -15645693.82802 -12191431.21505  22560080.42902  22560085.25205
  21167723.42909  -7710859.84306  -6008460.53709  21167712.30306  21167714.79906
  22617300.33205 -12672773.43002  -9874875.19205  22617300.33202  22617302.41705
  20658283.51205 -23949745.23402 -18662111.21205  20658283.51202  20658286.78605
  21762262.43005   7525771.93202   5864236.29905  21762262.43002  21762265.82405
  23371710.82205   1086101.93102    846312.99105  23371710.82202  23371715.21705
  20650225.24905 -23533410.79502 -18337706.52305  20650225.24902  20650228.62305
 97  4 25  2 54  0.0000000  0  8 03 21 28 26 23 06 22 17
  24096136.67205  -3864315.06602  -3011152.31505  24096136.67202  24096140.29005
  22546700.75405 -15716004.76802 -12246218.91805  22546700.75402  22546705.41605
  21156335.20909  -7770710.09106  -6055097.07709  21156323.32406  21156325.65306
  22625212.45105 -12631195.29402  -9842476.64305  22625212.45102  22625214.67505
  20655428.20705 -23964749.58202 -18673802.89205  20655428.20702  20655431.46705
  21778173.25605   7609384.85402   5929389.21105  21778173.25602  21778176.46905
  23377873.11005   1118484.36002    871546.03805  23377873.11002  23377877.69105
  20650350.23005 -23532753.55202 -18337194.37905  20650350.23002  20650353.63705
 97  4 25  2 54 30.0000000  0  8 03 21 28 26 23 06 22 17
  24076649.50005  -3966727.67102  -3090954.33405  24076649.50002  24076652.67605
  22533370.31505 -15786057.62802 -12300805.51605  22533370.31502  22533374.96405
  21145028.26309  -7830133.00206  -6101400.62709  21145015.50806  21145017.69606
  22633230.61505 -12589060.05002  -9809643.97505  22633230.61502  22633232.72905
  20652655.33605 -23979321.47902 -18685157.59605  20652655.33602  20652658.61005
  21794155.53605   7693372.73002   5994834.29105  21794155.53602  21794158.95205
  23384112.50905   1151274.31102    897096.64305  23384112.50902  23384117.31005
  20650518.26705 -23531870.50802 -18336506.28405  20650518.26702  20650521.72405
 97  4 25  2 55  0.0000000  0  8 03 21 28 26 23 06 22 17
  24057186.24205  -4069011.63802  -3170656.10005  24057186.24202  24057189.34105
  22520085.34005 -15855870.77102 -12355205.31305  22520085.34002  22520089.07705
  21133801.26809  -7889136.29506  -6147377.20209  21133787.50606  21133789.76906
  22641352.04305 -12546379.76702  -9776386.60605  22641352.04302  22641355.31805
  20649961.96805 -23993475.76802 -18696186.89305  20649961.96802  20649965.18805
  21810206.21105   7777720.07002   6060559.47805  21810206.21102  21810209.52305
  23390428.57905   1184465.60702    922959.98405  23390428.57902  23390433.16505
  20650726.38905 -23530776.57302 -18335653.85905  20650726.38902  20650729.73705
 97  4 25  2 55 30.0000000  0  8 03 21 28 26 23 06 22 17
  24037743.09705  -4171181.45302  -3250268.91605  24037743.09702  24037746.11105
  22506847.86505 -15925434.39502 -12409410.67705  22506847.86502  22506851.97905
  21122653.33609  -7947713.98306  -6193022.13609  21122640.44206  21122642.83306
  22649577.19705 -12503157.18102  -9742706.66005  22649577.19702  22649580.08905
  20647343.38305 -24007236.21502 -18706909.30105  20647343.38302  20647346.58505
  21826323.82805   7862417.96902   6126557.83405  21826323.82802  21826327.03805
  23396825.18005   1218079.77702    949152.81705  23396825.18002  23396829.20705
  20650977.90905 -23529455.49602 -18334624.44305  20650977.90902  20650981.16605
 97  4 25  2 56  0.0000000  0  8 03 21 28 26 23 06 22 17
  24018324.58705  -4273220.81802  -3329780.06005  24018324.58702  24018329.72805
  22493662.96005 -15994720.63402 -12463399.91005  22493662.96002  22493666.93305
  21111592.23909  -8005841.70406  -6238316.44809  21111579.06506  21111581.43806
  22657908.44705 -12459376.87002  -9708592.12805  22657908.44702  22657911.46305
  20644798.66905 -24020607.67302 -18717328.60205  20644798.66902  20644801.94405
  21842512.88005   7947492.32802   6192849.52605  21842512.88002  21842516.09705
  23403309.58405   1252153.53502    975703.79305  23403309.58402  23403314.32805
  20651275.75105 -23527889.69402 -18333404.33205  20651275.75102  20651279.24205
 97  4 25  2 56 30.0000000  0  8 03 21 28 26 23 06 22 17
  23998935.58305  -4375112.23202  -3409175.93305  23998935.58302  23998941.55905
  22480533.06305 -16063716.05202 -12517162.53105  22480533.06302  22480537.50305
  21100619.02109  -8063507.19706  -6283250.58309  21100605.69206  21100608.17606
  22666349.55105 -12415017.16502  -9674026.11305  22666349.55102  22666352.59905
  20642327.75305 -24033593.10902 -18727447.10505  20642327.75302  20642330.94905
  21858774.94205   8032949.24102   6259439.31305  21858774.94202  21858778.36405
  23409882.38105   1286695.40302   1002619.49705  23409882.38102  23409886.68405
  20651622.43805 -23526067.75402 -18331984.63105  20651622.43802  20651625.73005
 97  4 25  2 57  0.0000000  0  8 03 21 28 26 23 06 22 17
  23979575.61505  -4476853.19302  -3488454.59405  23979575.61502  23979579.40305
  22467459.43805 -16132418.85202 -12570697.13205  22467459.43802  22467463.58705
  21089733.12509  -8120707.99206  -6327822.61509  21089720.74006  21089723.18006
  22674900.15005 -12370084.57602  -9639013.71305  22674900.15002  22674902.19505
  20639928.89805 -24046199.44802 -18737270.20905  20639928.89802  20639932.07005
  21875111.14605   8118795.33002   6326332.35505  21875111.14602  21875114.47205
  23416542.88105   1321696.98402   1029893.46105  23416542.88102  23416547.50605
  20652017.18905 -23523993.24002 -18330368.11905  20652017.18902  20652020.63705
 97  4 25  2 57 30.0000000  0  8 03 21 28 26 23 06 22 17
  23960244.62405  -4578437.94202  -3567611.50505  23960244.62402  23960248.73305
  22454439.11105 -16200842.56602 -12624014.26805  22454439.11102  22454443.51305
  21078933.77109  -8177457.26806  -6372042.81909  21078921.80806  21078924.10706
  22683553.74805 -12324608.24302  -9603577.60305  22683553.74802  22683556.78605
  20637600.42605 -24058434.92902 -18746804.33305  20637600.42602  20637603.65205
  21891519.21205   8205020.67902   6393520.92905  21891519.21202  21891522.40205
  23423286.74005   1357134.93302   1057507.42805  23423286.74002  23423289.95205
  20652454.63105 -23521694.38702 -18328576.79705  20652454.63102  20652458.09105
 97  4 25  2 58  0.0000000  0  8 03 21 28 26 23 06 22 17
  23940942.10905  -4679872.47702  -3646651.37905  23940942.10902  23940945.69705
  22441469.40805 -16268998.45202 -12677122.70105  22441469.40802  22441473.37005
  21068218.46209  -8233767.40406  -6415920.83409  21068206.24806  21068208.71806
  22692308.67805 -12278601.69002  -9567728.33305  22692308.67802  22692311.33005
  20635342.65305 -24070298.61702 -18756048.74905  20635342.65302  20635345.88105
  21907995.09505   8291603.09702   6460987.73305  21907995.09502  21907998.52205
  23430107.08905   1392977.22702   1085436.46505  23430107.08902  23430111.57505
  20652928.98905 -23519202.03802 -18326634.70005  20652928.98902  20652932.36605
 97  4 25  2 58 30.0000000  0  8 03 21 28 26 23 06 22 17
  23921668.78005  -4781154.43502  -3725572.35505  23921668.78002  23921672.83105
  22428549.73805 -16336890.81702 -12730025.80105  22428549.73802  22428554.22205
  21057586.30909  -8289643.95206  -6459460.98609  21057573.32306  21057575.60106
  22701159.52705 -12232089.98802  -9531485.43805  22701159.52702  22701162.20305
  20633157.80305 -24081780.59602 -18764995.72905  20633157.80302  20633161.06505
  21924538.68805   8378539.88102   6528730.66905  21924538.68802  21924541.99005
  23437001.39105   1429206.01902   1113666.67805  23437001.39102  23437005.84305
  20653438.72105 -23516522.95102 -18324547.09005  20653438.72102  20653442.16805
 97  4 25  2 59  0.0000000  0  8 03 21 28 26 23 06 22 17
  23902427.71205  -4882267.13302  -3804361.43905  23902427.71202  23902431.78705
  22415681.49505 -16404514.46002 -12782719.50605  22415681.49502  22415685.42905
  21047037.68509  -8345078.10206  -6502656.42209  21047024.51906  21047026.89706
  22710105.25705 -12185079.01102  -9494853.49605  22710105.25702  22710108.32605
  20631049.33105 -24092861.53702 -18773630.21105  20631049.33102  20631052.51205
  21941152.77805   8465846.95502   6596762.15005  21941152.77802  21941156.13005
  23443969.50905   1465822.85702   1142199.26105  23443969.50902  23443973.11405
  20653983.33805 -23513661.26402 -18322317.19905  20653983.33802  20653986.74105
 97  4 25  2 59 30.0000000  0  8 03 21 28 26 23 06 22 17
  23883219.48805  -4983207.42002  -3883016.18905  23883219.48802  23883223.38805
  22402864.74705 -16471867.20302 -12835202.12205  22402864.74702  22402868.93305
  21036573.82109  -8400066.30706  -6545504.36209  21036560.57606  21036562.97706
  22719148.57505 -12137557.99202  -9457824.12305  22719148.57502  22719150.92105
  20629017.72105 -24103536.66202 -18781948.47105  20629017.72102  20629020.91705
  21957834.22105   8553510.20002   6665071.16505  21957834.22102  21957837.77705
  23451012.81405   1502834.08502   1171039.15105  23451012.81402  23451017.45105
  20654565.12605 -23510603.51302 -18319934.53505  20654565.12602  20654568.47905
 97  4 25  3  0  0.0000000  0  8 28 03 21 26 23 06 22 17
  21026196.23809  -8454600.85806  -6587998.81209  21026182.91606  21026185.24306
  23864043.56805  -5083976.36802  -3961537.41105  23864043.56802  23864047.27905
  22390101.40205 -16538938.41102 -12887465.35805  22390101.40202  22390104.91105
  22728291.44805 -12089511.40702  -9420385.21505  22728291.44802  22728294.47005
  20627062.43105 -24113811.01402 -18789954.44305  20627062.43102  20627065.74405
  21974584.65205   8641533.70102   6733660.88805  21974584.65202  21974588.29505
  23458131.20405   1540242.61802   1200188.64105  23458131.20402  23458134.29705
  20655188.44005 -23507328.58902 -18317382.63705  20655188.44002  20655191.77405
 97  4 25  3  0 30.0000000  0  8 28 03 21 26 23 06 22 17
  21015901.68209  -8508693.81106  -6630149.15709  21015889.42706  21015891.80906
  23844899.50605  -5184578.32902  -4039928.50505  23844899.50602  23844903.94405
  22377387.34805 -16605750.10902 -12939526.37405  22377387.34802  22377391.32105
  22737530.78005 -12040958.29602  -9382551.62305  22737530.78002  22737533.33405
  20625178.07505 -24123713.62502 -18797670.74605  20625178.07502  20625181.37605
  21991400.62005   8729901.61902   6802518.99205  21991400.62002  21991403.97305
  23465324.49205   1578044.72802   1229644.81705  23465324.49202  23465329.36405
  20655851.57105 -23503842.76802 -18314666.40605  20655851.57102  20655855.10305
 97  4 25  3  1  0.0000000  0  8 28 03 21 26 23 06 22 17
  21005692.74309  -8562340.92106  -6671952.09009  21005680.71506  21005683.12806
  23825785.87905  -5285023.06802  -4118197.10305  23825785.87902  23825789.36305
  22364721.70105 -16672308.71402 -12991390.17605  22364721.70102  22364725.62305
  22746869.29005 -11991882.80802  -9344310.97805  22746869.29002  22746871.99505
  20623362.74705 -24133253.74002 -18805104.58705  20623362.74702  20623366.05705
  22008279.61005   8818600.63002   6871635.08705  22008279.61002  22008282.86505
  23472592.93805   1616242.50702   1259409.30205  23472592.93802  23472596.34705
  20656557.98305 -23500131.26802 -18311774.31805  20656557.98302  20656561.25405
 97  4 25  3  1 30.0000000  0  8 28 03 21 26 23 06 22 17
  20995571.20809  -8615531.17206  -6713399.03009  20995558.99206  20995561.39706
  23806701.59605  -5385310.61002  -4196343.20305  23806701.59602  23806704.78205
  22352104.68205 -16738610.72802 -13043054.04505  22352104.68202  22352109.02305
  22756308.35905 -11942281.84302  -9305660.86605  22756308.35902  22756311.08805
  20621618.12905 -24142422.70302 -18812249.22005  20621618.12902  20621621.26605
  22025221.48805   8907630.65902   6941009.11505  22025221.48802  22025224.95705
  23479938.49305   1654841.26602   1289486.24405  23479938.49302  23479942.09905
  20657310.52305 -23496175.83702 -18308692.15305  20657310.52302  20657314.13405
 97  4 25  3  2  0.0000000  0  8 03 21 28 26 23 06 22 17
  23787648.27005  -5485435.49502  -4274362.56205  23787648.27002  23787652.14305
  22339535.74005 -16804660.19502 -13094521.12305  22339535.74002  22339539.93605
  20985538.87709  -8668261.31006  -6754487.44009  20985524.68306  20985527.18306
  22765847.32505 -11892154.41202  -9266600.52405  22765847.32502  22765850.35705
  20619944.29205 -24151217.64102 -18819102.40505  20619944.29202  20619947.51905
  22042228.74005   8997003.87202   7010650.56205  22042228.74002  22042232.06705
  23487358.01205   1693829.91102   1319866.98305  23487358.01202  23487362.07305
  20658109.99005 -23491974.88002 -18305418.67005  20658109.99002  20658113.25505
 97  4 25  3  2 30.0000000  0  8 03 21 28 26 23 06 22 17
  23768629.82605  -5585377.94002  -4352239.76205  23768629.82602  23768634.00605
  22327017.89905 -16870443.17402 -13145780.55205  22327017.89902  22327022.05005
  20975595.14709  -8720515.85606  -6795205.26009  20975581.04006  20975583.35306
  22775488.57105 -11841489.12602  -9227121.07805  22775488.57102  22775491.01605
  20618347.06805 -24159611.03202 -18825642.69505  20618347.06802  20618350.27005
  22059304.73005   9086739.68402   7080574.55405  22059304.73002  22059308.37805
  23494853.10805   1733218.55702   1350559.41905  23494853.10802  23494856.56405
  20658958.94005 -23487514.46002 -18301943.00905  20658958.94002  20658962.23805
 97  4 25  3  3  0.0000000  0  8 03 21 28 26 23 06 22 17
  23749645.82605  -5685138.85902  -4429975.50105  23749645.82602  23749648.69205
  22314549.76605 -16935964.69902 -13196836.24505  22314549.76602  22314553.87405
  20965741.18109  -8772294.26406  -6835552.06609  20965727.91106  20965730.26806
  22785232.38605 -11790284.09402  -9187221.04605  22785232.38602  22785234.66105
  20616828.46505 -24167591.92102 -18831861.55305  20616828.46502  20616831.68005
  22076450.70705   9176843.33502   7150785.16505  22076450.70702  22076454.76505
  23502421.14805   1772988.06402   1381548.62405  23502421.14802  23502425.97305
  20659856.09305 -23482799.07302 -18298268.67505  20659856.09302  20659859.44405
 97  4 25  3  3 30.0000000  0  8 03 21 28 26 23 06 22 17
  23730699.32205  -5784703.88302  -4507558.59305  23730699.32202  23730702.74605
  22302130.26405 -17001228.24902 -13247690.92005  22302130.26402  22302134.15305
  20955978.94609  -8823599.48506  -6875530.15409  20955964.90106  20955967.17306
  22795078.03905 -11738546.31802  -9146905.89805  22795078.03902  22795080.61305
  20615386.04405 -24175172.05402 -18837768.13505  20615386.04402  20615389.26205
  22093668.17205   9267320.37102   7221286.72705  22093668.17202  22093671.95305
  23510060.22505   1813129.32202   1412827.51305  23510060.22502  23510064.97005
  20660798.02805 -23477849.90602 -18294412.17105  20660798.02802  20660801.21305
 97  4 25  3  4  0.0000000  0  8 03 21 28 26 23 06 22 17
  23711791.64805  -5884065.34902  -4584983.08305  23711791.64802  23711796.12705
  22289763.19505 -17066217.80602 -13298332.09505  22289763.19502  22289766.88505
  20946307.25909  -8874425.23806  -6915134.62609  20946293.05406  20946295.29106
  22805026.51205 -11686265.56402  -9106167.64205  22805026.51202  22805029.14905
  20614016.68505 -24182367.48002 -18843374.94605  20614016.68502  20614019.85905
  22110956.60505   9358171.13002   7292079.50605  22110956.60502  22110959.79205
  23517769.67505   1853645.89702   1444398.85505  23517769.67502  23517774.65005
  20661784.85205 -23472663.14002 -18290370.52705  20661784.85202  20661788.18105
 97  4 25  3  4 30.0000000  0  8 03 21 28 26 23 06 22 17
  23692921.00505  -5983231.18002  -4662255.14205  23692921.00502  23692924.22705
  22277447.95005 -17130935.84002 -13348761.69005  22277447.95002  22277451.70805
  20936725.77409  -8924775.23406  -6954368.38109  20936711.71706  20936713.97406
  22815076.42505 -11633454.27002  -9065015.98205  22815076.42502  22815078.83305
  20612717.79205 -24189193.56202 -18848693.95705  20612717.79202  20612720.99605
  22128311.91905   9449373.99402   7363146.66805  22128311.91902  22128315.07705
  23525550.70905   1894536.97102   1476262.01205  23525550.70902  23525554.96705
  20662814.23105 -23467255.07102 -18286156.44205  20662814.23102  20662817.44205
 97  4 25  3  5  0.0000000  0  8 03 21 28 26 23 06 22 17
  23674085.08605  -6082211.73902  -4739382.80305  23674085.08602  23674089.33705
  22265183.03705 -17195387.02902 -13398983.35305  22265183.03702  22265187.21405
  20927234.53709  -8974649.42206  -6993231.37209  20927220.98506  20927223.34306
  22825226.34605 -11580115.96802  -9023453.65105  22825226.34602  22825228.69805
  20611486.31605 -24195664.60302 -18853736.31105  20611486.31602  20611489.54105
  22145730.95105   9540911.53102   7434474.60805  22145730.95102  22145734.57005
  23533404.27705   1935806.76702   1508420.27405  23533404.27702  23533408.76405
  20663883.16505 -23461636.65102 -18281778.44405  20663883.16502  20663886.50705
 97  4 25  3  5 30.0000000  0  8 03 21 28 26 23 06 22 17
  23655284.92705  -6181006.96602  -4816366.07405  23655284.92702  23655288.35305
  22252973.25505 -17259549.60502 -13448980.12505  22252973.25502  22252977.40605
  20917834.96509  -9024044.33506  -7031720.90309  20917821.29006  20917823.76206
  22835474.33305 -11526261.61702  -8981489.22405  22835474.33302  22835476.88105
  20610321.27305 -24201786.97502 -18858506.97405  20610321.27302  20610324.47805
  22163212.19005   9632778.94202   7506059.58505  22163212.19002  22163216.10905
  23541330.71705   1977459.22302   1540876.73005  23541330.71702  23541334.69605
  20664991.99805 -23455810.38902 -18277238.49305  20664991.99802  20664995.23705
 97  4 25  3  6  0.0000000  0  8 03 21 28 26 23 06 22 17
  23636518.15105  -6279629.31602  -4893214.62705  23636518.15102  23636521.20105
  22240818.75705 -17323422.61202 -13498751.26005  22240818.75702  22240822.64505
  20908525.33109  -9072965.61106  -7069841.36709  20908511.98306  20908514.35106
  22845818.79405 -11471900.68302  -8939130.04805  22845818.79402  22845820.84905
  20609223.68305 -24207555.83302 -18863002.17105  20609223.68302  20609226.79905
  22180752.06105   9724951.77402   7577882.55705  22180752.06102  22180756.46205
  23549324.99205   2019472.23602   1573614.11805  23549324.99202  23549328.86505
  20666139.81205 -23449776.92902 -18272537.09305  20666139.81202  20666143.23905
 97  4 25  3  6 30.0000000  0  8 03 21 28 26 23 06 22 17
  23617783.99505  -6378077.49102  -4969927.46005  23617783.99502  23617789.20205
  22228717.77305 -17387012.76102 -13548301.98405  22228717.77302  22228721.62305
  20899306.50609  -9121413.30506  -7107592.80709  20899292.72206  20899295.02306
  22856256.95105 -11417046.82202  -8896386.78405  22856256.95102  22856259.95005
  20608195.82005 -24212955.79102 -18867209.91505  20608195.82002  20608199.00105
  22198349.48505   9817424.60802   7649939.29405  22198349.48502  22198353.11305
  23557387.54605   2061838.23502   1606626.58105  23557387.54602  23557391.58505
  20667325.44605 -23443547.72602 -18267683.16105  20667325.44602  20667328.70405
 97  4 25  3  7  0.0000000  0  8 03 21 28 26 23 06 22 17
  23599084.67105  -6476340.27802  -5046495.85005  23599084.67102  23599088.30605
  22216673.76205 -17450304.25002 -13597619.99005  22216673.76202  22216677.77205
  20890179.28209  -9169374.38006  -7144965.06609  20890166.04306  20890168.27706
  22866789.37005 -11361699.75202  -8853259.19705  22866789.37002  22866792.60305
  20607239.96405 -24217979.17302 -18871124.22205  20607239.96402  20607243.13705
  22216007.25605   9910215.67502   7722244.01205  22216007.25602  22216010.75405
  23565518.50105   2104565.07902   1639920.20705  23565518.50102  23565523.04505
  20668549.95305 -23437112.51502 -18262668.70705  20668549.95302  20668553.22005
 97  4 25  3  7 30.0000000  0  7 03 21 26 06 28 23 17
  23580423.99805  -6574405.01302  -5122909.91705  23580423.99802  23580427.38305
  22204685.90105 -17513301.43802 -13646708.67105  22204685.90102  22204689.76705
  22877414.93405 -11305862.64202  -8809749.75305  22877414.93402  22877417.47705
  22233723.87205  10003316.96102   7794790.45905  22233723.87202  22233726.96105
  20881144.91309  -9216849.91106  -7181958.97409  20881131.68506  20881134.06806
  20606354.42905 -24222632.96402 -18874750.53405  20606354.42902  20606357.59805
  20669816.53805 -23430457.23702 -18257482.77005  20669816.53802  20669819.90005
 97  4 25  3  8  0.0000000  0  7 03 21 28 26 23 06 17
  23561801.71505  -6672267.44402  -5199166.33905  23561801.71502  23561805.97105
  22192750.08105 -17576024.27302 -13695583.57405  22192750.08102  22192754.08405
  20872205.12309  -9263833.88906  -7218569.85509  20872191.07206  20872193.23706
  22888135.07205 -11249526.30902  -8765851.31505  22888135.07202  22888138.18505
  20605540.63405 -24226909.03502 -18878082.52005  20605540.63402  20605543.80705
  22251498.64605  10096723.15902   7867574.50205  22251498.64602  22251502.04105
  20671128.27405 -23423563.41002 -18252110.95305  20671128.27402  20671131.58505
 97  4 25  3  8 30.0000000  0  8 03 21 28 26 23 06 01 17
  23543217.25505  -6769927.71002  -5275265.23405  23543217.25502  23543220.51905
  22180863.86805 -17638487.14902 -13744255.90305  22180863.86802  22180867.79205
  20863358.37009  -9310323.25906  -7254795.33109  20863344.34306  20863346.64406
  22898948.94105 -11192698.88202  -8721570.19905  22898948.94102  22898951.96805
  20604798.29305 -24230810.66302 -18881122.73605  20604798.29302  20604801.42705
  22269333.05805  10190444.64802   7940604.22805  22269333.05802  22269336.28305
  25222423.48115        -1.16512        -0.90715  25222423.48112  25222423.48115
  20672484.67505 -23416435.91202 -18246557.05505  20672484.67502  20672488.02805
 97  4 25  3  9  0.0000000  4  1
 -2609191.0000 -4570718.0000  3592953.0000                  APPROX POSITION XYZ
 97  4 25  3  9  0.0000000  0  8 03 21 28 26 23 06 01 17
  23524677.87005  -6867353.71402  -5351181.59305  23524677.87002  23524681.09405
  22169031.35605 -17700666.10302 -13792706.99805  22169031.35602  22169035.59505
  20854608.54709  -9356298.48106  -7290620.16909  20854595.50106  20854597.87406
  22909860.80505 -11135356.59102  -8676887.89005  22909860.80502  22909863.43705
  20604131.00105 -24234317.45402 -18883855.28105  20604131.00102  20604134.19605
  22287230.89505  10284499.17002   8013893.45605  22287230.89502  22287234.52305
  25201763.01605   -108566.32302    -84597.13505  25201763.01602  25201763.01605
  20673890.69105 -23409046.86702 -18240799.35405  20673890.69102  20673894.07105
 97  4 25  3  9 30.0000000  0  8 03 21 28 26 23 06 01 17
  23506184.49805  -6964537.15605  -5426908.94005  23506184.49805  23506187.40705
  22157249.37802 -17762580.06402 -13840951.60405  22157249.37802  22157253.38305
  20845957.00106  -9401767.21006  -7326050.34109  20845943.09706  20845945.41306
  22920871.16302 -11077497.32802  -8631802.74605  22920871.16302  22920873.89405
  20603538.27302 -24237431.38302 -18886281.70405  20603538.27302  20603541.49805
  22305190.48402  10378877.64102   8087435.11605  22305190.48402  22305193.97105
  25181088.93802   -217205.43402   -169250.98705  25181088.93802  25181088.93805
  20675346.11102 -23401398.14802 -18234839.30705  20675346.11102  20675349.47305
 97  4 25  3 10  0.0000000  0  8 03 21 28 26 23 06 01 17
  23487733.32602  -7061497.12202  -5502462.16905  23487733.32602  23487736.83505
  22145516.32002 -17824239.62802 -13888997.98105  22145516.32002  22145519.87905
  20837398.82606  -9446739.70306  -7361093.83209  20837385.12306  20837387.48206
  22931976.54102 -11019139.58902  -8586329.18805  22931976.54102  22931979.15205
  20603018.43902 -24240163.37402 -18888410.51305  20603018.43902  20603021.57305
  22323212.29902  10473584.21602   8161232.43405  22323212.29902  22323216.42105
  25160398.45402   -325932.98402   -253973.75405  25160398.45402  25160398.45405
  20676844.67102 -23393524.05002 -18228703.64005  20676844.67102  20676847.88105
 97  4 25  3 10 30.0000000  0  8 03 21 28 26 23 06 01 17
  23469327.96002  -7158218.49202  -5577829.46905  23469327.96002  23469331.27605
  22133835.03902 -17885624.38902 -13936830.22705  22133835.03902  22133838.76205
  20828935.34606  -9491213.77506  -7395748.94309  20828922.06406  20828924.18906
  22943177.16102 -10960277.87302  -8540462.92105  22943177.16102  22943179.95705
  20602569.18402 -24242523.31202 -18890249.40805  20602569.18402  20602572.47905
  22341299.72502  10568633.29502   8235296.64505  22341299.72502  22341303.95805
  25139690.05302   -434757.20202   -338771.84605  25139690.05302  25139690.05305
  20678385.18502 -23385427.68902 -18222394.78005  20678385.18502  20678388.61105
 97  4 25  3 11  0.0000000  0  8 03 21 28 26 23 06 01 17
  23450967.61102  -7254703.95002  -5653012.93505  23450967.61102  23450970.35205
  22122204.79202 -17946739.30202 -13984452.20505  22122204.79202  22122208.40005
  20820565.60806  -9535196.07206  -7430020.85309  20820552.41506  20820554.68806
  22954473.92902 -10900913.60702  -8494205.05705  22954473.92902  22954476.19205
  20602187.13902 -24244531.04102 -18891813.85805  20602187.13902  20602190.32905
  22359450.62802  10664016.67102   8309621.34705  22359450.62802  22359454.35405
  25118960.85502   -543688.28202   -423653.20705  25118960.85502  25118960.85505
  20679969.34502 -23377103.31802 -18215908.24805  20679969.34502  20679972.79405
 97  4 25  3 11 30.0000000  0  8 03 21 28 26 23 06 01 17
  23432649.16902  -7350968.49902  -5728024.26605  23432649.16902  23432652.58605
  22110624.60802 -18007595.00802 -14031872.19905  22110624.60802  22110628.47005
  20812293.74806  -9578675.87906  -7463901.21309  20812278.49306  20812280.78606
  22965866.27302 -10841045.73002  -8447554.76005  22965866.27302  22965869.37605
  20601870.07602 -24246196.87702 -18893111.89405  20601870.07602  20601873.28305
  22377665.91302  10759737.71702   8384209.17205  22377665.91302  22377669.42505
  25098214.09902   -652713.96502   -508608.28505  25098214.09902  25098214.09905
  20681596.85302 -23368550.00302 -18209243.32105  20681596.85302  20681600.18805
 97  4 25  3 12  0.0000000  0  8 03 21 28 26 23 06 01 17
  23414370.34502  -7447026.61302  -5802874.74505  23414370.34502  23414374.35805
  22099094.76902 -18068185.70102 -14079085.69605  22099094.76902  22099098.45805
  20804112.74306  -9621656.54706  -7497392.63609  20804099.50606  20804101.79706
  22977351.61802 -10780688.83102  -8400523.41405  22977351.61802  22977354.65605
  20601617.05302 -24247527.47102 -18894148.70205  20601617.05302  20601620.22405
  22395942.40902  10855780.53402   8459047.72305  22395942.40902  22395946.18005
  25077448.63002   -761838.94202   -593639.39205  25077448.63002  25077448.63005
  20683266.43902 -23359776.90002 -18202407.13005  20683266.43902  20683269.64005
 97  4 25  3 12 30.0000000  0  8 03 21 28 26 23 06 01 17
  23396123.94502  -7542911.47202  -5877590.21805  23396123.94502  23396126.73605
  22087608.77702 -18128543.60202 -14126117.79305  22087608.77702  22087612.51405
  20796023.89406  -9664167.37206  -7530517.94809  20796010.03906  20796012.30006
  22988923.90302 -10719878.88202  -8353139.03905  22988923.90302  22988926.52005
  20601421.64702 -24248554.22502 -18894948.75605  20601421.64702  20601424.84305
  22414270.67402  10952095.47302   8534098.32605  22414270.67402  22414273.86105
  25056659.22202   -871088.41802   -678768.73305  25056659.22202  25056659.22205
  20684974.44802 -23350800.10902 -18195412.22005  20684974.44802  20684977.89905
 97  4 25  3 13  0.0000000  0  8 03 21 28 26 23 06 01 17
  23377905.91402  -7638645.55902  -5952188.17805  23377905.91402  23377909.13805
  22076166.20202 -18188675.21202 -14172973.55805  22076166.20202  22076170.06705
  20788022.90206  -9706213.11906  -7563280.85909  20788008.99806  20788011.20706
  23000577.14302 -10658639.60402  -8305420.11005  23000577.14302  23000579.38605
  20601283.28602 -24249280.76502 -18895514.87605  20601283.28602  20601286.49505
  22432644.30402  11048650.49602   8609335.99505  22432644.30402  22432647.50205
  25035845.87202   -980463.30802   -763995.83605  25035845.87202  25035845.87205
  20686719.22302 -23341631.84302 -18188268.10705  20686719.22302  20686722.44805
 97  4 25  3 13 30.0000000  0  8 03 21 28 26 23 06 01 17
  23359723.26502  -7734197.42802  -6026644.17805  23359723.26502  23359726.94205
  22064775.12602 -18248535.91702 -14219618.23105  22064775.12602  22064778.57005
  20780116.42006  -9747765.63006  -7595659.43309  20780101.77606  20780103.97306
  23012316.53902 -10596950.45302  -8257350.64105  23012316.53902  23012319.35005
  20601209.48802 -24249668.55902 -18895817.03905  20601209.48802  20601212.64405
  22451066.25402  11145459.81602   8684771.81405  22451066.25402  22451070.25405
  25015015.17002  -1089928.54402   -849293.34505  25015015.17002  25015015.17005
  20688505.57902 -23332244.08602 -18180952.96305  20688505.57902  20688509.09205
 97  4 25  3 14  0.0000000  0  8 03 21 28 26 23 06 01 17
  23341589.98402  -7829489.01902  -6100897.33505  23341589.98402  23341593.02905
  22053450.19102 -18308049.11702 -14265992.12405  22053450.19102  22053453.61905
  20772313.75306  -9788769.08706  -7627610.17009  20772299.10106  20772301.31406
  23024152.26502 -10534751.14002  -8208883.64605  23024152.26502  23024154.10705
  20601212.70302 -24249651.48902 -18895803.72305  20601212.70302  20601215.88405
  22469548.30202  11242583.47902   8760452.57605  22469548.30202  22469551.50905
  24994181.44002  -1199412.28802   -934606.97805  24994181.44002  24994181.44005
  20690346.59802 -23322570.39102 -18173415.00705  20690346.59802  20690349.88605
 97  4 25  3 14 30.0000000  0  8 03 21 28 26 23 06 01 17
  23323517.20302  -7924460.08902  -6174900.74205  23323517.20302  23323520.41705
  22042201.53202 -18367160.54202 -14312052.94505  22042201.53202  22042205.51105
  20764625.19806  -9829165.09006  -7659087.56809  20764611.91806  20764614.18506
  23036095.57702 -10471991.10502  -8159979.71505  23036095.57702  23036098.06505
  20601304.23002 -24249170.45502 -18895428.87505  20601304.23002  20601307.40605
  22488101.43802  11340079.25502   8836423.30105  22488101.43802  22488104.86805
  24973355.30502  -1308854.58602  -1019884.94805  24973355.30502  24973355.30505
  20692252.27702 -23312555.05302 -18165610.83805  20692252.27702  20692255.75305
 97  4 25  3 15  0.0000000  0  8 03 21 28 26 23 06 01 17
  23305505.15202  -8019114.10602  -6248657.11005  23305505.15202  23305507.99305
  22031026.27902 -18425885.35202 -14357812.50505  22031026.27902  22031030.41205
  20757049.87106  -9868975.11006  -7690108.35709  20757036.37506  20757038.57206
  23048139.90902 -10408694.10902  -8110657.37905  23048139.90902  23048143.08805
  20601480.27202 -24248245.25902 -18894707.92805  20601480.27202  20601483.42505
  22506722.79202  11437934.59402   8912674.21105  22506722.79202  22506726.08005
  24952532.74402  -1418274.65402  -1105147.29105  24952532.74402  24952534.64205
  20694217.57702 -23302227.99802 -18157563.77105  20694217.57702  20694220.77805
 97  4 25  3 15 30.0000000  0  8 03 21 28 26 23 06 01 17
  23287519.37802  -8113630.72702  -6322306.40305  23287519.37802  23287522.58805
  22019884.65402 -18484436.34002 -14403436.62305  22019884.65402  22019888.56105
  20749548.86906  -9908390.51106  -7720821.64609  20749535.84006  20749538.14106
  23060252.22702 -10345044.41202  -8061060.20905  23060252.22702  23060254.79505
  20601704.32102 -24247067.73402 -18893790.36105  20601704.32102  20601707.44705
  22525380.56502  11535983.65502   8989076.06905  22525380.56502  22525383.77905
  24931678.50702  -1527855.94402  -1190535.19705  24931678.50702  24931687.44305
  20696204.88802 -23291784.49002 -18149425.96505  20696204.88802  20696208.26905
 97  4 25  3 16  0.0000000  0  8 03 21 28 26 23 06 01 17
  23269570.06502  -8207955.98902  -6395806.58805  23269570.06502  23269573.35805
  22008781.93002 -18542781.16202 -14448900.09605  22008781.93002  22008785.34305
  20742134.68206  -9947357.60406  -7751185.60709  20742120.66406  20742122.83406
  23072440.42302 -10280996.63902  -8011152.85205  23072440.42302  23072442.76205
  20601985.85102 -24245588.64002 -18892637.80505  20601985.85102  20601988.99605
  22544085.09202  11634277.85602   9065668.94205  22544085.09202  22544088.43105
  24910805.74902  -1637544.66802  -1276006.90405  24910805.74902  24910813.40705
  20698221.37202 -23281187.86702 -18141168.84705  20698221.37202  20698224.67105
 97  4 25  3 16 30.0000000  0  8 03 21 28 26 23 06 01 17
  23251694.77002  -8301889.91802  -6469001.86405  23251694.77002  23251697.73005
  21997752.25902 -18600741.06902 -14494063.63605  21997752.25902  21997755.69505
  20734840.78706  -9985678.20206  -7781045.80709  20734828.44606  20734830.75806
  23084738.63402 -10216370.56402  -7960794.87005  23084738.63402  23084741.32305
  20602361.13802 -24243616.31102 -18891100.91105  20602361.13802  20602364.29505
  22562871.24102  11732998.98002   9142594.48705  22562871.24102  22562874.92805
  24889948.13602  -1747156.17002  -1361420.39205  24889948.13602  24889948.13605
  20700303.80802 -23270244.10102 -18132641.22405  20700303.80802  20700307.18305
 97  4 25  3 17  0.0000000  0  8 03 21 28 26 23 06 01 17
  23233868.05902  -8395569.86402  -6541999.19805  23233868.05902  23233871.44405
  21986765.81502 -18658475.59802 -14539051.55005  21986765.81502  21986769.68505
  20727645.02206 -10023495.19906  -7810513.58909  20727632.11506  20727634.30906
  23097121.61702 -10151296.11002  -7910087.49005  23097121.61702  23097123.93505
  20602799.69902 -24241311.63802 -18889305.04705  20602799.69902  20602802.84105
  22581709.31002  11831991.99002   9219731.88805  22581709.31002  22581713.13005
  24869077.50802  -1856831.06202  -1446879.33105  24869077.50802  24869084.41005
  20702426.79802 -23259087.89102 -18123948.06105  20702426.79802  20702430.01905
 97  4 25  3 17 30.0000000  0  8 03 21 28 26 23 06 01 17
  23216089.91302  -8488993.95502  -6614797.17505  23216089.91302  23216092.32705
  21975821.76902 -18715988.28502 -14583866.60105  21975821.76902  21975825.23605
  20720547.10706 -10060793.91206  -7839577.51509  20720534.45506  20720536.64606
  23109592.93902 -10085756.17702  -7859017.41105  23109592.93902  23109595.63805
  20603302.46502 -24238669.03102 -18887245.85705  20603302.46502  20603305.55505
  22600597.30502  11931248.70702   9297074.77405  22600597.30502  22600600.51705
  24848195.62602  -1966562.01602  -1532383.87705  24848195.62602  24848195.62605
  20704592.66202 -23247705.44902 -18115078.61605  20704592.66202  20704596.00005
 97  4 25  3 18  0.0000000  0  8 03 21 28 26 23 06 01 17
  23198366.66602  -8582129.16902  -6687370.04005  23198366.66602  23198369.10005
  21964929.54202 -18773226.64202 -14628467.89705  21964929.54202  21964933.13705
  20713555.16706 -10097541.23306  -7868211.78009  20713541.74706  20713543.87906
  23122158.78002 -10019725.05002  -7807564.57905  23122158.78002  23122161.04305
  20603873.14402 -24235670.01202 -18884908.94105  20603873.14402  20603876.27805
  22619535.56602  12030770.56902   9374624.26805  22619535.56602  22619539.03605
  24827308.87102  -2076323.07702  -1617911.94205  24827308.87102  24827316.72805
  20706808.97502 -23236058.86202 -18106003.34605  20706808.97502  20706812.28805
 97  4 25  3 18 30.0000000  0  8 03 21 28 26 23 06 01 17
  23180692.32102  -8675010.00002  -6759744.68905  23180692.32102  23180695.50205
  21954085.48702 -18830211.64502 -14672871.76905  21954085.48702  21954088.99005
  20706662.14706 -10133767.55906  -7896440.07909  20706648.03006  20706650.20106
  23134811.95302  -9953229.99902  -7755750.25005  23134811.95302  23134814.46805
  20604502.92302 -24232361.03502 -18882330.50505  20604502.92302  20604506.08005
  22638519.94102  12130534.51702   9452362.40305  22638519.94102  22638523.48605
  24806409.99702  -2186151.01502  -1703492.06905  24806409.99702  24806419.18105
  20709071.63302 -23224168.98102 -18096738.49605  20709071.63302  20709074.92705
 97  4 25  3 19  0.0000000  0  8 03 21 28 26 23 06 01 17
  23163067.18602  -8767631.47802  -6831917.24005  23163067.18602  23163070.32705
  21943296.23202 -18886909.35502 -14717051.77805  21943296.23202  21943300.12805
  20699869.37406 -10169457.24906  -7924250.21609  20699856.44306  20699858.72106
  23147559.89902  -9886241.75802  -7703551.61705  23147559.89902  23147562.46505
  20605194.93902 -24228723.73202 -18879496.23005  20605194.93902  20605198.09605
  22657555.98502  12230569.90402   9530312.04405  22657555.98502  22657559.37305
  24785503.54502  -2296018.29202  -1789102.79505  24785503.54502  24785510.42805
  20711380.77702 -23212034.01702 -18087282.67105  20711380.77702  20711384.13505
 97  4 25  3 19 30.0000000  0  8 03 21 28 26 23 06 01 17
  23145487.15902  -8860012.64202  -6903902.54105  23145487.15902  23145490.28005
  21932562.76302 -18943314.26402 -14761003.62405  21932562.76302  21932566.54205
  20693178.84406 -10204620.04606  -7951649.79009  20693165.10106  20693167.37706
  23160394.99102  -9818789.37602  -7650991.31505  23160394.99102  23160398.16005
  20605949.55202 -24224758.51502 -18876406.43505  20605949.55202  20605952.69405
  22676644.07702  12330878.85302   9608474.85105  22676644.07702  22676647.81705
  24764587.53602  -2405932.92302  -1874750.46105  24764587.53602  24764589.83305
  20713733.44902 -23199670.90702 -18077649.07205  20713733.44902  20713736.70405
 97  4 25  3 20  0.0000000  0  8 03 21 28 26 23 06 01 17
  23127951.75802  -8952161.23502  -6975706.61505  23127951.75802  23127955.31105
  21921885.03502 -18999426.35702 -14804727.30705  21921885.03502  21921888.60605
  20686587.75706 -10239268.86806  -7978648.86309  20686571.78406  20686573.99906
  23173315.84402  -9750891.44502  -7598083.82605  23173315.84402  23173319.06405
  20606763.25602 -24220482.03702 -18873074.10005  20606763.25602  20606766.41805
  22695783.11502  12431455.77202   9686846.47005  22695783.11502  22695786.51605
  24743659.89602  -2515908.83002  -1960445.83305  24743659.89602  24743664.97905
  20716128.37702 -23187084.75102 -18067841.66905  20716128.37702  20716131.81305
 97  4 25  3 20 30.0000000  0  8 03 21 28 26 23 06 01 17
  23110461.98002  -9044071.85502  -7047325.24405  23110461.98002  23110465.80005
  21911260.79002 -19055257.01002 -14848231.68005  21911260.79002  21911264.55005
  20680092.64706 -10273401.01906  -8005245.33509  20680076.58806  20680078.75606
  23186321.02802  -9682549.03002  -7544829.97605  23186321.02802  23186324.16205
  20607639.76802 -24215876.26902 -18869485.17705  20607639.76802  20607642.87805
  22714976.02102  12532314.02402   9765437.31905  22714976.02102  22714979.11505
  24722718.83102  -2625949.05502  -2046191.35005  24722718.83102  24722722.48605
  20718567.07702 -23174270.37602 -18057856.43405  20718567.07702  20718570.28705
 97  4 25  3 21  0.0000000  0  8 03 21 28 26 23 06 01 17
  23093020.69002  -9135725.82002  -7118743.89405  23093020.69002  23093023.47705
  21900691.38302 -19110800.29902 -14891512.13005  21900691.38302  21900694.82705
  20673700.56506 -10306997.14606  -8031424.12709  20673683.54406  20673685.61006
  23199412.78202  -9613751.92102  -7491221.83505  23199412.78202  23199415.78005
  20608582.96602 -24210920.06802 -18865623.18805  20608582.96602  20608586.00205
  22734222.74402  12633454.36002   9844247.97505  22734222.74402  22734226.05505
  24701769.01802  -2736035.71202  -2131973.03405  24701769.01802  24701776.59105
  20721050.69502 -23161218.74202 -18047686.32105  20721050.69502  20721053.94005
 97  4 25  3 21 30.0000000  0  8 03 21 28 26 23 06 01 17
  23075629.35802  -9227117.83102  -7189958.42005  23075629.35802  23075632.69705
  21890172.78202 -19166074.31002 -14934582.76305  21890172.78202  21890176.18305
  20667409.73506 -10340058.41306  -8057186.14209  20667392.12606  20667394.28606
  23212587.59802  -9544516.48002  -7437272.13805  23212587.59802  23212589.98305
  20609589.61102 -24205630.36102 -18861501.32305  20609589.61102  20609592.72505
  22753518.00802  12734854.12202   9923260.78105  22753518.00802  22753521.62805
  24680808.70602  -2846185.35602  -2217803.82105  24680808.70602  24680818.13805
  20723581.03602 -23147920.98702 -18037324.42705  20723581.03602  20723584.42505
 97  4 25  3 22  0.0000000  0  8 03 21 28 26 23 06 01 17
  23058295.33002  -9318212.27002  -7260941.07405  23058295.33002  23058298.56505
  21879708.26402 -19221065.51102 -14977433.02305  21879708.26402  21879711.80405
  20661224.43206 -10372559.81506  -8082511.90209  20661207.31206  20661209.49506
  23225849.40102  -9474826.97802  -7382968.61805  23225849.40102  23225852.25905
  20610662.71102 -24199990.85602 -18857106.89005  20610662.71102  20610665.89305
  22772865.49902  12836527.48502  10002486.76505  22772865.49902  22772869.82705
  24659841.77102  -2956371.94602  -2303663.40805  24659841.77102  24659845.68605
  20726161.49502 -23134361.20502 -18026758.35605  20726161.49502  20726164.77905
 97  4 25  3 22 30.0000000  0  8 03 21 28 26 23 06 01 17
  23041014.29702  -9409023.26702  -7331702.87805  23041014.29702  23041017.42705
  21869293.88102 -19275794.37402 -15020078.86605  21869293.88102  21869297.79805
  20655143.07306 -10404508.76006  -8107407.17609  20655127.63106  20655129.83006
  23239193.62402  -9404699.02602  -7328323.46205  23239193.62402  23239196.31505
  20611800.21802 -24194012.97602 -18852448.79005  20611800.21802  20611803.30805
  22792264.69602  12938469.55702  10081922.15505  22792264.69602  22792268.20405
  24638867.07802  -3066595.55802  -2389551.83805  24638867.07802  24638875.51805
  20728787.48102 -23120561.27002 -18016005.15105  20728787.48102  20728790.74305
 97  4 25  3 23  0.0000000  0  8 03 21 28 26 23 06 01 17
  23023787.20702  -9499551.52102  -7402244.35405  23023787.20702  23023790.47605
  21858932.59202 -19330243.32802 -15062506.59305  21858932.59202  21858935.98105
  20649169.79606 -10435892.65206  -8131862.14809  20649155.47506  20649157.70506
  23252624.71402  -9334121.54802  -7273328.01405  23252624.71402  23252628.04005
  20613000.72602 -24187704.30702 -18847532.92905  20613000.72602  20613003.87205
  22811715.82402  13040684.57502  10161570.21905  22811715.82402  22811719.04005
  24617888.95602  -3176832.63202  -2475450.75305  24617888.95602  24617892.97605
  20731460.39402 -23106515.14302 -18005060.11105  20731460.39402  20731463.69905
 97  4 25  3 23 30.0000000  0  8 03 21 28 26 23 06 01 17
  23006618.26402  -9589775.01502  -7472548.35905  23006618.26402  23006621.58005
  21848629.13602 -19384387.67202 -15104696.96505  21848629.13602  21848632.70105
  20643307.99006 -10466696.88606  -8155865.44009  20643293.54106  20643295.83206
  23266142.12102  -9263084.80502  -7217974.70205  23266142.12102  23266144.94605
  20614267.51202 -24181046.85202 -18842345.28905  20614267.51202  20614270.64805
  22831221.88802  13143187.89902  10241442.94105  22831221.88802  22831225.26105
  24596913.95302  -3287055.53902  -2561338.66705  24596913.95302  24596918.12805
  20734184.60502 -23092200.13002 -17993905.55005  20734184.60502  20734187.89105
 97  4 25  3 24  0.0000000  0  8 03 21 28 26 23 06 01 17
  22989504.12902  -9679709.46402  -7542627.13805  22989504.12902  22989507.49805
  21838379.52402 -19438249.67402 -15146667.32705  21838379.52402  21838382.79505
  20637553.35406 -10496944.72906  -8179435.18109  20637537.66906  20637539.88606
  23279742.21102  -9191618.01702  -7162286.28905  23279742.21102  23279745.31405
  20615599.64902 -24174046.59602 -18836890.53005  20615599.64902  20615602.75105
  22850777.62402  13245955.89402  10321521.90105  22850777.62402  22850780.90505
  24575941.58202  -3397268.92402  -2647219.15305  24575941.58202  24575946.01505
  20736956.50102 -23077631.94602 -17982553.71205  20736956.50102  20736959.82105
 97  4 25  3 24 30.0000000  0  8 03 21 28 26 23 06 01 17
  22972447.64602  -9769344.22202  -7612472.39105  22972447.64602  22972450.81005
  21828185.23002 -19491820.82502 -15188411.04405  21828185.23002  21828189.10605
  20631904.33606 -10526633.48106  -8202569.26409  20631888.05806  20631890.14106
  23293425.64702  -9119709.17302  -7106253.41905  23293425.64702  23293428.60705
  20616999.06002 -24166692.45502 -18831160.01605  20616999.06002  20617002.18505
  22870382.09602  13348978.70002  10401799.39205  22870382.09602  22870385.56805
  24554972.77802  -3507463.11602  -2733084.66805  24554972.77802  24554974.63705
  20739780.39202 -23062792.91302 -17970990.82405  20739780.39202  20739783.70105
 97  4 25  3 25  0.0000000  0  8 21 03 28 26 23 06 01 17
  21818049.37502 -19545085.83502 -15229916.21305  21818049.37502  21818052.79505
  22955451.38402  -9858654.60402  -7682064.88505  22955451.38402  22955454.76005
  20626363.09206 -10555754.14306  -8225260.68109  20626346.61106  20626348.81506
  23307194.53302  -9047353.60802  -7049872.45705  23307194.53302  23307197.82305
  20618469.40002 -24158966.33202 -18825139.64405  20618469.40002  20618472.46705
  22890033.37602  13452247.55002  10482268.63605  22890033.37602  22890037.38105
  24534010.83402  -3617620.60402  -2818921.61505  24534010.83402  24534016.05205
  20742659.18502 -23047664.67702 -17959202.58305  20742659.18502  20742662.60405
 97  4 25  3 25 30.0000000  0  8 21 03 28 26 23 06 01 17
  21807949.63802 -19598159.18302 -15271272.03405  21807949.63802  21807953.19305
  22938500.62702  -9947733.88102  -7751477.28505  22938500.62702  22938503.26405
  20620909.89206 -10584413.25706  -8247592.45009  20620892.93106  20620895.10906
  23321026.32602  -8974668.51602  -6993234.71105  23321026.32602  23321029.01605
  20619992.70402 -24150961.00802 -18818901.71105  20619992.70402  20619995.79105
  22909711.17402  13555655.25102  10562846.07205  22909711.17402  22909715.94905
  24513036.66502  -3727838.43302  -2904805.51405  24513036.66502  24513039.51105
  20745571.85702 -23032358.57502 -17947275.74305  20745571.85702  20745575.15205
 97  4 25  3 26  0.0000000  0  8 21 03 28 26 23 06 01 17
  21797895.29402 -19650994.90102 -15312442.68505  21797895.29402  21797899.28705
  22921603.29402 -10036532.14602  -7820670.73005  22921603.29402  22921605.77005
  20615551.53906 -10612557.07606  -8269522.69409  20615537.39906  20615539.48106
  23334929.47702  -8901604.69902  -6936301.86605  23334929.47702  23334932.04005
  20621576.73402 -24142635.85202 -18812414.56705  20621576.73402  20621579.89205
  22929427.20802  13659262.31902  10643578.85105  22929427.20802  22929430.31405
  24492061.59302  -3838062.21302  -2990694.09405  24492061.59302  24492065.66305
  20748525.48002 -23016836.88002 -17935180.90905  20748525.48002  20748528.88605
 97  4 25  3 26 30.0000000  0  8 21 03 28 26 23 06 01 17
  21787910.15402 -19703468.19202 -15353330.92805  21787910.15402  21787913.56705
  22904779.40902 -10124941.87402  -7889561.41305  22904779.40902  22904782.15405
  20610317.17806 -10640062.02006  -8290955.11009  20610303.35106  20610305.39206
  23348929.10902  -8828035.96502  -6878975.58205  23348929.10902  23348931.22905
  20623239.30302 -24133898.62202 -18805606.32805  20623239.30302  20623242.48205
  22949205.39402  13763197.36202  10724567.19605  22949205.39402  22949209.03405
  24471106.57702  -3948179.12002  -3076499.32505  24471106.57702  24471110.95005
  20751538.65102 -23001003.56502 -17922843.25505  20751538.65102  20751541.87505
 97  4 25  3 27  0.0000000  0  8 21 03 28 26 23 06 01 17
  21777975.04002 -19755677.28802 -15394013.30905  21777975.04002  21777978.51105
  22888011.19902 -10213060.19302  -7958225.01405  22888011.19902  22888014.33305
  20605188.76606 -10667012.09506  -8311955.16209  20605174.83006  20605176.86606
  23363008.29002  -8754050.08202  -6821324.23705  23363008.29002  23363011.31705
  20624963.23002 -24124840.28902 -18798547.87505  20624963.23002  20624966.41805
  22969030.95402  13867383.43902  10805751.15605  22969030.95402  22969034.80705
  24450155.15402  -4058278.25102  -3162290.76005  24450155.15402  24450158.44305
  20754591.19902 -22984961.50202 -17910342.93805  20754591.19902  20754594.58005
 97  4 25  3 27 30.0000000  0  8 21 03 28 26 23 06 01 17
  21768091.79102 -19807613.76102 -15434483.25805  21768091.79102  21768095.18505
  22871299.73902 -10300876.43102  -8026653.22305  22871299.73902  22871302.64205
  20600166.81706 -10693401.02006  -8332517.95209  20600153.16606  20600155.32606
  23377167.49002  -8679644.87602  -6763346.15005  23377167.49002  23377169.68205
  20626747.60502 -24115464.00202 -18791241.66105  20626747.60502  20626750.74105
  22988906.76902  13971829.91002  10887138.00605  22988906.76902  22988910.76705
  24429204.29502  -4168373.58602  -3248079.22405  24429204.29502  24429209.42105
  20757682.89502 -22968714.93002 -17897683.26705  20757682.89502  20757686.11905
 97  4 25  3 28  0.0000000  0  8 21 03 28 26 23 06 01 17
  21758260.39902 -19859276.78502 -15474740.13105  21758260.39902  21758264.04305
  22854647.41602 -10388385.71602  -8094842.25305  22854647.41602  22854650.75705
  20595251.54006 -10719232.07706  -8352646.03909  20595237.73106  20595239.80406
  23391407.63002  -8604812.59402  -6705035.26705  23391407.63002  23391410.40705
  20628589.12602 -24105786.42002 -18783700.67305  20628589.12602  20628592.20305
  23008829.19002  14076522.83602  10968716.89005  23008829.19002  23008832.74005
  24408248.36202  -4278496.58302  -3333889.27805  24408248.36202  24408254.30605
  20760815.58802 -22952252.45702 -17884855.35705  20760815.58802  20760818.85805
 97  4 25  3 28 30.0000000  0  8 21 03 28 26 23 06 01 17
  21748483.02402 -19910657.75502 -15514777.22305  21748483.02402  21748486.48905
  22838055.71302 -10475575.09302  -8162782.00605  22838055.71302  22838058.24205
  20590442.44306 -10744503.95306  -8372338.39909  20590428.61106  20590430.92706
  23405731.10402  -8529540.70302  -6646381.83405  23405731.10402  23405734.29505
  20630492.70902 -24095782.73002 -18775905.57405  20630492.70902  20630495.80405
  23028795.36402  14181447.57902  11050476.43005  23028795.36402  23028798.52805
  24387285.28102  -4388655.69502  -3419727.45005  24387285.28102  24387289.85105
  20763993.17502 -22935553.84602 -17871843.44205  20763993.17502  20763996.47205
 97  4 25  3 29  0.0000000  0  8 21 03 28 26 23 06 01 17
  21738758.18902 -19961763.08402 -15554599.52805  21738758.18902  21738761.74705
  22821525.75602 -10562441.49302  -8230470.09105  22821525.75602  22821529.52105
  20585737.66406 -10769225.53606  -8391601.95809  20585724.23006  20585726.48406
  23420135.90802  -8453842.38102  -6587396.13305  23420135.90802  23420139.03805
  20632459.35302 -24085447.09002 -18767851.81205  20632459.35302  20632462.57205
  23048803.37002  14286588.02802  11132404.06605  23048803.37002  23048806.47505
  24366315.04702  -4498857.69002  -3505599.05005  24366315.04702  24366319.72205
  20767218.20402 -22918606.48302 -17858637.69205  20767218.20402  20767221.46205
 97  4 25  3 29 30.0000000  0  8 03 21 28 26 23 06 01 17
  22805058.48702 -10648976.35802  -8297899.83305  22805058.48702  22805061.64205
  21729088.06102 -20012578.48102 -15594195.90405  21729088.06102  21729091.80705
  20581139.05706 -10793393.94806  -8410434.47809  20581125.06506  20581127.40506
  23434619.90902  -8377729.51502  -6528087.40105  23434619.90902  23434623.10005
  20634487.05902 -24074791.17902 -18759548.48905  20634487.05902  20634490.25405
  23068851.91302  14391944.69202  11214500.18205  23068851.91302  23068855.77805
  24345337.13502  -4609099.87002  -3591501.92505  24345337.13502  24345341.54005
  20770493.15902 -22901396.07102 -17845226.97005  20770493.15902  20770496.50405
 97  4 25  3 30  0.0000000  0  8 21 03 28 26 23 06 01 17
  21719471.30702 -20063114.10602 -15633574.28305  21719471.30702  21719474.96805
  22788651.28502 -10735197.91702  -8365085.44205  22788651.28502  22788654.91505
  20576646.02306 -10817011.96906  -8428838.12009  20576630.73306  20576632.98406
  23449183.24302  -8301198.20002  -6468452.60905  23449183.24302  23449186.42605
  20636572.47202 -24063832.21402 -18751009.02205  20636572.47202  20636575.61005
  23088942.04902  14497518.13302  11296765.20605  23088942.04902  23088945.27205
  24324356.64902  -4719353.16402  -3677413.48005  24324356.64902  24324361.38505
  20773818.75402 -22883919.61802 -17831608.94605  20773818.75402  20773822.19605
 97  4 25  3 30 30.0000000  0  8 21 03 28 26 23 06 01 17
  21709907.45302 -20113373.19902 -15672737.17705  21709907.45302  21709910.84905
  22772302.72802 -10821109.35002  -8432029.39705  22772302.72802  22772305.96705
  20572256.72206 -10840074.29106  -8446808.75109  20572242.11706  20572244.38906
  23463823.21902  -8224264.69102  -6408504.41205  23463823.21902  23463825.70805
  20638714.01702 -24052578.14902 -18742239.60705  20638714.01702  20638717.21905
  23109076.24802  14603323.38302  11379210.87005  23109076.24802  23109079.56705
  24303380.56702  -4829583.90202  -3763307.45605  24303380.56702  24303384.64705
  20777193.45202 -22866185.77702 -17817790.35705  20777193.45202  20777196.83505
 97  4 25  3 31  0.0000000  0  8 21 03 28 26 23 06 01 17
  21700393.53102 -20163369.51902 -15711695.32105  21700393.53102  21700397.05305
  22756012.70202 -10906714.14402  -8498734.41305  22756012.70202  22756015.77405
  20567973.06206 -10862580.58406  -8464346.11509  20567959.33406  20567961.60406
  23478534.89402  -8146953.91902  -6348262.24905  23478534.89402  23478538.17205
  20640905.80302 -24041060.39802 -18733264.72405  20640905.80302  20640908.97305
  23129253.71102  14709357.78802  11461835.07405  23129253.71102  23129256.91705
  24282409.84502  -4939786.63802  -3849179.60605  24282409.84502  24282413.55205
  20780615.77902 -22848200.79002 -17803776.07305  20780615.77902  20780619.22405
 97  4 25  3 31 30.0000000  0  8 03 21 28 26 23 06 01 17
  22739784.02602 -10991996.67602  -8565188.31705  22739784.02602  22739787.46405
  21690930.51502 -20213097.93302 -15750444.70405  21690930.51502  21690933.92505
  20563798.60506 -10884517.66706  -8481439.94009  20563784.73806  20563787.09406
  23493319.89802  -8069259.19302  -6287720.90405  23493319.89802  23493323.08405
  20643147.86402 -24029278.66002 -18724084.13505  20643147.86402  20643151.05205
  23149475.29002  14815625.36502  11544640.98105  23149475.29002  23149479.17805
  24261447.12202  -5049945.29202  -3935017.41305  24261447.12202  24261453.67905
  20784087.83502 -22829955.38702 -17789558.86305  20784087.83502  20784091.31705
 97  4 25  3 32  0.0000000  0  8 03 21 28 26 23 06 01 17
  22723618.82002 -11076946.09202  -8631382.65405  22723618.82002  22723621.48705
  21681519.58002 -20262552.17802 -15788980.45405  21681519.58002  21681523.38805
  20559735.52106 -10905871.90006  -8498079.59609  20559721.18706  20559723.49706
  23508180.94902  -7991161.91802  -6226865.88505  23508180.94902  23508184.03405
  20645444.96702 -24017206.39302 -18714677.16405  20645444.96702  20645448.15805
  23169741.56902  14922124.74802  11627627.51405  23169741.56902  23169745.40305
  24240494.70002  -5160046.84302  -4020810.73305  24240494.70002  24240499.63205
  20787613.09702 -22811429.31502 -17775122.95305  20787613.09702  20787616.70305
 97  4 25  3 32 30.0000000  0  8 03 21 28 26 23 06 01 17
  22707517.15702 -11161560.22302  -8697315.73205  22707517.15702  22707520.17005
  21672160.39302 -20311734.49502 -15827304.31005  21672160.39302  21672164.08605
  20555779.99006 -10926652.38506  -8514272.17509  20555766.71006  20555769.03106
  23523112.96302  -7912694.18402  -6165722.19305  23523112.96302  23523116.08605
  20647801.15402 -24004825.46802 -18705029.68005  20647801.15402  20647804.29905
  23190046.53102  15028825.97802  11710771.34805  23190046.53102  23190049.07905
  24219546.75002  -5270126.40402  -4106586.92505  24219546.75002  24219551.18305
  20791190.46002 -22792630.57902 -17760474.57905  20791190.46002  20791193.84305
 97  4 25  3 33  0.0000000  0  8 03 21 28 26 23 06 01 17
  22691477.17802 -11245850.18402  -8762996.20605  22691477.17802  22691480.31505
  21662853.01602 -20360645.88102 -15865417.04905  21662853.01602  21662856.59705
  20551934.05006 -10946867.00906  -8530023.82309  20551920.03206  20551922.31106
  23538114.78802  -7833857.92002  -6104291.33905  23538114.78802  23538117.79205
  20650218.13802 -23992124.22002 -18695132.59005  20650218.13802  20650221.25305
  23210385.89202  15135709.60502  11794057.30305  23210385.89202  23210389.38105
  24198599.88002  -5380202.88202  -4192360.70605  24198599.88002  24198604.00705
  20794818.09002 -22773567.04202 -17745619.86905  20794818.09002  20794821.54005
 97  4 25  3 33 30.0000000  0  8 03 21 28 26 23 06 01 17
  22675500.54402 -11329808.44302  -8828418.20905  22675500.54402  22675503.71005
  21653600.88702 -20409265.91502 -15903302.76005  21653600.88702  21653604.38605
  20548199.24606 -10966503.15106  -8545324.70509  20548183.42806  20548185.74506
  23553191.75602  -7754630.88702  -6042555.97705  23553191.75602  23553193.96805
  20652702.41902 -23979068.03202 -18684958.92705  20652702.41902  20652705.60405
  23230762.84202  15242792.79402  11877498.76205  23230762.84202  23230766.24905
  24177657.33902  -5490255.36702  -4278115.80305  24177657.33902  24177661.47505
  20798497.47602 -22754231.93802 -17730553.54705  20798497.47602  20798500.92905
 97  4 25  3 34  0.0000000  0  8 03 21 28 26 23 06 01 17
  22659589.58802 -11413418.21602  -8893568.66205  22659589.58802  22659592.81005
  21644408.02602 -20457573.68702 -15940945.15105  21644408.02602  21644411.74505
  20544574.57306 -10985543.64506  -8560161.45209  20544560.12606  20544562.47106
  23568345.84302  -7674993.91202  -5980501.18005  23568345.84302  23568348.59905
  20655258.71702 -23965635.15502 -18674491.74005  20655258.71702  20655261.82905
  23251180.41702  15350089.28602  11961106.43205  23251180.41702  23251186.09905
  24156722.20202  -5600267.50602  -4363839.46305  24156722.20202  24156726.49705
  20802229.21302 -22734620.61902 -17715271.99505  20802229.21302  20802232.68205
 97  4 25  3 34 30.0000000  0  8 03 21 28 26 23 06 01 17
  22643737.38502 -11496723.07702  -8958481.52405  22643737.38502  22643740.59105
  21635265.92202 -20505616.22202 -15978380.87005  21635265.92202  21635269.36205
  20541056.19006 -11004037.77106  -8574572.45509  20541040.86106  20541043.09706
  23583568.36802  -7594998.62002  -5918167.18305  23583568.36802  23583571.54505
  20657872.89902 -23951897.97302 -18663787.42905  20657872.89902  20657876.09305
  23271630.11102  15457554.30602  12044845.40805  23271630.11102  23271634.36305
  24135787.41402  -5710282.45502  -4449565.29605  24135787.41402  24135792.77905
  20806001.23502 -22714799.33202 -17699826.83505  20806001.23502  20806004.60105
 97  4 25  3 35  0.0000000  0  8 03 21 28 26 23 06 01 17
  22627949.39702 -11579690.66202  -9023131.57405  22627949.39702  22627952.54305
  21626179.26302 -20553366.64302 -16015588.96505  21626179.26302  21626182.81205
  20537648.73806 -11021949.52606  -8588529.66409  20537632.36606  20537634.60406
  23598870.22402  -7514587.63102  -5855509.27205  23598870.22402  23598872.11805
  20660546.65802 -23937846.31502 -18652838.07505  20660546.65802  20660549.87305
  23292120.88802  15565231.96802  12128750.08205  23292120.88802  23292124.85005
  24114862.88202  -5820245.41402  -4535250.62405  24114862.88202  24114867.45005
  20809818.95002 -22694736.86602 -17684193.73905  20809818.95002  20809822.33105
 97  4 25  3 35 30.0000000  0  8 03 21 28 26 23 06 01 17
  22612236.36402 -11662262.28602  -9087473.07605  22612236.36402  22612239.80005
  21617155.89402 -20600786.04202 -16052539.12005  21617155.89402  21617159.12105
  20534360.00306 -11039229.20106  -8601994.34409  20534344.08606  20534346.43606
  23614259.78202  -7433713.14702  -5792490.19605  23614259.78202  23614262.83205
  20663286.22702 -23923450.57002 -18641620.60605  20663286.22702  20663289.33605
  23312659.03302  15673159.24702  12212849.25705  23312659.03302  23312662.25905
  24093958.34302  -5930100.60502  -4620851.99005  24093958.34302  24093961.56405
  20813692.35002 -22674381.91102 -17668332.73205  20813692.35002  20813695.79105
 97  4 25  3 36  0.0000000  0  8 03 21 28 26 23 06 01 17
  22596589.82002 -11744486.60402  -9151543.95505  22596589.82002  22596593.01305
  21608184.68502 -20647929.18702 -16089274.01005  21608184.68502  21608187.95805
  20531180.50206 -11055929.40906  -8615007.49209  20531166.17906  20531168.39806
  23629726.09202  -7352441.11402  -5729161.34505  23629726.09202  23629728.86005
  20666076.35802 -23908788.19202 -18630195.37005  20666076.35802  20666079.53205
  23333232.34302  15781273.85602  12297094.41405  23333232.34302  23333236.25905
  24073063.20802  -6039904.18502  -4706413.13405  24073063.20802  24073067.15705
  20817612.06902 -22653783.56202 -17652282.06705  20817612.06902  20817615.50205
 97  4 25  3 36 30.0000000  0  8 03 21 28 26 23 06 01 17
  22581011.52602 -11826351.23902  -9215334.57205  22581011.52602  22581014.64305
  21599266.78402 -20694792.01302 -16125790.47405  21599266.78402  21599270.44905
  20528115.74406 -11072038.47506  -8627560.00809  20528100.78006  20528103.03606
  23645266.70302  -7270772.46702  -5665523.42505  23645266.70302  23645269.64905
  20668922.13702 -23893833.68502 -18618542.50205  20668922.13702  20668925.30405
  23353843.27702  15889585.16502  12381492.83505  23353843.27702  23353846.34205
  24052182.48502  -6149631.71302  -4791915.04305  24052182.48502  24052186.93005
  20821582.96202 -22632916.70802 -17636022.18105  20821582.96202  20821586.30705
 97  4 25  3 37  0.0000000  0  8 03 21 28 26 23 06 01 17
  22565501.76102 -11907855.26802  -9278844.18705  22565501.76102  22565504.82105
  21590399.92902 -20741387.65502 -16162098.73705  21590399.92902  21590403.64105
  20525161.52906 -11087563.72206  -8639657.60409  20525146.31406  20525148.60806
  23660880.83002  -7188720.80002  -5601587.06005  23660880.83002  23660883.99505
  20671825.35102 -23878577.44302 -18606654.50905  20671825.35102  20671828.45805
  23374487.98702  15998072.81202  12466028.67305  23374487.98702  23374491.19005
  24031314.76202  -6259291.19002  -4877363.89705  24031314.76202  24031318.02705
  20825605.57802 -22611777.35702 -17619549.95805  20825605.57802  20825609.05405
 97  4 25  3 37 30.0000000  0  8 03 21 28 26 23 06 01 17
  22550059.20302 -11989009.52202  -9342081.25505  22550059.20302  22550062.25505
  21581581.29502 -20787729.72502 -16198209.41305  21581581.29502  21581585.27405
  20522315.23806 -11102518.17606  -8651310.42209  20522300.55006  20522302.92106
  23676560.56902  -7106323.53502  -5537381.39705  23676560.56902  23676563.10205
  20674782.29502 -23863037.88902 -18594545.75705  20674782.29502  20674785.39105
  23395163.28102  16106722.09202  12550690.46205  23395163.28102  23395166.17505
  24010457.04202  -6368900.86002  -4962773.94005  24010457.04202  24010460.93705
  20829677.81302 -22590377.65802 -17602874.86705  20829677.81302  20829681.15505
 97  4 25  3 38  0.0000000  0  8 03 21 28 26 23 06 01 17
  22534683.51402 -12069808.25202  -9405041.28405  22534683.51402  22534686.64405
  21572812.03402 -20833812.56302 -16234118.09505  21572812.03402  21572815.41505
  20519577.34806 -11116898.62406  -8662515.96409  20519564.12206  20519566.32006
  23692304.09202  -7023587.41402  -5472911.68705  23692304.09202  23692307.43805
  20677795.67702 -23847202.68302 -18582206.62505  20677795.67702  20677798.76905
  23415870.64402  16215541.02602  12635484.44205  23415870.64402  23415873.77305
  23989608.18102  -6478462.89002  -5048146.88205  23989608.18102  23989612.72405
  20833801.34002 -22568708.45902 -17585989.77305  20833801.34002  20833804.58405
 97  4 25  3 38 30.0000000  0  8 03 21 28 26 23 06 01 17
  22519379.43102 -12150229.94102  -9467707.51705  22519379.43102  22519382.34505
  21564092.25102 -20879635.46402 -16269824.22705  21564092.25102  21564095.87305
  20516954.97406 -11130690.51406  -8673262.88709  20516939.69506  20516941.90606
  23708117.26802  -6940490.60802  -5408160.92805  23708117.26802  23708120.19605
  20680868.67002 -23831053.17302 -18569622.58105  20680868.67002  20680871.82605
  23436613.96402  16324547.88102  12720424.84205  23436613.96402  23436617.33105
  23968769.83002  -6587967.42002  -5133475.02405  23968769.83002  23968772.97605
  20837979.81502 -22546750.58002 -17568879.73405  20837979.81502  20837983.10305
 97  4 25  3 39  0.0000000  4  1
 -2609191.0000 -4570718.0000  3592953.0000                  APPROX POSITION XYZ
 97  4 25  3 39  0.0000000  0  8 03 21 28 26 23 06 01 17
  22504147.43902 -12230273.94202  -9530079.45305  22504147.43902  22504150.60905
  21555421.98902 -20925199.02102 -16305328.27805  21555421.98902  21555425.20805
  20514440.90306 -11143899.87906  -8683555.89609  20514425.98006  20514428.24106
  23723997.17802  -6857039.97702  -5343134.47405  23723997.17802  23723998.59405
  20683995.69002 -23814621.08302 -18556818.34505  20683995.69002  20683998.84405
  23457393.01602  16433744.71302  12805513.30005  23457393.01602  23457396.45405
  23947939.15702  -6697432.10502  -5218772.10405  23947939.15702  23947942.67905
  20842210.17202 -22524519.77702 -17551557.02805  20842210.17202  20842213.49705
 97  4 25  3 39 30.0000000  0  8 03 21 28 26 23 06 01 17
  22488988.17205 -12309935.63705  -9592153.47805  22488988.17205  22488991.20405
  21546805.49005 -20970478.56805 -16340611.02305  21546805.49005  21546808.81605
  20512040.03609 -11156514.45409  -8693385.43209  20512025.54106  20512027.72506
  23739945.20905  -6773233.61605  -5277830.81405  23739945.20905  23739947.37605
  20687177.43605 -23797901.31605 -18543789.94105  20687177.43605  20687180.42505
  23478213.03205  16543152.00705  12890765.74105  23478213.03205  23478216.25205
  23927119.70805  -6806840.93505  -5304025.66705  23927119.70805  23927123.58605
  20846494.00105 -22502007.93705 -17534015.33805  20846494.00105  20846497.32205
 97  4 25  3 40  0.0000000  0  8 03 21 28 26 23 06 01 17
  22473900.90905 -12389220.65805  -9653934.00005  22473900.90905  22473904.11105
  21538242.00405 -21015478.90705 -16375676.20005  21538242.00405  21538245.59305
  20509752.13909 -11168542.89009  -8702758.23609  20509736.58806  20509738.80906
  23755959.54505  -6689078.45705  -5212255.36205  23755959.54505  23755962.73605
  20690413.18805 -23780896.48205 -18530539.40905  20690413.18805  20690416.36305
  23499068.86105  16652747.82005  12976165.08605  23499068.86105  23499072.14205
  23906310.32505  -6916196.37105  -5389237.62105  23906310.32505  23906313.60105
  20850829.48505 -22479224.89205 -17516262.31405  20850829.48505  20850832.93305
 97  4 25  3 40 30.0000000  0  8 03 21 28 26 23 06 01 17
  22458887.92105 -12468114.64605  -9715409.83405  22458887.92105  22458891.08505
  21529733.66805 -21060190.09505 -16410516.05905  21529733.66805  21529737.12905
  20507575.81709 -11179976.57409  -8711667.59409  20507560.82106  20507563.03506
  23772038.93905  -6604578.53005  -5146411.26405  23772038.93905  23772041.93305
  20693703.70205 -23763605.28205 -18517065.73805  20693703.70205  20693706.88005
  23519960.19305  16762533.36705  13061712.27505  23519960.19305  23519963.38605
  23885514.32205  -7025478.12005  -5474392.17805  23885514.32205  23885519.03105
  20855215.72605 -22456175.12605 -17498301.45805  20855215.72605  20855219.15805
 97  4 25  3 41  0.0000000  0  8 03 21 28 26 23 06 01 17
  22443948.23205 -12546621.18905  -9776583.74205  22443948.23205  22443951.41805
  21521283.94405 -21104593.06205 -16445115.74905  21521283.94405  21521287.57905
  20505512.70909 -11190812.68209  -8720111.30909  20505498.76806  20505501.01006
  23788183.28605  -6519741.45305  -5080304.45705  23788183.28605  23788186.27505
  20697049.01505 -23746025.15305 -18503366.92905  20697049.01505  20697052.11005
  23540884.51705  16872492.87005  13147395.00105  23540884.51705  23540888.09205
  23864735.72505  -7134667.16005  -5559474.48205  23864735.72505  23864741.35205
  20859651.71305 -22432864.83305 -17480137.59105  20859651.71305  20859654.89005
 97  4 25  3 41 30.0000000  0  8 03 21 28 26 23 06 01 17
  22429082.90605 -12624740.15705  -9837455.64805  22429082.90605  22429086.07905
  21512891.10405 -21148699.59005 -16479484.44005  21512891.10405  21512894.33005
  20503564.43109 -11201052.56009  -8728090.42909  20503550.13306  20503552.37606
  23804390.27205  -6434570.25505  -5013937.28005  23804390.27205  23804394.03205
  20700449.89005 -23728153.01005 -18489440.57705  20700449.89005  20700453.06605
  23561838.83005  16982609.40705  13233200.09105  23561838.83005  23561843.38105
  23843977.19605  -7243752.70605  -5644476.14805  23843977.19605  23843982.33205
  20864136.77805 -22409294.78305 -17461771.31305  20864136.77805  20864140.12305
 97  4 25  3 42  0.0000000  0  8 03 21 28 26 23 06 01 17
  22414294.64405 -12702452.95605  -9898011.06605  22414294.64405  22414297.94705
  21504551.97505 -21192522.64505 -16513632.25205  21504551.97505  21504555.29405
  20501731.86009 -11210690.61609  -8735600.59809  20501716.05906  20501718.31706
  23820664.49105  -6349051.52605  -4947299.31905  23820664.49105  23820666.45205
  20703908.14405 -23709980.92305 -18475280.50205  20703908.14405  20703911.21205
  23582824.42005  17092886.55505  13319130.34905  23582824.42005  23582828.16105
  23823238.42205  -7352736.02105  -5729398.14505  23823238.42205  23823242.49005
  20868671.42405 -22385464.96805 -17443202.61905  20868671.42405  20868674.77205
 97  4 25  3 42 30.0000000  0  8 03 21 28 26 23 06 01 17
  22399582.83305 -12779763.90905  -9958253.35005  22399582.83305  22399585.87405
  21496265.11105 -21236069.58905 -16547564.91005  21496265.11105  21496268.41905
  20500011.23109 -11219730.65809  -8742644.78009  20499995.81906  20499998.02706
  23837004.41505  -6263183.99105  -4880389.56805  23837004.41505  23837007.24705
  20707422.73005 -23691511.90605 -18460889.05005  20707422.73005  20707425.87905
  23603841.79605  17203333.22205  13405192.69605  23603841.79605  23603844.99005
  23802516.93805  -7461628.18805  -5814249.13705  23802516.93805  23802521.29505
  20873253.95005 -22361384.06505 -17424438.27405  20873253.95005  20873257.14805
 97  4 25  3 43  0.0000000  0  8 03 21 28 26 23 06 01 17
  22384944.33805 -12856690.72605 -10018196.30605  22384944.33805  22384947.47205
  21488028.61905 -21279352.29405 -16581291.67205  21488028.61905  21488032.03505
  20498403.09209 -11228180.25009  -8749228.86909  20498387.90806  20498390.13706
  23853411.14105  -6176963.07905  -4813204.42705  23853411.14105  23853414.36405
  20710992.22405 -23672753.05405 -18446271.75205  20710992.22405  20710995.38605
  23624890.29905  17313945.90105  13491384.41505  23624890.29905  23624895.06805
  23781808.47605  -7570450.78105  -5899045.89505  23781808.47605  23781812.07705
  20877882.51705 -22337060.29305 -17405484.68005  20877882.51705  20877885.88905
 97  4 25  3 43 30.0000000  0  8 03 21 28 26 23 06 01 17
  22370380.83405 -12933221.99805 -10077831.04605  22370380.83405  22370383.99605
  21479841.07805 -21322377.72305 -16614817.95905  21479841.07805  21479844.56805
  20496907.56209 -11236037.58709  -8755351.46209  20496892.67206  20496894.91806
  23869887.41505  -6090383.73705  -4745740.00205  23869887.41505  23869890.60805
  20714617.50305 -23653702.43405 -18431427.10005  20714617.50305  20714620.60405
  23645974.67405  17424747.36105  13577723.23305  23645974.67405  23645978.38605
  23761110.57905  -7679219.21605  -5983800.45305  23761110.57905  23761114.54505
  20882558.03005 -22312490.46105 -17386339.35905  20882558.03005  20882561.42505
